<?xml version='1.0' encoding='UTF-8'?><gpx version="1.1" creator="JPX - https://github.com/jenetics/jpx" xmlns="http://www.topografix.com/GPX/1/1"><trk><trkseg><trkpt lat="46.176940191302975" lon="13.039839422217467"><ele>185.0</ele><time>2026-04-04T12:22:35Z</time></trkpt><trkpt lat="46.17693058792594" lon="13.039707233312333"><ele>185.0</ele><time>2026-04-04T12:22:38Z</time></trkpt><trkpt lat="46.17682881264838" lon="13.039544766383266"><ele>185.0</ele><time>2026-04-04T12:22:40Z</time></trkpt><trkpt lat="46.17674038067751" lon="13.039401779312806"><ele>185.0</ele><time>2026-04-04T12:22:41Z</time></trkpt><trkpt lat="46.176685677686656" lon="13.03928637941275"><ele>185.0</ele><time>2026-04-04T12:22:42Z</time></trkpt><trkpt lat="46.17663343662512" lon="13.039192294472974"><ele>185.0</ele><time>2026-04-04T12:22:43Z</time></trkpt><trkpt lat="46.17656707728647" lon="13.039076339248554"><ele>185.0</ele><time>2026-04-04T12:22:44Z</time></trkpt><trkpt lat="46.17650796957714" lon="13.038939381399654"><ele>185.0</ele><time>2026-04-04T12:22:45Z</time></trkpt><trkpt lat="46.17643451012752" lon="13.038791418002141"><ele>185.0</ele><time>2026-04-04T12:22:46Z</time></trkpt><trkpt lat="46.17636192531524" lon="13.038622015832233"><ele>185.0</ele><time>2026-04-04T12:22:47Z</time></trkpt><trkpt lat="46.17629522483232" lon="13.038477658680558"><ele>185.0</ele><time>2026-04-04T12:22:48Z</time></trkpt><trkpt lat="46.17625067548644" lon="13.03832716335868"><ele>185.0</ele><time>2026-04-04T12:22:49Z</time></trkpt><trkpt lat="46.17619629929151" lon="13.038163646431931"><ele>185.0</ele><time>2026-04-04T12:22:50Z</time></trkpt><trkpt lat="46.17614690540114" lon="13.037981054745345"><ele>185.0</ele><time>2026-04-04T12:22:51Z</time></trkpt><trkpt lat="46.176100481866364" lon="13.037781555737627"><ele>185.0</ele><time>2026-04-04T12:22:52Z</time></trkpt><trkpt lat="46.17605748876404" lon="13.037584229485343"><ele>185.0</ele><time>2026-04-04T12:22:53Z</time></trkpt><trkpt lat="46.17601167605276" lon="13.037391836939172"><ele>185.0</ele><time>2026-04-04T12:22:54Z</time></trkpt><trkpt lat="46.17597182617993" lon="13.03721628308076"><ele>184.25</ele><time>2026-04-04T12:22:55Z</time></trkpt><trkpt lat="46.175931671291764" lon="13.037042122529389"><ele>183.5</ele><time>2026-04-04T12:22:56Z</time></trkpt><trkpt lat="46.1758896102666" lon="13.036873804230463"><ele>182.75</ele><time>2026-04-04T12:22:57Z</time></trkpt><trkpt lat="46.17584291603881" lon="13.036682074558515"><ele>182.0</ele><time>2026-04-04T12:22:58Z</time></trkpt><trkpt lat="46.17579154963026" lon="13.036483818431044"><ele>181.66666666666666</ele><time>2026-04-04T12:22:59Z</time></trkpt><trkpt lat="46.17573960979415" lon="13.03627763224692"><ele>181.33333333333334</ele><time>2026-04-04T12:23:00Z</time></trkpt><trkpt lat="46.17569043569287" lon="13.036073461844738"><ele>181.0</ele><time>2026-04-04T12:23:01Z</time></trkpt><trkpt lat="46.175636642433304" lon="13.03584760767812"><ele>180.0</ele><time>2026-04-04T12:23:02Z</time></trkpt><trkpt lat="46.175571482506406" lon="13.035584939523046"><ele>179.0</ele><time>2026-04-04T12:23:03Z</time></trkpt><trkpt lat="46.17551762530202" lon="13.035361251355134"><ele>178.0</ele><time>2026-04-04T12:23:04Z</time></trkpt><trkpt lat="46.17546511579951" lon="13.035150607194831"><ele>177.33333333333334</ele><time>2026-04-04T12:23:05Z</time></trkpt><trkpt lat="46.175408678313325" lon="13.034920957088035"><ele>176.66666666666666</ele><time>2026-04-04T12:23:06Z</time></trkpt><trkpt lat="46.17535091851702" lon="13.034687236197566"><ele>176.0</ele><time>2026-04-04T12:23:07Z</time></trkpt><trkpt lat="46.17529898572093" lon="13.034475199095994"><ele>176.0</ele><time>2026-04-04T12:23:08Z</time></trkpt><trkpt lat="46.17524383454132" lon="13.03425447969061"><ele>176.0</ele><time>2026-04-04T12:23:09Z</time></trkpt><trkpt lat="46.17519056340935" lon="13.034028438729017"><ele>176.0</ele><time>2026-04-04T12:23:10Z</time></trkpt><trkpt lat="46.17514006801011" lon="13.033797048468474"><ele>177.0</ele><time>2026-04-04T12:23:11Z</time></trkpt><trkpt lat="46.17508293953074" lon="13.033566595352504"><ele>178.0</ele><time>2026-04-04T12:23:12Z</time></trkpt><trkpt lat="46.17502943308357" lon="13.033341899834488"><ele>179.0</ele><time>2026-04-04T12:23:13Z</time></trkpt><trkpt lat="46.17498564595762" lon="13.033111569299692"><ele>179.0</ele><time>2026-04-04T12:23:14Z</time></trkpt><trkpt lat="46.17491730947666" lon="13.032877727845435"><ele>179.0</ele><time>2026-04-04T12:23:15Z</time></trkpt><trkpt lat="46.174858466404515" lon="13.032631595823009"><ele>179.0</ele><time>2026-04-04T12:23:16Z</time></trkpt><trkpt lat="46.17479874880728" lon="13.032385666972223"><ele>178.33333333333331</ele><time>2026-04-04T12:23:17Z</time></trkpt><trkpt lat="46.174740523539114" lon="13.032149701160325"><ele>177.66666666666666</ele><time>2026-04-04T12:23:18Z</time></trkpt><trkpt lat="46.17468363443777" lon="13.031910872952196"><ele>177.0</ele><time>2026-04-04T12:23:19Z</time></trkpt><trkpt lat="46.17462575659218" lon="13.031669459249839"><ele>176.33333333333334</ele><time>2026-04-04T12:23:20Z</time></trkpt><trkpt lat="46.17456721227562" lon="13.031425528807024"><ele>175.66666666666669</ele><time>2026-04-04T12:23:21Z</time></trkpt><trkpt lat="46.174508556577955" lon="13.031175314248244"><ele>175.0</ele><time>2026-04-04T12:23:22Z</time></trkpt><trkpt lat="46.17445085845848" lon="13.030925591960848"><ele>175.0</ele><time>2026-04-04T12:23:23Z</time></trkpt><trkpt lat="46.17439387825696" lon="13.030684660876947"><ele>175.0</ele><time>2026-04-04T12:23:23.998Z</time></trkpt><trkpt lat="46.1743370023337" lon="13.030440738617333"><ele>175.0</ele><time>2026-04-04T12:23:24.998Z</time></trkpt><trkpt lat="46.17427901504411" lon="13.030198625388213"><ele>175.33333333333334</ele><time>2026-04-04T12:23:25.998Z</time></trkpt><trkpt lat="46.17422087036748" lon="13.029954447956534"><ele>175.66666666666666</ele><time>2026-04-04T12:23:26.998Z</time></trkpt><trkpt lat="46.17416342846921" lon="13.02970882982529"><ele>176.0</ele><time>2026-04-04T12:23:27.998Z</time></trkpt><trkpt lat="46.17410596287271" lon="13.02946310636937"><ele>176.0</ele><time>2026-04-04T12:23:28.998Z</time></trkpt><trkpt lat="46.174046909334514" lon="13.029214651947235"><ele>176.0</ele><time>2026-04-04T12:23:29.998Z</time></trkpt><trkpt lat="46.17398732070501" lon="13.028977237227215"><ele>176.0</ele><time>2026-04-04T12:23:30.998Z</time></trkpt><trkpt lat="46.17393170727689" lon="13.028739784134798"><ele>175.66666666666666</ele><time>2026-04-04T12:23:31.998Z</time></trkpt><trkpt lat="46.173876441241724" lon="13.028505711567695"><ele>175.33333333333334</ele><time>2026-04-04T12:23:32.998Z</time></trkpt><trkpt lat="46.17381939785274" lon="13.028283855774472"><ele>175.0</ele><time>2026-04-04T12:23:33.998Z</time></trkpt><trkpt lat="46.17376686709377" lon="13.028060101510514"><ele>175.0</ele><time>2026-04-04T12:23:34.998Z</time></trkpt><trkpt lat="46.173710461344555" lon="13.027830169863686"><ele>175.0</ele><time>2026-04-04T12:23:35.998Z</time></trkpt><trkpt lat="46.17365366111885" lon="13.02760040778636"><ele>175.0</ele><time>2026-04-04T12:23:36.998Z</time></trkpt><trkpt lat="46.173598269711235" lon="13.027356511375906"><ele>175.33333333333334</ele><time>2026-04-04T12:23:37.999Z</time></trkpt><trkpt lat="46.17353772735138" lon="13.02711458068815"><ele>175.66666666666666</ele><time>2026-04-04T12:23:38.999Z</time></trkpt><trkpt lat="46.17347839735453" lon="13.026865164579391"><ele>176.0</ele><time>2026-04-04T12:23:39.999Z</time></trkpt><trkpt lat="46.173418457675304" lon="13.02661499569528"><ele>176.33333333333331</ele><time>2026-04-04T12:23:40.999Z</time></trkpt><trkpt lat="46.17335874862153" lon="13.026358821258965"><ele>176.66666666666666</ele><time>2026-04-04T12:23:41.999Z</time></trkpt><trkpt lat="46.173299863211476" lon="13.0261061097295"><ele>177.0</ele><time>2026-04-04T12:23:42.999Z</time></trkpt><trkpt lat="46.173238803075705" lon="13.025854675380893"><ele>175.66666666666666</ele><time>2026-04-04T12:23:43.999Z</time></trkpt><trkpt lat="46.173175843697464" lon="13.025599013083177"><ele>174.33333333333331</ele><time>2026-04-04T12:23:44.999Z</time></trkpt><trkpt lat="46.173114640450784" lon="13.025335943623546"><ele>173.0</ele><time>2026-04-04T12:23:45.999Z</time></trkpt><trkpt lat="46.1730527298566" lon="13.025076255471507"><ele>173.33333333333331</ele><time>2026-04-04T12:23:46.999Z</time></trkpt><trkpt lat="46.17298972388068" lon="13.024813973690724"><ele>173.66666666666666</ele><time>2026-04-04T12:23:47.999Z</time></trkpt><trkpt lat="46.17292585037254" lon="13.024547658083156"><ele>174.0</ele><time>2026-04-04T12:23:48.999Z</time></trkpt><trkpt lat="46.172862621485045" lon="13.024289783635641"><ele>174.33333333333334</ele><time>2026-04-04T12:23:49.999Z</time></trkpt><trkpt lat="46.17280213402557" lon="13.024023861296135"><ele>174.66666666666669</ele><time>2026-04-04T12:23:50.999Z</time></trkpt><trkpt lat="46.17274021248153" lon="13.023766769723892"><ele>175.0</ele><time>2026-04-04T12:23:51.999Z</time></trkpt><trkpt lat="46.172675879832774" lon="13.023498659205584"><ele>174.66666666666669</ele><time>2026-04-04T12:23:52.999Z</time></trkpt><trkpt lat="46.17261039802725" lon="13.023233592117114"><ele>174.33333333333334</ele><time>2026-04-04T12:23:53.999Z</time></trkpt><trkpt lat="46.172543605577616" lon="13.022967214998829"><ele>174.0</ele><time>2026-04-04T12:23:54.999Z</time></trkpt><trkpt lat="46.17248439816514" lon="13.022716711136212"><ele>174.0</ele><time>2026-04-04T12:23:55.999Z</time></trkpt><trkpt lat="46.172429377354604" lon="13.022479655238767"><ele>174.0</ele><time>2026-04-04T12:23:56.999Z</time></trkpt><trkpt lat="46.172368647364564" lon="13.022227864543908"><ele>174.0</ele><time>2026-04-04T12:23:57.999Z</time></trkpt><trkpt lat="46.1723127913443" lon="13.021989096172721"><ele>174.0</ele><time>2026-04-04T12:23:58.999Z</time></trkpt><trkpt lat="46.17225569645833" lon="13.021749122906405"><ele>174.0</ele><time>2026-04-04T12:23:59.999Z</time></trkpt><trkpt lat="46.17219739198287" lon="13.021508646363552"><ele>174.0</ele><time>2026-04-04T12:24:00.999Z</time></trkpt><trkpt lat="46.1721411868854" lon="13.021268165467163"><ele>175.33333333333334</ele><time>2026-04-04T12:24:01.999Z</time></trkpt><trkpt lat="46.172082741093746" lon="13.021027814967445"><ele>176.66666666666669</ele><time>2026-04-04T12:24:02.999Z</time></trkpt><trkpt lat="46.172023835451604" lon="13.02078229130373"><ele>178.0</ele><time>2026-04-04T12:24:03.999Z</time></trkpt><trkpt lat="46.171964260546815" lon="13.02054132775586"><ele>179.66666666666669</ele><time>2026-04-04T12:24:04.999Z</time></trkpt><trkpt lat="46.171910887529286" lon="13.020307846369946"><ele>181.33333333333334</ele><time>2026-04-04T12:24:05.999Z</time></trkpt><trkpt lat="46.17185268162623" lon="13.020065573998231"><ele>183.0</ele><time>2026-04-04T12:24:06.999Z</time></trkpt><trkpt lat="46.171795340218225" lon="13.019817269271496"><ele>184.0</ele><time>2026-04-04T12:24:07.999Z</time></trkpt><trkpt lat="46.171735616115356" lon="13.019568536289585"><ele>185.0</ele><time>2026-04-04T12:24:08.999Z</time></trkpt><trkpt lat="46.17167682712765" lon="13.019324956943102"><ele>186.0</ele><time>2026-04-04T12:24:09.999Z</time></trkpt><trkpt lat="46.17161804661232" lon="13.019083153693368"><ele>186.33333333333334</ele><time>2026-04-04T12:24:10.999Z</time></trkpt><trkpt lat="46.171559326266916" lon="13.018843408281104"><ele>186.66666666666669</ele><time>2026-04-04T12:24:11.999Z</time></trkpt><trkpt lat="46.17150198645605" lon="13.018598244377342"><ele>187.0</ele><time>2026-04-04T12:24:12.999Z</time></trkpt><trkpt lat="46.171446740032344" lon="13.01834959155535"><ele>186.0</ele><time>2026-04-04T12:24:13.999Z</time></trkpt><trkpt lat="46.171386871161914" lon="13.018103367876591"><ele>185.0</ele><time>2026-04-04T12:24:14.999Z</time></trkpt><trkpt lat="46.17132888123359" lon="13.017858115802134"><ele>184.0</ele><time>2026-04-04T12:24:15.999Z</time></trkpt><trkpt lat="46.17127019901993" lon="13.017607983546784"><ele>185.0</ele><time>2026-04-04T12:24:16.999Z</time></trkpt><trkpt lat="46.17120934680375" lon="13.017360190217259"><ele>186.0</ele><time>2026-04-04T12:24:17.999Z</time></trkpt><trkpt lat="46.171148645558155" lon="13.017106538079506"><ele>187.0</ele><time>2026-04-04T12:24:18.999Z</time></trkpt><trkpt lat="46.171091981633076" lon="13.016870547823297"><ele>188.0</ele><time>2026-04-04T12:24:19.999Z</time></trkpt><trkpt lat="46.17103495931546" lon="13.016636406913031"><ele>189.0</ele><time>2026-04-04T12:24:20.999Z</time></trkpt><trkpt lat="46.17097087200303" lon="13.016407549154678"><ele>190.0</ele><time>2026-04-04T12:24:22Z</time></trkpt><trkpt lat="46.17090010228187" lon="13.016178743754141"><ele>190.0</ele><time>2026-04-04T12:24:23Z</time></trkpt><trkpt lat="46.17082079839173" lon="13.015952378623291"><ele>190.0</ele><time>2026-04-04T12:24:24Z</time></trkpt><trkpt lat="46.170730920949524" lon="13.015722952436631"><ele>190.0</ele><time>2026-04-04T12:24:25Z</time></trkpt><trkpt lat="46.17063397135073" lon="13.015505831530545"><ele>190.0</ele><time>2026-04-04T12:24:26Z</time></trkpt><trkpt lat="46.170542916514556" lon="13.015286823430138"><ele>190.0</ele><time>2026-04-04T12:24:27Z</time></trkpt><trkpt lat="46.170441340252864" lon="13.015081584626195"><ele>190.0</ele><time>2026-04-04T12:24:28Z</time></trkpt><trkpt lat="46.17033477897066" lon="13.014870713741084"><ele>190.33333333333334</ele><time>2026-04-04T12:24:29Z</time></trkpt><trkpt lat="46.17023146548617" lon="13.014663673323886"><ele>190.66666666666666</ele><time>2026-04-04T12:24:30Z</time></trkpt><trkpt lat="46.17013174594809" lon="13.014449456434603"><ele>191.0</ele><time>2026-04-04T12:24:31Z</time></trkpt><trkpt lat="46.17002811386323" lon="13.01423949388214"><ele>191.33333333333331</ele><time>2026-04-04T12:24:32Z</time></trkpt><trkpt lat="46.16992439554022" lon="13.014028333974537"><ele>191.66666666666666</ele><time>2026-04-04T12:24:33Z</time></trkpt><trkpt lat="46.16982201960913" lon="13.013815010412696"><ele>192.0</ele><time>2026-04-04T12:24:34Z</time></trkpt><trkpt lat="46.169720888088854" lon="13.013601435780219"><ele>192.33333333333331</ele><time>2026-04-04T12:24:35Z</time></trkpt><trkpt lat="46.169619404011804" lon="13.013389340252889"><ele>192.66666666666666</ele><time>2026-04-04T12:24:36Z</time></trkpt><trkpt lat="46.16951778690723" lon="13.01317925149956"><ele>193.0</ele><time>2026-04-04T12:24:37Z</time></trkpt><trkpt lat="46.16941847596197" lon="13.01296633584652"><ele>192.33333333333331</ele><time>2026-04-04T12:24:38Z</time></trkpt><trkpt lat="46.16931534959561" lon="13.01275053683702"><ele>191.66666666666666</ele><time>2026-04-04T12:24:39Z</time></trkpt><trkpt lat="46.169211184809384" lon="13.012533831146717"><ele>191.0</ele><time>2026-04-04T12:24:40Z</time></trkpt><trkpt lat="46.16910192730468" lon="13.01232507394887"><ele>191.66666666666666</ele><time>2026-04-04T12:24:41Z</time></trkpt><trkpt lat="46.168996167125435" lon="13.01212217777614"><ele>192.33333333333331</ele><time>2026-04-04T12:24:42Z</time></trkpt><trkpt lat="46.1688711283802" lon="13.011935030212308"><ele>193.0</ele><time>2026-04-04T12:24:43Z</time></trkpt><trkpt lat="46.168740247985816" lon="13.011760875019926"><ele>192.66666666666666</ele><time>2026-04-04T12:24:44Z</time></trkpt><trkpt lat="46.168602235728365" lon="13.01162152580615"><ele>192.33333333333331</ele><time>2026-04-04T12:24:45Z</time></trkpt><trkpt lat="46.168447922243494" lon="13.011475687936358"><ele>192.0</ele><time>2026-04-04T12:24:46Z</time></trkpt><trkpt lat="46.16827803993745" lon="13.011324862760837"><ele>192.33333333333331</ele><time>2026-04-04T12:24:47Z</time></trkpt><trkpt lat="46.16809582225795" lon="13.011175154628555"><ele>192.66666666666666</ele><time>2026-04-04T12:24:48Z</time></trkpt><trkpt lat="46.16791285860746" lon="13.011029529354866"><ele>193.0</ele><time>2026-04-04T12:24:49Z</time></trkpt><trkpt lat="46.16773714663771" lon="13.01089016980173"><ele>193.0</ele><time>2026-04-04T12:24:50Z</time></trkpt><trkpt lat="46.16757438506232" lon="13.010762935818269"><ele>193.0</ele><time>2026-04-04T12:24:51Z</time></trkpt><trkpt lat="46.16742631584052" lon="13.010642542531299"><ele>193.0</ele><time>2026-04-04T12:24:52Z</time></trkpt><trkpt lat="46.16727446321743" lon="13.010521475741234"><ele>193.66666666666666</ele><time>2026-04-04T12:24:53Z</time></trkpt><trkpt lat="46.16712438398151" lon="13.01039784403053"><ele>194.33333333333331</ele><time>2026-04-04T12:24:54Z</time></trkpt><trkpt lat="46.166967437226155" lon="13.010277990840676"><ele>195.0</ele><time>2026-04-04T12:24:55Z</time></trkpt><trkpt lat="46.16681245973585" lon="13.010153486991193"><ele>195.0</ele><time>2026-04-04T12:24:56Z</time></trkpt><trkpt lat="46.16665626441603" lon="13.010025712844415"><ele>195.0</ele><time>2026-04-04T12:24:57Z</time></trkpt><trkpt lat="46.16649728312758" lon="13.009896232822479"><ele>195.0</ele><time>2026-04-04T12:24:58Z</time></trkpt><trkpt lat="46.166337917469626" lon="13.009767833402005"><ele>195.66666666666669</ele><time>2026-04-04T12:24:59Z</time></trkpt><trkpt lat="46.16617167142407" lon="13.009635741202956"><ele>196.33333333333334</ele><time>2026-04-04T12:25:00Z</time></trkpt><trkpt lat="46.16600482610082" lon="13.009502220720835"><ele>197.0</ele><time>2026-04-04T12:25:01Z</time></trkpt><trkpt lat="46.165838585552144" lon="13.009368479142017"><ele>197.33333333333334</ele><time>2026-04-04T12:25:02Z</time></trkpt><trkpt lat="46.16567138541141" lon="13.009231535761472"><ele>197.66666666666669</ele><time>2026-04-04T12:25:03Z</time></trkpt><trkpt lat="46.165502094530936" lon="13.009096720069303"><ele>198.0</ele><time>2026-04-04T12:25:04Z</time></trkpt><trkpt lat="46.16533590352849" lon="13.008961102868483"><ele>198.0</ele><time>2026-04-04T12:25:05Z</time></trkpt><trkpt lat="46.16517033578444" lon="13.008829656233779"><ele>198.0</ele><time>2026-04-04T12:25:06Z</time></trkpt><trkpt lat="46.165016495018016" lon="13.00870894566401"><ele>198.0</ele><time>2026-04-04T12:25:07Z</time></trkpt><trkpt lat="46.16487120344854" lon="13.008592745629155"><ele>198.0</ele><time>2026-04-04T12:25:08Z</time></trkpt><trkpt lat="46.164720244733324" lon="13.008476126929798"><ele>198.0</ele><time>2026-04-04T12:25:09Z</time></trkpt><trkpt lat="46.16457086905309" lon="13.008354569658172"><ele>198.0</ele><time>2026-04-04T12:25:10Z</time></trkpt><trkpt lat="46.16441802290937" lon="13.00823190105609"><ele>198.66666666666669</ele><time>2026-04-04T12:25:11Z</time></trkpt><trkpt lat="46.164269759708" lon="13.008109402763637"><ele>199.33333333333334</ele><time>2026-04-04T12:25:12Z</time></trkpt><trkpt lat="46.16412416070933" lon="13.00798631697417"><ele>200.0</ele><time>2026-04-04T12:25:13Z</time></trkpt><trkpt lat="46.163989005357045" lon="13.007854925265717"><ele>200.0</ele><time>2026-04-04T12:25:14Z</time></trkpt><trkpt lat="46.16386394295749" lon="13.00770379656957"><ele>200.0</ele><time>2026-04-04T12:25:15Z</time></trkpt><trkpt lat="46.16374533230742" lon="13.00753937865828"><ele>200.0</ele><time>2026-04-04T12:25:16Z</time></trkpt><trkpt lat="46.163635860155544" lon="13.007362577380185"><ele>200.0</ele><time>2026-04-04T12:25:17Z</time></trkpt><trkpt lat="46.16352784658244" lon="13.007166149333584"><ele>200.0</ele><time>2026-04-04T12:25:18Z</time></trkpt><trkpt lat="46.163425241823795" lon="13.006955590208086"><ele>200.0</ele><time>2026-04-04T12:25:19Z</time></trkpt><trkpt lat="46.16333378052422" lon="13.006734573595937"><ele>200.33333333333334</ele><time>2026-04-04T12:25:20Z</time></trkpt><trkpt lat="46.163239932778914" lon="13.006498424105219"><ele>200.66666666666669</ele><time>2026-04-04T12:25:21Z</time></trkpt><trkpt lat="46.16315837284977" lon="13.006264723789846"><ele>201.0</ele><time>2026-04-04T12:25:22Z</time></trkpt><trkpt lat="46.16307961116304" lon="13.006038541594203"><ele>201.0</ele><time>2026-04-04T12:25:23Z</time></trkpt><trkpt lat="46.16299447424236" lon="13.005817152130842"><ele>201.0</ele><time>2026-04-04T12:25:24Z</time></trkpt><trkpt lat="46.16291403768387" lon="13.00559357173819"><ele>201.0</ele><time>2026-04-04T12:25:25Z</time></trkpt><trkpt lat="46.16283782346431" lon="13.005374554002273"><ele>201.0</ele><time>2026-04-04T12:25:26Z</time></trkpt><trkpt lat="46.16276124029713" lon="13.005167545291139"><ele>201.0</ele><time>2026-04-04T12:25:27Z</time></trkpt><trkpt lat="46.16269245925933" lon="13.00497724491664"><ele>201.0</ele><time>2026-04-04T12:25:28Z</time></trkpt><trkpt lat="46.16263614409584" lon="13.004810896055162"><ele>201.0</ele><time>2026-04-04T12:25:29Z</time></trkpt><trkpt lat="46.162580990649204" lon="13.004657573732853"><ele>201.20000000000002</ele><time>2026-04-04T12:25:29.998Z</time></trkpt><trkpt lat="46.16253856646676" lon="13.00451893820266"><ele>201.4</ele><time>2026-04-04T12:25:30.998Z</time></trkpt><trkpt lat="46.16250317136606" lon="13.004393983501924"><ele>201.6</ele><time>2026-04-04T12:25:31.998Z</time></trkpt><trkpt lat="46.162481109628885" lon="13.00427622247355"><ele>201.8</ele><time>2026-04-04T12:25:32.998Z</time></trkpt><trkpt lat="46.16247815505796" lon="13.004141178217521"><ele>202.0</ele><time>2026-04-04T12:25:33.998Z</time></trkpt><trkpt lat="46.162489815144575" lon="13.004017858219257"><ele>202.16666666666666</ele><time>2026-04-04T12:25:34.999Z</time></trkpt><trkpt lat="46.16249068279501" lon="13.00390000955264"><ele>202.33333333333331</ele><time>2026-04-04T12:25:35.999Z</time></trkpt><trkpt lat="46.16249052034095" lon="13.003792118927882"><ele>202.5</ele><time>2026-04-04T12:25:36.999Z</time></trkpt><trkpt lat="46.16245192189482" lon="13.00368727132665"><ele>202.66666666666669</ele><time>2026-04-04T12:25:37.999Z</time></trkpt><trkpt lat="46.16237455542709" lon="13.00363501011825"><ele>202.83333333333334</ele><time>2026-04-04T12:25:38.999Z</time></trkpt><trkpt lat="46.16230336686503" lon="13.003608425466197"><ele>203.0</ele><time>2026-04-04T12:25:39.999Z</time></trkpt><trkpt lat="46.162226800773595" lon="13.003618739130571"><ele>203.00000000000003</ele><time>2026-04-04T12:25:40.999Z</time></trkpt><trkpt lat="46.162161003167036" lon="13.003666922912492"><ele>203.0</ele><time>2026-04-04T12:25:41.999Z</time></trkpt><trkpt lat="46.162111925201714" lon="13.003748328084663"><ele>203.0</ele><time>2026-04-04T12:25:42.999Z</time></trkpt><trkpt lat="46.16207248245615" lon="13.00385964902164"><ele>203.0</ele><time>2026-04-04T12:25:43.999Z</time></trkpt><trkpt lat="46.16203081100673" lon="13.003985223416311"><ele>203.00000000000003</ele><time>2026-04-04T12:25:44.999Z</time></trkpt><trkpt lat="46.16202095281754" lon="13.004076634765493"><ele>203.0</ele><time>2026-04-04T12:25:45.999Z</time></trkpt><trkpt lat="46.16191296948076" lon="13.004102392096456"><ele>203.0</ele><time>2026-04-04T12:25:46.999Z</time></trkpt><trkpt lat="46.16184676172484" lon="13.00410544470917"><ele>203.0</ele><time>2026-04-04T12:25:47.999Z</time></trkpt><trkpt lat="46.161767373717176" lon="13.004088874570352"><ele>203.0</ele><time>2026-04-04T12:25:48.999Z</time></trkpt><trkpt lat="46.16167775243084" lon="13.004105119469537"><ele>203.0</ele><time>2026-04-04T12:25:49.999Z</time></trkpt><trkpt lat="46.16156524737644" lon="13.004171219616813"><ele>203.0</ele><time>2026-04-04T12:25:50.999Z</time></trkpt><trkpt lat="46.161430632051065" lon="13.004242863197714"><ele>202.75</ele><time>2026-04-04T12:25:51.999Z</time></trkpt><trkpt lat="46.1613026617446" lon="13.00429868869812"><ele>202.5</ele><time>2026-04-04T12:25:52.999Z</time></trkpt><trkpt lat="46.16116787619438" lon="13.004377636951592"><ele>202.25</ele><time>2026-04-04T12:25:53.999Z</time></trkpt><trkpt lat="46.16103318350835" lon="13.004449045717019"><ele>202.0</ele><time>2026-04-04T12:25:54.999Z</time></trkpt><trkpt lat="46.16091214248758" lon="13.004506482492548"><ele>202.0</ele><time>2026-04-04T12:25:55.999Z</time></trkpt><trkpt lat="46.16079128937419" lon="13.004564170066036"><ele>202.0</ele><time>2026-04-04T12:25:56.999Z</time></trkpt><trkpt lat="46.16066807259127" lon="13.004625688886911"><ele>202.0</ele><time>2026-04-04T12:25:57.999Z</time></trkpt><trkpt lat="46.160546940844924" lon="13.004692109230692"><ele>202.0</ele><time>2026-04-04T12:25:58.999Z</time></trkpt><trkpt lat="46.16042284486963" lon="13.004751301829744"><ele>202.5</ele><time>2026-04-04T12:25:59.999Z</time></trkpt><trkpt lat="46.16030173639907" lon="13.004811689579386"><ele>203.0</ele><time>2026-04-04T12:26:00.999Z</time></trkpt><trkpt lat="46.16019245983116" lon="13.00487275787642"><ele>203.5</ele><time>2026-04-04T12:26:01.999Z</time></trkpt><trkpt lat="46.1600877295506" lon="13.004927899145255"><ele>204.0</ele><time>2026-04-04T12:26:03Z</time></trkpt><trkpt lat="46.15998299689046" lon="13.004982293060804"><ele>204.39999999999998</ele><time>2026-04-04T12:26:04Z</time></trkpt><trkpt lat="46.159882852132355" lon="13.00503646342608"><ele>204.8</ele><time>2026-04-04T12:26:05Z</time></trkpt><trkpt lat="46.159783900016166" lon="13.005087520960142"><ele>205.2</ele><time>2026-04-04T12:26:06Z</time></trkpt><trkpt lat="46.15968252503252" lon="13.005134106018948"><ele>205.60000000000002</ele><time>2026-04-04T12:26:07Z</time></trkpt><trkpt lat="46.15958216353805" lon="13.005181339030848"><ele>206.0</ele><time>2026-04-04T12:26:08Z</time></trkpt><trkpt lat="46.159480834922746" lon="13.005228197557475"><ele>206.0</ele><time>2026-04-04T12:26:09Z</time></trkpt><trkpt lat="46.15938764078971" lon="13.005275223786615"><ele>206.0</ele><time>2026-04-04T12:26:10Z</time></trkpt><trkpt lat="46.15929751924704" lon="13.005321442191194"><ele>206.0</ele><time>2026-04-04T12:26:11Z</time></trkpt><trkpt lat="46.15921218389003" lon="13.00536169136959"><ele>206.0</ele><time>2026-04-04T12:26:12Z</time></trkpt><trkpt lat="46.159144236218516" lon="13.00539919579783"><ele>206.0</ele><time>2026-04-04T12:26:13Z</time></trkpt><trkpt lat="46.15904822806109" lon="13.005449917102819"><ele>205.25</ele><time>2026-04-04T12:26:15Z</time></trkpt><trkpt lat="46.15896027168745" lon="13.005478471775984"><ele>204.5</ele><time>2026-04-04T12:26:17Z</time></trkpt><trkpt lat="46.15889275996658" lon="13.005550593196254"><ele>203.75</ele><time>2026-04-04T12:26:19Z</time></trkpt><trkpt lat="46.15894395667321" lon="13.005805987728055"><ele>203.0</ele><time>2026-04-04T12:26:21Z</time></trkpt><trkpt lat="46.15897850254204" lon="13.005950618909669"><ele>204.5</ele><time>2026-04-04T12:26:22Z</time></trkpt><trkpt lat="46.159024247945304" lon="13.006121036516909"><ele>206.0</ele><time>2026-04-04T12:26:23Z</time></trkpt><trkpt lat="46.15908171562827" lon="13.006293361399672"><ele>207.5</ele><time>2026-04-04T12:26:24Z</time></trkpt><trkpt lat="46.15913089684208" lon="13.006433510637512"><ele>209.0</ele><time>2026-04-04T12:26:25Z</time></trkpt><trkpt lat="46.15915899490988" lon="13.00658045753326"><ele>210.0</ele><time>2026-04-04T12:26:26Z</time></trkpt><trkpt lat="46.159193720822095" lon="13.006706503746658"><ele>211.0</ele><time>2026-04-04T12:26:27Z</time></trkpt><trkpt lat="46.15924453949978" lon="13.006839303828178"><ele>211.99999999999997</ele><time>2026-04-04T12:26:28Z</time></trkpt><trkpt lat="46.159269035210286" lon="13.006978307416686"><ele>213.0</ele><time>2026-04-04T12:26:29Z</time></trkpt><trkpt lat="46.15930791095751" lon="13.007118606911812"><ele>214.0</ele><time>2026-04-04T12:26:30Z</time></trkpt><trkpt lat="46.1593448011452" lon="13.007251740576386"><ele>213.99999999999997</ele><time>2026-04-04T12:26:31Z</time></trkpt><trkpt lat="46.15938206025698" lon="13.007386205799941"><ele>214.0</ele><time>2026-04-04T12:26:32Z</time></trkpt><trkpt lat="46.15941796162928" lon="13.00751577100356"><ele>214.0</ele><time>2026-04-04T12:26:33Z</time></trkpt><trkpt lat="46.15946394632851" lon="13.007619150996678"><ele>214.0</ele><time>2026-04-04T12:26:34Z</time></trkpt><trkpt lat="46.15948155536005" lon="13.007724006907234"><ele>213.99999999999997</ele><time>2026-04-04T12:26:35Z</time></trkpt><trkpt lat="46.15950000289839" lon="13.007826296470327"><ele>214.0</ele><time>2026-04-04T12:26:36Z</time></trkpt><trkpt lat="46.15953558724956" lon="13.007905995862988"><ele>216.0</ele><time>2026-04-04T12:26:37Z</time></trkpt><trkpt lat="46.15955755399988" lon="13.008024282798766"><ele>217.99999999999997</ele><time>2026-04-04T12:26:38Z</time></trkpt><trkpt lat="46.15958827741263" lon="13.008137255738024"><ele>219.99999999999997</ele><time>2026-04-04T12:26:39Z</time></trkpt><trkpt lat="46.15962195209751" lon="13.008261080493872"><ele>222.0</ele><time>2026-04-04T12:26:40Z</time></trkpt><trkpt lat="46.15966358171098" lon="13.008413336054195"><ele>224.0</ele><time>2026-04-04T12:26:41Z</time></trkpt><trkpt lat="46.15969898695213" lon="13.008541716284856"><ele>225.16666666666669</ele><time>2026-04-04T12:26:42Z</time></trkpt><trkpt lat="46.159747656298634" lon="13.00865753282892"><ele>226.33333333333334</ele><time>2026-04-04T12:26:43Z</time></trkpt><trkpt lat="46.159772343885344" lon="13.008769944190776"><ele>227.5</ele><time>2026-04-04T12:26:44Z</time></trkpt><trkpt lat="46.15980908752556" lon="13.008872739173901"><ele>228.66666666666669</ele><time>2026-04-04T12:26:45Z</time></trkpt><trkpt lat="46.1598347619026" lon="13.008984092373563"><ele>229.83333333333334</ele><time>2026-04-04T12:26:46Z</time></trkpt><trkpt lat="46.15986431983692" lon="13.009086888080846"><ele>231.0</ele><time>2026-04-04T12:26:47Z</time></trkpt><trkpt lat="46.15987654064333" lon="13.009202977858846"><ele>232.4</ele><time>2026-04-04T12:26:48Z</time></trkpt><trkpt lat="46.15989832618594" lon="13.009314915368973"><ele>233.8</ele><time>2026-04-04T12:26:49Z</time></trkpt><trkpt lat="46.15990174192102" lon="13.009477839022871"><ele>235.20000000000002</ele><time>2026-04-04T12:26:51Z</time></trkpt><trkpt lat="46.15988894520738" lon="13.009652312279616"><ele>236.60000000000002</ele><time>2026-04-04T12:26:53Z</time></trkpt><trkpt lat="46.159895562654384" lon="13.009810001969853"><ele>238.0</ele><time>2026-04-04T12:26:55Z</time></trkpt><trkpt lat="46.15986596067106" lon="13.009909916246226"><ele>237.99999999999997</ele><time>2026-04-04T12:26:57Z</time></trkpt><trkpt lat="46.159798360054204" lon="13.009989717589638"><ele>238.0</ele><time>2026-04-04T12:27:00Z</time></trkpt><trkpt lat="46.159723622517056" lon="13.009979300839895"><ele>238.0</ele><time>2026-04-04T12:27:02Z</time></trkpt><trkpt lat="46.15964596446362" lon="13.010004945095515"><ele>238.0</ele><time>2026-04-04T12:27:06Z</time></trkpt><trkpt lat="46.159577888161635" lon="13.01000177822711"><ele>237.99999999999997</ele><time>2026-04-04T12:27:42Z</time></trkpt><trkpt lat="46.15949618199604" lon="13.009996057935478"><ele>238.0</ele><time>2026-04-04T12:27:44Z</time></trkpt><trkpt lat="46.15938260528074" lon="13.009982396985068"><ele>238.0</ele><time>2026-04-04T12:27:46Z</time></trkpt><trkpt lat="46.15929414157624" lon="13.00997188612305"><ele>238.0</ele><time>2026-04-04T12:27:48Z</time></trkpt><trkpt lat="46.15920316450282" lon="13.009961076644359"><ele>238.0</ele><time>2026-04-04T12:27:50Z</time></trkpt><trkpt lat="46.15910377150159" lon="13.009949267215319"><ele>238.0</ele><time>2026-04-04T12:27:52Z</time></trkpt><trkpt lat="46.158994845122535" lon="13.009936325096682"><ele>238.0</ele><time>2026-04-04T12:27:54Z</time></trkpt><trkpt lat="46.15887815983476" lon="13.00992288916125"><ele>236.4</ele><time>2026-04-04T12:27:56Z</time></trkpt><trkpt lat="46.158770649231215" lon="13.009910911957894"><ele>234.8</ele><time>2026-04-04T12:27:58Z</time></trkpt><trkpt lat="46.15865376827671" lon="13.009898431349958"><ele>233.2</ele><time>2026-04-04T12:28:00Z</time></trkpt><trkpt lat="46.158537450378915" lon="13.009889142075734"><ele>231.6</ele><time>2026-04-04T12:28:02Z</time></trkpt><trkpt lat="46.15846099127573" lon="13.009883233155943"><ele>230.0</ele><time>2026-04-04T12:28:03Z</time></trkpt><trkpt lat="46.1583977443739" lon="13.009879743370508"><ele>230.0</ele><time>2026-04-04T12:28:04Z</time></trkpt><trkpt lat="46.15825875566488" lon="13.009874847589936"><ele>230.0</ele><time>2026-04-04T12:28:06Z</time></trkpt><trkpt lat="46.15817241719299" lon="13.009868892412321"><ele>230.0</ele><time>2026-04-04T12:28:07Z</time></trkpt><trkpt lat="46.15807252583282" lon="13.009875266735389"><ele>230.0</ele><time>2026-04-04T12:28:09Z</time></trkpt><trkpt lat="46.15797536400237" lon="13.009870039256523"><ele>230.0</ele><time>2026-04-04T12:28:11Z</time></trkpt><trkpt lat="46.157912021555205" lon="13.009844045921007"><ele>228.6</ele><time>2026-04-04T12:28:13Z</time></trkpt><trkpt lat="46.157833342229196" lon="13.0100404648534"><ele>227.2</ele><time>2026-04-04T12:28:15Z</time></trkpt><trkpt lat="46.157830048029645" lon="13.010159881134339"><ele>225.8</ele><time>2026-04-04T12:28:16Z</time></trkpt><trkpt lat="46.15781303095063" lon="13.010258401279339"><ele>224.4</ele><time>2026-04-04T12:28:17Z</time></trkpt><trkpt lat="46.157794710610474" lon="13.010358381804275"><ele>223.0</ele><time>2026-04-04T12:28:18Z</time></trkpt><trkpt lat="46.15778090794829" lon="13.010459094633962"><ele>223.0</ele><time>2026-04-04T12:28:19Z</time></trkpt><trkpt lat="46.157763531476036" lon="13.010645451484647"><ele>223.0</ele><time>2026-04-04T12:28:21Z</time></trkpt><trkpt lat="46.157719360613854" lon="13.010804857523592"><ele>223.0</ele><time>2026-04-04T12:28:23Z</time></trkpt><trkpt lat="46.15764913195369" lon="13.010869521785091"><ele>223.0</ele><time>2026-04-04T12:28:24Z</time></trkpt><trkpt lat="46.157582126612645" lon="13.010914093363358"><ele>223.0</ele><time>2026-04-04T12:28:25Z</time></trkpt><trkpt lat="46.15751664026268" lon="13.0109501669925"><ele>222.49999999999997</ele><time>2026-04-04T12:28:26Z</time></trkpt><trkpt lat="46.157402970788546" lon="13.011007101686364"><ele>222.0</ele><time>2026-04-04T12:28:28Z</time></trkpt><trkpt lat="46.15734219808205" lon="13.011046934377811"><ele>221.5</ele><time>2026-04-04T12:28:29Z</time></trkpt><trkpt lat="46.15727616117208" lon="13.011089720736177"><ele>221.0</ele><time>2026-04-04T12:28:30Z</time></trkpt><trkpt lat="46.157211175476775" lon="13.011123852310622"><ele>220.49999999999997</ele><time>2026-04-04T12:28:31Z</time></trkpt><trkpt lat="46.157133264597185" lon="13.011130373771332"><ele>220.0</ele><time>2026-04-04T12:28:32Z</time></trkpt><trkpt lat="46.15706141824438" lon="13.011107816693917"><ele>218.99999999999997</ele><time>2026-04-04T12:28:33Z</time></trkpt><trkpt lat="46.15698855559917" lon="13.01106963781615"><ele>218.0</ele><time>2026-04-04T12:28:34Z</time></trkpt><trkpt lat="46.15691556447141" lon="13.011025298264306"><ele>217.0</ele><time>2026-04-04T12:28:35Z</time></trkpt><trkpt lat="46.15684092859157" lon="13.010967223445856"><ele>216.0</ele><time>2026-04-04T12:28:36Z</time></trkpt><trkpt lat="46.15675946639774" lon="13.010905009422578"><ele>214.99999999999997</ele><time>2026-04-04T12:28:37Z</time></trkpt><trkpt lat="46.15668392199358" lon="13.010852027006024"><ele>214.0</ele><time>2026-04-04T12:28:38Z</time></trkpt><trkpt lat="46.15659531734046" lon="13.010812123450798"><ele>212.66666666666666</ele><time>2026-04-04T12:28:39.001Z</time></trkpt><trkpt lat="46.15652317544399" lon="13.01075595802068"><ele>211.33333333333331</ele><time>2026-04-04T12:28:40.001Z</time></trkpt><trkpt lat="46.15645776859175" lon="13.010710735189551"><ele>210.0</ele><time>2026-04-04T12:28:41.001Z</time></trkpt><trkpt lat="46.15639782403606" lon="13.010666404210326"><ele>208.66666666666669</ele><time>2026-04-04T12:28:42.001Z</time></trkpt><trkpt lat="46.15629426912566" lon="13.010593934731464"><ele>207.33333333333334</ele><time>2026-04-04T12:28:44.001Z</time></trkpt><trkpt lat="46.15620601937624" lon="13.010540535286509"><ele>206.0</ele><time>2026-04-04T12:28:46.001Z</time></trkpt><trkpt lat="46.15613819225907" lon="13.010521685766106"><ele>206.00000000000003</ele><time>2026-04-04T12:28:49.001Z</time></trkpt><trkpt lat="46.156067835294444" lon="13.010614766300861"><ele>206.0</ele><time>2026-04-04T12:28:52.001Z</time></trkpt><trkpt lat="46.15603510805679" lon="13.010724301394989"><ele>206.0</ele><time>2026-04-04T12:28:54.001Z</time></trkpt><trkpt lat="46.15601067358379" lon="13.01082435549485"><ele>206.0</ele><time>2026-04-04T12:28:56.001Z</time></trkpt><trkpt lat="46.155900931921295" lon="13.010815710593395"><ele>206.00000000000003</ele><time>2026-04-04T12:28:57.001Z</time></trkpt><trkpt lat="46.155829226745404" lon="13.010814877448006"><ele>206.0</ele><time>2026-04-04T12:28:58.001Z</time></trkpt><trkpt lat="46.15574134371402" lon="13.010768740719937"><ele>203.8</ele><time>2026-04-04T12:28:59.001Z</time></trkpt><trkpt lat="46.15563623205585" lon="13.010718040782553"><ele>201.60000000000002</ele><time>2026-04-04T12:29:00.001Z</time></trkpt><trkpt lat="46.155526342272346" lon="13.010688361008624"><ele>199.4</ele><time>2026-04-04T12:29:01.001Z</time></trkpt><trkpt lat="46.15543407941326" lon="13.010648496014687"><ele>197.2</ele><time>2026-04-04T12:29:02.001Z</time></trkpt><trkpt lat="46.15535420942741" lon="13.010595914213646"><ele>195.0</ele><time>2026-04-04T12:29:03.001Z</time></trkpt><trkpt lat="46.15528475188238" lon="13.010536841229465"><ele>195.0</ele><time>2026-04-04T12:29:04.001Z</time></trkpt><trkpt lat="46.15521285044525" lon="13.010454511535325"><ele>195.0</ele><time>2026-04-04T12:29:05.001Z</time></trkpt><trkpt lat="46.15515341377171" lon="13.010365317000256"><ele>195.0</ele><time>2026-04-04T12:29:06.001Z</time></trkpt><trkpt lat="46.15511113607052" lon="13.01028024654494"><ele>195.0</ele><time>2026-04-04T12:29:07.001Z</time></trkpt><trkpt lat="46.155061039458616" lon="13.010219491401195"><ele>195.0</ele><time>2026-04-04T12:29:08.001Z</time></trkpt><trkpt lat="46.1550115164226" lon="13.010115380351403"><ele>195.0</ele><time>2026-04-04T12:29:10.001Z</time></trkpt><trkpt lat="46.15495956440385" lon="13.010050607644521"><ele>195.0</ele><time>2026-04-04T12:30:22Z</time></trkpt><trkpt lat="46.155022770112346" lon="13.010151836789996"><ele>195.0</ele><time>2026-04-04T12:30:28Z</time></trkpt><trkpt lat="46.15506879903584" lon="13.01021722242022"><ele>195.0</ele><time>2026-04-04T12:30:29.001Z</time></trkpt><trkpt lat="46.155174674001636" lon="13.010384549443174"><ele>195.0</ele><time>2026-04-04T12:30:30.001Z</time></trkpt><trkpt lat="46.15522409312611" lon="13.01051240556829"><ele>195.0</ele><time>2026-04-04T12:30:31.001Z</time></trkpt><trkpt lat="46.15531318369585" lon="13.010608987220198"><ele>195.0</ele><time>2026-04-04T12:30:32.001Z</time></trkpt><trkpt lat="46.155434845556144" lon="13.010679314010272"><ele>195.0</ele><time>2026-04-04T12:30:33.001Z</time></trkpt><trkpt lat="46.15555451656824" lon="13.010727181862437"><ele>195.0</ele><time>2026-04-04T12:30:34.001Z</time></trkpt><trkpt lat="46.15567477841885" lon="13.010776496587662"><ele>195.0</ele><time>2026-04-04T12:30:35.001Z</time></trkpt><trkpt lat="46.15578464297504" lon="13.010822885628132"><ele>196.0</ele><time>2026-04-04T12:30:36.001Z</time></trkpt><trkpt lat="46.15587419185497" lon="13.010859279779348"><ele>197.0</ele><time>2026-04-04T12:30:37.001Z</time></trkpt><trkpt lat="46.15593985052798" lon="13.010869563408074"><ele>198.0</ele><time>2026-04-04T12:30:38.001Z</time></trkpt><trkpt lat="46.15600794394348" lon="13.010907742613883"><ele>199.0</ele><time>2026-04-04T12:30:40.001Z</time></trkpt><trkpt lat="46.15601078262128" lon="13.011136885717839"><ele>200.0</ele><time>2026-04-04T12:30:42.001Z</time></trkpt><trkpt lat="46.15601595608709" lon="13.011291587813288"><ele>200.0</ele><time>2026-04-04T12:30:43.001Z</time></trkpt><trkpt lat="46.15599744889864" lon="13.011465517483956"><ele>200.0</ele><time>2026-04-04T12:30:44.001Z</time></trkpt><trkpt lat="46.15598939970925" lon="13.01165133245834"><ele>200.0</ele><time>2026-04-04T12:30:45.001Z</time></trkpt><trkpt lat="46.15598500733396" lon="13.011813904623356"><ele>200.0</ele><time>2026-04-04T12:30:46.001Z</time></trkpt><trkpt lat="46.15599794865069" lon="13.011970394662038"><ele>199.8</ele><time>2026-04-04T12:30:47.001Z</time></trkpt><trkpt lat="46.15602221464995" lon="13.01212098043319"><ele>199.6</ele><time>2026-04-04T12:30:48.001Z</time></trkpt><trkpt lat="46.15607063046451" lon="13.012279402086579"><ele>199.39999999999998</ele><time>2026-04-04T12:30:49.001Z</time></trkpt><trkpt lat="46.15609253911509" lon="13.012432973979328"><ele>199.2</ele><time>2026-04-04T12:30:50.001Z</time></trkpt><trkpt lat="46.15612552882769" lon="13.012567852005894"><ele>199.0</ele><time>2026-04-04T12:30:51.001Z</time></trkpt><trkpt lat="46.156112820305204" lon="13.0127069323077"><ele>198.2</ele><time>2026-04-04T12:30:52.001Z</time></trkpt><trkpt lat="46.156100732433785" lon="13.012846064449642"><ele>197.39999999999998</ele><time>2026-04-04T12:30:53.001Z</time></trkpt><trkpt lat="46.15609384754843" lon="13.012997683355534"><ele>196.6</ele><time>2026-04-04T12:30:54.001Z</time></trkpt><trkpt lat="46.1560932348072" lon="13.013147278043098"><ele>195.8</ele><time>2026-04-04T12:30:55.001Z</time></trkpt><trkpt lat="46.15609035833185" lon="13.013285431190516"><ele>195.0</ele><time>2026-04-04T12:30:56.001Z</time></trkpt><trkpt lat="46.156102274564475" lon="13.01341907413626"><ele>193.66666666666666</ele><time>2026-04-04T12:30:57.001Z</time></trkpt><trkpt lat="46.15610329618686" lon="13.013540771611591"><ele>192.33333333333334</ele><time>2026-04-04T12:30:58.001Z</time></trkpt><trkpt lat="46.156104444195435" lon="13.013645948687868"><ele>191.0</ele><time>2026-04-04T12:30:59.001Z</time></trkpt><trkpt lat="46.1561033475966" lon="13.01374549108787"><ele>189.66666666666669</ele><time>2026-04-04T12:31:00.001Z</time></trkpt><trkpt lat="46.15609908275027" lon="13.013851589731996"><ele>188.33333333333334</ele><time>2026-04-04T12:31:01.001Z</time></trkpt><trkpt lat="46.15609508115061" lon="13.013972603364595"><ele>187.0</ele><time>2026-04-04T12:31:02.001Z</time></trkpt><trkpt lat="46.1560943990442" lon="13.014107864119035"><ele>187.2</ele><time>2026-04-04T12:31:03.001Z</time></trkpt><trkpt lat="46.15608586497746" lon="13.014253011521742"><ele>187.39999999999998</ele><time>2026-04-04T12:31:04.001Z</time></trkpt><trkpt lat="46.15608001342826" lon="13.014408416496977"><ele>187.60000000000002</ele><time>2026-04-04T12:31:05.001Z</time></trkpt><trkpt lat="46.15607241122738" lon="13.014562018433157"><ele>187.8</ele><time>2026-04-04T12:31:06.001Z</time></trkpt><trkpt lat="46.15605824957458" lon="13.014721756787507"><ele>188.0</ele><time>2026-04-04T12:31:07.001Z</time></trkpt><trkpt lat="46.15603845679182" lon="13.014883976906662"><ele>188.75</ele><time>2026-04-04T12:31:08.001Z</time></trkpt><trkpt lat="46.15602125003407" lon="13.015047269894511"><ele>189.5</ele><time>2026-04-04T12:31:09.001Z</time></trkpt><trkpt lat="46.156027011400596" lon="13.015217769334722"><ele>190.25</ele><time>2026-04-04T12:31:10.001Z</time></trkpt><trkpt lat="46.15606162859567" lon="13.015398487731016"><ele>191.0</ele><time>2026-04-04T12:31:11.001Z</time></trkpt><trkpt lat="46.15610271492143" lon="13.015578212648863"><ele>191.0</ele><time>2026-04-04T12:31:12.001Z</time></trkpt><trkpt lat="46.156140318252426" lon="13.01576366917834"><ele>191.0</ele><time>2026-04-04T12:31:13.001Z</time></trkpt><trkpt lat="46.15617764609208" lon="13.015949270459357"><ele>191.0</ele><time>2026-04-04T12:31:14.001Z</time></trkpt><trkpt lat="46.15620833364191" lon="13.01613533917035"><ele>191.0</ele><time>2026-04-04T12:31:15.001Z</time></trkpt><trkpt lat="46.156234159746866" lon="13.016323514201593"><ele>191.0</ele><time>2026-04-04T12:31:16.001Z</time></trkpt><trkpt lat="46.156258969977074" lon="13.016505868343211"><ele>191.0</ele><time>2026-04-04T12:31:17.001Z</time></trkpt><trkpt lat="46.15628091716289" lon="13.01667803748747"><ele>191.0</ele><time>2026-04-04T12:31:18.001Z</time></trkpt><trkpt lat="46.156302795222786" lon="13.016841979412687"><ele>191.0</ele><time>2026-04-04T12:31:19.001Z</time></trkpt><trkpt lat="46.156319797650326" lon="13.016994118074486"><ele>189.60000000000002</ele><time>2026-04-04T12:31:20.001Z</time></trkpt><trkpt lat="46.15634571327394" lon="13.017137446284911"><ele>188.2</ele><time>2026-04-04T12:31:21.001Z</time></trkpt><trkpt lat="46.15638237638889" lon="13.017268908868468"><ele>186.8</ele><time>2026-04-04T12:31:22.001Z</time></trkpt><trkpt lat="46.15644384725287" lon="13.017386225006646"><ele>185.39999999999998</ele><time>2026-04-04T12:31:23.001Z</time></trkpt><trkpt lat="46.156536976212266" lon="13.017513388292754"><ele>184.0</ele><time>2026-04-04T12:31:24.001Z</time></trkpt><trkpt lat="46.15664144886208" lon="13.017636402458475"><ele>181.75</ele><time>2026-04-04T12:31:25.001Z</time></trkpt><trkpt lat="46.156741624662175" lon="13.01774414457245"><ele>179.5</ele><time>2026-04-04T12:31:26.001Z</time></trkpt><trkpt lat="46.15683779586849" lon="13.01784675400955"><ele>177.25</ele><time>2026-04-04T12:31:27.001Z</time></trkpt><trkpt lat="46.15693051801108" lon="13.017954759395773"><ele>175.0</ele><time>2026-04-04T12:31:28.001Z</time></trkpt><trkpt lat="46.157011513313186" lon="13.018073827019222"><ele>175.0</ele><time>2026-04-04T12:31:29.001Z</time></trkpt><trkpt lat="46.157081309675085" lon="13.0182006639916"><ele>175.0</ele><time>2026-04-04T12:31:30.001Z</time></trkpt><trkpt lat="46.15713809443393" lon="13.018328984439716"><ele>175.0</ele><time>2026-04-04T12:31:31.001Z</time></trkpt><trkpt lat="46.157157627777394" lon="13.018467604721238"><ele>175.0</ele><time>2026-04-04T12:31:32.001Z</time></trkpt><trkpt lat="46.15716708698325" lon="13.018600832261786"><ele>175.0</ele><time>2026-04-04T12:31:33.001Z</time></trkpt><trkpt lat="46.15717650924901" lon="13.018767911348911"><ele>173.6</ele><time>2026-04-04T12:31:34.001Z</time></trkpt><trkpt lat="46.157178174006766" lon="13.018949212116022"><ele>172.2</ele><time>2026-04-04T12:31:35.001Z</time></trkpt><trkpt lat="46.15717256125432" lon="13.019109452411508"><ele>170.8</ele><time>2026-04-04T12:31:36.001Z</time></trkpt><trkpt lat="46.15716107731155" lon="13.019259361694878"><ele>169.4</ele><time>2026-04-04T12:31:37.001Z</time></trkpt><trkpt lat="46.1571620916213" lon="13.019383345662717"><ele>168.0</ele><time>2026-04-04T12:31:38.001Z</time></trkpt><trkpt lat="46.157145374467035" lon="13.019474350006735"><ele>168.25</ele><time>2026-04-04T12:31:39.001Z</time></trkpt><trkpt lat="46.157122264905276" lon="13.019652191865676"><ele>168.5</ele><time>2026-04-04T12:31:41.001Z</time></trkpt><trkpt lat="46.15708147645586" lon="13.01981443688453"><ele>168.75</ele><time>2026-04-04T12:31:43.001Z</time></trkpt><trkpt lat="46.15717149832414" lon="13.02000946541713"><ele>169.0</ele><time>2026-04-04T12:31:45.001Z</time></trkpt><trkpt lat="46.157258716888904" lon="13.020074122648772"><ele>167.5</ele><time>2026-04-04T12:31:46.001Z</time></trkpt><trkpt lat="46.15738271356152" lon="13.020145155931187"><ele>166.0</ele><time>2026-04-04T12:31:47.001Z</time></trkpt><trkpt lat="46.15750946737921" lon="13.020255881914817"><ele>164.5</ele><time>2026-04-04T12:31:48Z</time></trkpt><trkpt lat="46.15764417092501" lon="13.020363480837702"><ele>163.0</ele><time>2026-04-04T12:31:49Z</time></trkpt><trkpt lat="46.15780018028037" lon="13.020483884449582"><ele>163.0</ele><time>2026-04-04T12:31:50Z</time></trkpt><trkpt lat="46.15796739424865" lon="13.020608019289492"><ele>163.0</ele><time>2026-04-04T12:31:51Z</time></trkpt><trkpt lat="46.15812998297435" lon="13.020732857747353"><ele>163.0</ele><time>2026-04-04T12:31:52Z</time></trkpt><trkpt lat="46.15828623529028" lon="13.02085214572415"><ele>165.66666666666669</ele><time>2026-04-04T12:31:53Z</time></trkpt><trkpt lat="46.158431569346995" lon="13.02095904652129"><ele>168.33333333333334</ele><time>2026-04-04T12:31:54Z</time></trkpt><trkpt lat="46.15856737582877" lon="13.021056745298996"><ele>171.0</ele><time>2026-04-04T12:31:55Z</time></trkpt><trkpt lat="46.15870955935151" lon="13.021151236994573"><ele>171.0</ele><time>2026-04-04T12:31:56Z</time></trkpt><trkpt lat="46.15885649495554" lon="13.021246837915657"><ele>171.0</ele><time>2026-04-04T12:31:57Z</time></trkpt><trkpt lat="46.15900274378284" lon="13.02134561981646"><ele>171.0</ele><time>2026-04-04T12:31:58Z</time></trkpt><trkpt lat="46.159146358092826" lon="13.021448758894556"><ele>172.0</ele><time>2026-04-04T12:31:59Z</time></trkpt><trkpt lat="46.15929071914452" lon="13.021551661623702"><ele>173.0</ele><time>2026-04-04T12:32:00Z</time></trkpt><trkpt lat="46.15943594599719" lon="13.021657844566477"><ele>174.0</ele><time>2026-04-04T12:32:01Z</time></trkpt><trkpt lat="46.159582269777005" lon="13.021764540317749"><ele>174.0</ele><time>2026-04-04T12:32:02Z</time></trkpt><trkpt lat="46.159728479326475" lon="13.02187116626969"><ele>174.0</ele><time>2026-04-04T12:32:03Z</time></trkpt><trkpt lat="46.15987360410253" lon="13.021976595806253"><ele>174.0</ele><time>2026-04-04T12:32:04Z</time></trkpt><trkpt lat="46.160014879797345" lon="13.022078315947459"><ele>175.0</ele><time>2026-04-04T12:32:05Z</time></trkpt><trkpt lat="46.16016435610142" lon="13.022194552079798"><ele>176.0</ele><time>2026-04-04T12:32:06Z</time></trkpt><trkpt lat="46.160317685493034" lon="13.022327963776112"><ele>177.0</ele><time>2026-04-04T12:32:07Z</time></trkpt><trkpt lat="46.160470787880186" lon="13.022495547981372"><ele>177.0</ele><time>2026-04-04T12:32:08Z</time></trkpt><trkpt lat="46.160613612507696" lon="13.02269727877979"><ele>177.0</ele><time>2026-04-04T12:32:09Z</time></trkpt><trkpt lat="46.16075356652453" lon="13.022914793995197"><ele>177.0</ele><time>2026-04-04T12:32:10Z</time></trkpt><trkpt lat="46.16085821041667" lon="13.023160170682914"><ele>176.0</ele><time>2026-04-04T12:32:11Z</time></trkpt><trkpt lat="46.16094502248464" lon="13.023385033239125"><ele>175.0</ele><time>2026-04-04T12:32:12Z</time></trkpt><trkpt lat="46.16100985720021" lon="13.02360454960855"><ele>174.0</ele><time>2026-04-04T12:32:13Z</time></trkpt><trkpt lat="46.1610688814945" lon="13.023821528723403"><ele>174.0</ele><time>2026-04-04T12:32:14Z</time></trkpt><trkpt lat="46.16109556283856" lon="13.02405852835771"><ele>174.0</ele><time>2026-04-04T12:32:15Z</time></trkpt><trkpt lat="46.16112520157606" lon="13.024271757673427"><ele>174.0</ele><time>2026-04-04T12:32:16Z</time></trkpt><trkpt lat="46.16114455361306" lon="13.0244878698582"><ele>174.0</ele><time>2026-04-04T12:32:17Z</time></trkpt><trkpt lat="46.16119242122685" lon="13.024704529700921"><ele>174.0</ele><time>2026-04-04T12:32:18Z</time></trkpt><trkpt lat="46.161268013466426" lon="13.024919903356267"><ele>174.0</ele><time>2026-04-04T12:32:19Z</time></trkpt><trkpt lat="46.161340207658675" lon="13.025140202743"><ele>173.66666666666666</ele><time>2026-04-04T12:32:20Z</time></trkpt><trkpt lat="46.1614127419797" lon="13.02534904240757"><ele>173.33333333333331</ele><time>2026-04-04T12:32:21Z</time></trkpt><trkpt lat="46.16148846155327" lon="13.025547151959437"><ele>173.0</ele><time>2026-04-04T12:32:22Z</time></trkpt><trkpt lat="46.1615454585741" lon="13.025752163251493"><ele>169.66666666666666</ele><time>2026-04-04T12:32:23Z</time></trkpt><trkpt lat="46.16163012402413" lon="13.025943436321759"><ele>166.33333333333334</ele><time>2026-04-04T12:32:24Z</time></trkpt><trkpt lat="46.161751481596596" lon="13.026127515398894"><ele>163.0</ele><time>2026-04-04T12:32:25Z</time></trkpt><trkpt lat="46.16190041850606" lon="13.026312895116224"><ele>163.0</ele><time>2026-04-04T12:32:26Z</time></trkpt><trkpt lat="46.1620789866186" lon="13.026505691894267"><ele>163.0</ele><time>2026-04-04T12:32:27Z</time></trkpt><trkpt lat="46.16224194681321" lon="13.026725873738613"><ele>163.0</ele><time>2026-04-04T12:32:28Z</time></trkpt><trkpt lat="46.16241368342366" lon="13.026951294660659"><ele>162.66666666666669</ele><time>2026-04-04T12:32:29Z</time></trkpt><trkpt lat="46.162586117737995" lon="13.027167403337941"><ele>162.33333333333334</ele><time>2026-04-04T12:32:30Z</time></trkpt><trkpt lat="46.16274293686991" lon="13.027364001181565"><ele>162.0</ele><time>2026-04-04T12:32:31Z</time></trkpt><trkpt lat="46.16289576027388" lon="13.027548951834133"><ele>162.0</ele><time>2026-04-04T12:32:32Z</time></trkpt><trkpt lat="46.16303790812164" lon="13.027723368046988"><ele>162.0</ele><time>2026-04-04T12:32:33.001Z</time></trkpt><trkpt lat="46.16317123524038" lon="13.02788587791197"><ele>162.0</ele><time>2026-04-04T12:32:34.001Z</time></trkpt><trkpt lat="46.163296914504734" lon="13.028040340046484"><ele>162.0</ele><time>2026-04-04T12:32:35.001Z</time></trkpt><trkpt lat="46.16342584224108" lon="13.028194034124043"><ele>162.0</ele><time>2026-04-04T12:32:36.001Z</time></trkpt><trkpt lat="46.16356152688592" lon="13.028365567965158"><ele>162.0</ele><time>2026-04-04T12:32:37.001Z</time></trkpt><trkpt lat="46.16370352865018" lon="13.028544794081819"><ele>163.66666666666666</ele><time>2026-04-04T12:32:38.001Z</time></trkpt><trkpt lat="46.16384144923433" lon="13.02872873923766"><ele>165.33333333333331</ele><time>2026-04-04T12:32:39.001Z</time></trkpt><trkpt lat="46.16399203011614" lon="13.028882858418287"><ele>167.0</ele><time>2026-04-04T12:32:40.001Z</time></trkpt><trkpt lat="46.16412913155161" lon="13.02905680640046"><ele>164.0</ele><time>2026-04-04T12:32:41.001Z</time></trkpt><trkpt lat="46.16426321176765" lon="13.0292264556408"><ele>161.0</ele><time>2026-04-04T12:32:42.001Z</time></trkpt><trkpt lat="46.16439497495623" lon="13.029387832883318"><ele>158.0</ele><time>2026-04-04T12:32:43.001Z</time></trkpt><trkpt lat="46.16452728685289" lon="13.029550524396265"><ele>158.0</ele><time>2026-04-04T12:32:44.001Z</time></trkpt><trkpt lat="46.16466144251039" lon="13.02971513648918"><ele>158.0</ele><time>2026-04-04T12:32:45.001Z</time></trkpt><trkpt lat="46.16479367871242" lon="13.029882471204573"><ele>158.0</ele><time>2026-04-04T12:32:46.001Z</time></trkpt><trkpt lat="46.16492615912026" lon="13.030048654815056"><ele>157.66666666666666</ele><time>2026-04-04T12:32:47.001Z</time></trkpt><trkpt lat="46.165056045360366" lon="13.030219343275267"><ele>157.33333333333334</ele><time>2026-04-04T12:32:48.001Z</time></trkpt><trkpt lat="46.16519899674223" lon="13.030383154824488"><ele>157.0</ele><time>2026-04-04T12:32:49.001Z</time></trkpt><trkpt lat="46.16533972878802" lon="13.030548147917406"><ele>157.0</ele><time>2026-04-04T12:32:50.001Z</time></trkpt><trkpt lat="46.16547797173394" lon="13.030718653685524"><ele>157.0</ele><time>2026-04-04T12:32:51.001Z</time></trkpt><trkpt lat="46.16561940570104" lon="13.030893656431868"><ele>157.0</ele><time>2026-04-04T12:32:52.001Z</time></trkpt><trkpt lat="46.16576419570814" lon="13.031070644339387"><ele>156.66666666666669</ele><time>2026-04-04T12:32:53.001Z</time></trkpt><trkpt lat="46.16591660453667" lon="13.031252650312718"><ele>156.33333333333334</ele><time>2026-04-04T12:32:54.001Z</time></trkpt><trkpt lat="46.16606650657016" lon="13.031435721020655"><ele>156.0</ele><time>2026-04-04T12:32:55.001Z</time></trkpt><trkpt lat="46.16622148031344" lon="13.03162091380153"><ele>155.66666666666666</ele><time>2026-04-04T12:32:56.001Z</time></trkpt><trkpt lat="46.166357366817614" lon="13.031812830832594"><ele>155.33333333333331</ele><time>2026-04-04T12:32:57.001Z</time></trkpt><trkpt lat="46.16650063368964" lon="13.031986510131567"><ele>155.0</ele><time>2026-04-04T12:32:58.001Z</time></trkpt><trkpt lat="46.16664281369612" lon="13.03215685703256"><ele>155.66666666666666</ele><time>2026-04-04T12:32:59.001Z</time></trkpt><trkpt lat="46.16677745035117" lon="13.032317319203305"><ele>156.33333333333334</ele><time>2026-04-04T12:33:00.001Z</time></trkpt><trkpt lat="46.16691902103713" lon="13.032485798183826"><ele>157.0</ele><time>2026-04-04T12:33:01.001Z</time></trkpt><trkpt lat="46.167053303279786" lon="13.032645403751495"><ele>157.0</ele><time>2026-04-04T12:33:02.001Z</time></trkpt><trkpt lat="46.167183711513765" lon="13.032800406430285"><ele>157.0</ele><time>2026-04-04T12:33:03.001Z</time></trkpt><trkpt lat="46.167323491735694" lon="13.032939726920697"><ele>157.0</ele><time>2026-04-04T12:33:04.001Z</time></trkpt><trkpt lat="46.16745557427825" lon="13.033092064116206"><ele>157.66666666666669</ele><time>2026-04-04T12:33:05.001Z</time></trkpt><trkpt lat="46.16758847366973" lon="13.033251981968855"><ele>158.33333333333334</ele><time>2026-04-04T12:33:06.001Z</time></trkpt><trkpt lat="46.167708470929" lon="13.033407999285194"><ele>159.0</ele><time>2026-04-04T12:33:07.001Z</time></trkpt><trkpt lat="46.167828084817735" lon="13.033564146626752"><ele>159.66666666666666</ele><time>2026-04-04T12:33:08.001Z</time></trkpt><trkpt lat="46.16795571358758" lon="13.033733697549144"><ele>160.33333333333331</ele><time>2026-04-04T12:33:09.001Z</time></trkpt><trkpt lat="46.16809981356972" lon="13.033885033302173"><ele>161.0</ele><time>2026-04-04T12:33:10.001Z</time></trkpt><trkpt lat="46.168250490312374" lon="13.03404017902325"><ele>159.66666666666666</ele><time>2026-04-04T12:33:11.001Z</time></trkpt><trkpt lat="46.168404193307104" lon="13.034197703610657"><ele>158.33333333333334</ele><time>2026-04-04T12:33:12.001Z</time></trkpt><trkpt lat="46.168558486745574" lon="13.034355833189101"><ele>157.0</ele><time>2026-04-04T12:33:13.001Z</time></trkpt><trkpt lat="46.16871682673193" lon="13.034518111193748"><ele>157.0</ele><time>2026-04-04T12:33:14.001Z</time></trkpt><trkpt lat="46.168876064281015" lon="13.034683607540597"><ele>157.0</ele><time>2026-04-04T12:33:15.001Z</time></trkpt><trkpt lat="46.169029899088315" lon="13.034843071504028"><ele>157.0</ele><time>2026-04-04T12:33:16.001Z</time></trkpt><trkpt lat="46.16917492783902" lon="13.034993407256344"><ele>157.33333333333334</ele><time>2026-04-04T12:33:17.001Z</time></trkpt><trkpt lat="46.16930900484401" lon="13.035132390596303"><ele>157.66666666666666</ele><time>2026-04-04T12:33:18.001Z</time></trkpt><trkpt lat="46.16942760474894" lon="13.03525678819114"><ele>158.0</ele><time>2026-04-04T12:33:19.001Z</time></trkpt><trkpt lat="46.169543537165104" lon="13.03537885785119"><ele>158.0</ele><time>2026-04-04T12:33:20.001Z</time></trkpt><trkpt lat="46.16964734286213" lon="13.035480465593773"><ele>158.0</ele><time>2026-04-04T12:33:21.001Z</time></trkpt><trkpt lat="46.169751151716994" lon="13.03559703629849"><ele>158.0</ele><time>2026-04-04T12:33:22.001Z</time></trkpt><trkpt lat="46.16983980898579" lon="13.035770058877915"><ele>158.0</ele><time>2026-04-04T12:33:23.001Z</time></trkpt><trkpt lat="46.16995607123063" lon="13.03592871949614"><ele>159.66666666666666</ele><time>2026-04-04T12:33:24.001Z</time></trkpt><trkpt lat="46.17005005647992" lon="13.036108699494891"><ele>161.33333333333334</ele><time>2026-04-04T12:33:25.001Z</time></trkpt><trkpt lat="46.170147470507686" lon="13.036288833424043"><ele>163.0</ele><time>2026-04-04T12:33:26.001Z</time></trkpt><trkpt lat="46.17023439298212" lon="13.036478254014435"><ele>162.0</ele><time>2026-04-04T12:33:27.001Z</time></trkpt><trkpt lat="46.170329388371805" lon="13.03667133058845"><ele>161.0</ele><time>2026-04-04T12:33:28.001Z</time></trkpt><trkpt lat="46.17042484124257" lon="13.036880842384708"><ele>160.0</ele><time>2026-04-04T12:33:29.001Z</time></trkpt><trkpt lat="46.17052752352207" lon="13.037100626286572"><ele>160.0</ele><time>2026-04-04T12:33:30.001Z</time></trkpt><trkpt lat="46.17063033733491" lon="13.037328291653816"><ele>160.0</ele><time>2026-04-04T12:33:31.001Z</time></trkpt><trkpt lat="46.170734842967825" lon="13.037558572466361"><ele>160.0</ele><time>2026-04-04T12:33:32.001Z</time></trkpt><trkpt lat="46.170838686057905" lon="13.037782575142632"><ele>160.0</ele><time>2026-04-04T12:33:33.001Z</time></trkpt><trkpt lat="46.17092541902376" lon="13.038021968581269"><ele>160.0</ele><time>2026-04-04T12:33:34.001Z</time></trkpt><trkpt lat="46.17102634629492" lon="13.038243218171573"><ele>160.0</ele><time>2026-04-04T12:33:35.001Z</time></trkpt><trkpt lat="46.171136273402354" lon="13.038449340872184"><ele>159.66666666666669</ele><time>2026-04-04T12:33:36.001Z</time></trkpt><trkpt lat="46.17125931260917" lon="13.03864404673941"><ele>159.33333333333334</ele><time>2026-04-04T12:33:37.001Z</time></trkpt><trkpt lat="46.17139642882282" lon="13.038844196146734"><ele>159.0</ele><time>2026-04-04T12:33:38.001Z</time></trkpt><trkpt lat="46.17153613008026" lon="13.039034318606818"><ele>159.0</ele><time>2026-04-04T12:33:39.001Z</time></trkpt><trkpt lat="46.17167132061389" lon="13.03919804816926"><ele>159.0</ele><time>2026-04-04T12:33:40.001Z</time></trkpt><trkpt lat="46.17177652798503" lon="13.03934647947882"><ele>159.0</ele><time>2026-04-04T12:33:41.001Z</time></trkpt><trkpt lat="46.17186648263038" lon="13.039501113123565"><ele>159.0</ele><time>2026-04-04T12:33:42.001Z</time></trkpt><trkpt lat="46.17196598047262" lon="13.039642668197466"><ele>159.0</ele><time>2026-04-04T12:33:43.001Z</time></trkpt><trkpt lat="46.1720594712084" lon="13.039775677317266"><ele>159.0</ele><time>2026-04-04T12:33:44.001Z</time></trkpt><trkpt lat="46.17214510721052" lon="13.039897512780898"><ele>159.0</ele><time>2026-04-04T12:33:45.001Z</time></trkpt><trkpt lat="46.172227045162785" lon="13.040012669506746"><ele>159.0</ele><time>2026-04-04T12:33:46.001Z</time></trkpt><trkpt lat="46.17230130048635" lon="13.040117516544965"><ele>159.0</ele><time>2026-04-04T12:33:47.001Z</time></trkpt><trkpt lat="46.172374890890204" lon="13.040197319308279"><ele>159.0</ele><time>2026-04-04T12:33:48.001Z</time></trkpt><trkpt lat="46.17242525240657" lon="13.040280140922345"><ele>159.0</ele><time>2026-04-04T12:33:49.001Z</time></trkpt><trkpt lat="46.17248486407221" lon="13.040437911482844"><ele>159.0</ele><time>2026-04-04T12:33:51.001Z</time></trkpt><trkpt lat="46.17251650150586" lon="13.040520457985126"><ele>158.75</ele><time>2026-04-04T12:33:52.001Z</time></trkpt><trkpt lat="46.17246076786411" lon="13.040669003151551"><ele>158.5</ele><time>2026-04-04T12:33:53.001Z</time></trkpt><trkpt lat="46.1724308420796" lon="13.040784960532628"><ele>158.25</ele><time>2026-04-04T12:33:54Z</time></trkpt><trkpt lat="46.172390410592264" lon="13.040942420648873"><ele>158.0</ele><time>2026-04-04T12:33:55Z</time></trkpt><trkpt lat="46.172341381414164" lon="13.041128670021468"><ele>158.0</ele><time>2026-04-04T12:33:56Z</time></trkpt><trkpt lat="46.1722908505743" lon="13.041335154038867"><ele>158.0</ele><time>2026-04-04T12:33:57Z</time></trkpt><trkpt lat="46.17223885778746" lon="13.04155373658385"><ele>158.0</ele><time>2026-04-04T12:33:58Z</time></trkpt><trkpt lat="46.17217959465797" lon="13.04180464381139"><ele>157.66666666666666</ele><time>2026-04-04T12:33:59Z</time></trkpt><trkpt lat="46.172122845509435" lon="13.042031824191827"><ele>157.33333333333334</ele><time>2026-04-04T12:34:00Z</time></trkpt><trkpt lat="46.17206851172319" lon="13.042242781771867"><ele>157.0</ele><time>2026-04-04T12:34:01Z</time></trkpt><trkpt lat="46.17202492227979" lon="13.042442534669048"><ele>156.0</ele><time>2026-04-04T12:34:02Z</time></trkpt><trkpt lat="46.17197723706282" lon="13.042648802860308"><ele>155.0</ele><time>2026-04-04T12:34:03Z</time></trkpt><trkpt lat="46.17195808564641" lon="13.04287735282411"><ele>154.0</ele><time>2026-04-04T12:34:04Z</time></trkpt><trkpt lat="46.171955708551764" lon="13.043116757836207"><ele>154.33333333333334</ele><time>2026-04-04T12:34:05Z</time></trkpt><trkpt lat="46.17198130759953" lon="13.043377066356134"><ele>154.66666666666666</ele><time>2026-04-04T12:34:06Z</time></trkpt><trkpt lat="46.17204114904696" lon="13.04363335543666"><ele>155.0</ele><time>2026-04-04T12:34:07Z</time></trkpt><trkpt lat="46.17209690843638" lon="13.043881827301316"><ele>155.0</ele><time>2026-04-04T12:34:08Z</time></trkpt><trkpt lat="46.17214544992274" lon="13.044110092327385"><ele>155.0</ele><time>2026-04-04T12:34:09Z</time></trkpt><trkpt lat="46.17217031433052" lon="13.04433870000872"><ele>155.0</ele><time>2026-04-04T12:34:10Z</time></trkpt><trkpt lat="46.17218504667236" lon="13.044583185878407"><ele>154.0</ele><time>2026-04-04T12:34:11Z</time></trkpt><trkpt lat="46.17217711800239" lon="13.044838222155231"><ele>153.0</ele><time>2026-04-04T12:34:12Z</time></trkpt><trkpt lat="46.17214440710983" lon="13.045105214713681"><ele>152.0</ele><time>2026-04-04T12:34:13Z</time></trkpt><trkpt lat="46.17210105869349" lon="13.04538482195518"><ele>152.0</ele><time>2026-04-04T12:34:14Z</time></trkpt><trkpt lat="46.172060091980775" lon="13.045651233158399"><ele>152.0</ele><time>2026-04-04T12:34:15Z</time></trkpt><trkpt lat="46.172023212891716" lon="13.045890805087597"><ele>152.0</ele><time>2026-04-04T12:34:16Z</time></trkpt><trkpt lat="46.17198877754976" lon="13.046119101311387"><ele>152.0</ele><time>2026-04-04T12:34:17Z</time></trkpt><trkpt lat="46.1719587971887" lon="13.046333681382013"><ele>152.0</ele><time>2026-04-04T12:34:18Z</time></trkpt><trkpt lat="46.17193790928927" lon="13.046553441129912"><ele>152.0</ele><time>2026-04-04T12:34:19Z</time></trkpt><trkpt lat="46.171934002300354" lon="13.046797037278553"><ele>152.0</ele><time>2026-04-04T12:34:20Z</time></trkpt><trkpt lat="46.17195030378128" lon="13.04706530594115"><ele>152.0</ele><time>2026-04-04T12:34:21Z</time></trkpt><trkpt lat="46.17198029412017" lon="13.04734584142969"><ele>152.0</ele><time>2026-04-04T12:34:22Z</time></trkpt><trkpt lat="46.17199547171805" lon="13.047630022818462"><ele>152.0</ele><time>2026-04-04T12:34:23Z</time></trkpt><trkpt lat="46.172031940788386" lon="13.047895564362637"><ele>152.0</ele><time>2026-04-04T12:34:24Z</time></trkpt><trkpt lat="46.1720362583488" lon="13.048159132314902"><ele>152.0</ele><time>2026-04-04T12:34:25Z</time></trkpt><trkpt lat="46.172021528756645" lon="13.048412635866397"><ele>152.0</ele><time>2026-04-04T12:34:26Z</time></trkpt><trkpt lat="46.17198019699982" lon="13.048687767434728"><ele>152.0</ele><time>2026-04-04T12:34:27Z</time></trkpt><trkpt lat="46.17192636773116" lon="13.048975285683607"><ele>152.0</ele><time>2026-04-04T12:34:28Z</time></trkpt><trkpt lat="46.171870875414264" lon="13.049254590852232"><ele>152.33333333333331</ele><time>2026-04-04T12:34:29Z</time></trkpt><trkpt lat="46.171817403129005" lon="13.049524752710878"><ele>152.66666666666666</ele><time>2026-04-04T12:34:30Z</time></trkpt><trkpt lat="46.17176846888947" lon="13.049797977428932"><ele>153.0</ele><time>2026-04-04T12:34:31Z</time></trkpt><trkpt lat="46.171727087543054" lon="13.050070106990592"><ele>153.0</ele><time>2026-04-04T12:34:32Z</time></trkpt><trkpt lat="46.171693575967154" lon="13.050340505647421"><ele>153.0</ele><time>2026-04-04T12:34:33Z</time></trkpt><trkpt lat="46.17166287928221" lon="13.050594123343155"><ele>153.0</ele><time>2026-04-04T12:34:34Z</time></trkpt><trkpt lat="46.17163449564346" lon="13.050830761643766"><ele>152.75</ele><time>2026-04-04T12:34:35Z</time></trkpt><trkpt lat="46.17160632777375" lon="13.051057291270208"><ele>152.5</ele><time>2026-04-04T12:34:36Z</time></trkpt><trkpt lat="46.171566657095596" lon="13.051260673948788"><ele>152.25</ele><time>2026-04-04T12:34:37Z</time></trkpt><trkpt lat="46.17156114605955" lon="13.051444085597637"><ele>152.0</ele><time>2026-04-04T12:34:38Z</time></trkpt><trkpt lat="46.17154087969757" lon="13.051600723076422"><ele>151.4</ele><time>2026-04-04T12:34:39Z</time></trkpt><trkpt lat="46.171520151972864" lon="13.051751241176555"><ele>150.79999999999998</ele><time>2026-04-04T12:34:40Z</time></trkpt><trkpt lat="46.17150071628267" lon="13.051899345807843"><ele>150.2</ele><time>2026-04-04T12:34:41Z</time></trkpt><trkpt lat="46.1714868804398" lon="13.052023632465785"><ele>149.6</ele><time>2026-04-04T12:34:42Z</time></trkpt><trkpt lat="46.17146955542584" lon="13.052144464049064"><ele>149.0</ele><time>2026-04-04T12:34:43.001Z</time></trkpt><trkpt lat="46.171431588083024" lon="13.052256187236011"><ele>149.0</ele><time>2026-04-04T12:34:44.001Z</time></trkpt><trkpt lat="46.17137552321473" lon="13.052348214550454"><ele>149.0</ele><time>2026-04-04T12:34:45.001Z</time></trkpt><trkpt lat="46.17131407458348" lon="13.052442889106464"><ele>149.0</ele><time>2026-04-04T12:34:46.001Z</time></trkpt><trkpt lat="46.171287124530885" lon="13.05254279090166"><ele>149.0</ele><time>2026-04-04T12:34:47.001Z</time></trkpt><trkpt lat="46.171275824506736" lon="13.052672846737023"><ele>149.0</ele><time>2026-04-04T12:34:48.001Z</time></trkpt><trkpt lat="46.17129386116076" lon="13.052821251068998"><ele>149.0</ele><time>2026-04-04T12:34:49.001Z</time></trkpt><trkpt lat="46.17132358178114" lon="13.052985910060631"><ele>149.25</ele><time>2026-04-04T12:34:50.001Z</time></trkpt><trkpt lat="46.17133225117629" lon="13.053174189949354"><ele>149.5</ele><time>2026-04-04T12:34:51.001Z</time></trkpt><trkpt lat="46.17129416656715" lon="13.053388439892366"><ele>149.75</ele><time>2026-04-04T12:34:52.001Z</time></trkpt><trkpt lat="46.171265015130516" lon="13.053616541410328"><ele>150.0</ele><time>2026-04-04T12:34:53.001Z</time></trkpt><trkpt lat="46.17123401936197" lon="13.053859590552326"><ele>150.33333333333334</ele><time>2026-04-04T12:34:54.001Z</time></trkpt><trkpt lat="46.17120165874717" lon="13.054113852537975"><ele>150.66666666666669</ele><time>2026-04-04T12:34:55.001Z</time></trkpt><trkpt lat="46.1711696199711" lon="13.05436941069908"><ele>151.0</ele><time>2026-04-04T12:34:56.001Z</time></trkpt><trkpt lat="46.171138437204036" lon="13.05461814471088"><ele>151.0</ele><time>2026-04-04T12:34:57.001Z</time></trkpt><trkpt lat="46.171107011349484" lon="13.054868817931718"><ele>151.0</ele><time>2026-04-04T12:34:58.001Z</time></trkpt><trkpt lat="46.17107574746935" lon="13.055118199078182"><ele>151.0</ele><time>2026-04-04T12:34:59.001Z</time></trkpt><trkpt lat="46.17104578433403" lon="13.055356808654336"><ele>151.0</ele><time>2026-04-04T12:35:00.001Z</time></trkpt><trkpt lat="46.171027988856096" lon="13.055598721929142"><ele>151.0</ele><time>2026-04-04T12:35:01.001Z</time></trkpt><trkpt lat="46.170996785911214" lon="13.05583224310674"><ele>151.0</ele><time>2026-04-04T12:35:02.001Z</time></trkpt><trkpt lat="46.17096393900841" lon="13.05606709225028"><ele>151.0</ele><time>2026-04-04T12:35:03.001Z</time></trkpt><trkpt lat="46.17093229143452" lon="13.056306188310522"><ele>151.0</ele><time>2026-04-04T12:35:04.001Z</time></trkpt><trkpt lat="46.170898998348285" lon="13.056555896752535"><ele>151.0</ele><time>2026-04-04T12:35:05.001Z</time></trkpt><trkpt lat="46.17086663794726" lon="13.056811821682711"><ele>152.0</ele><time>2026-04-04T12:35:06.001Z</time></trkpt><trkpt lat="46.170832677008875" lon="13.057076263084296"><ele>153.0</ele><time>2026-04-04T12:35:07.001Z</time></trkpt><trkpt lat="46.170797397200126" lon="13.057342647637297"><ele>154.0</ele><time>2026-04-04T12:35:08.001Z</time></trkpt><trkpt lat="46.17076592189751" lon="13.057594705482392"><ele>154.0</ele><time>2026-04-04T12:35:09.001Z</time></trkpt><trkpt lat="46.17073464226534" lon="13.057847464944823"><ele>154.0</ele><time>2026-04-04T12:35:10.001Z</time></trkpt><trkpt lat="46.170703555740765" lon="13.058096034314358"><ele>154.0</ele><time>2026-04-04T12:35:11.001Z</time></trkpt><trkpt lat="46.170670722839716" lon="13.05834289708532"><ele>154.33333333333334</ele><time>2026-04-04T12:35:12.001Z</time></trkpt><trkpt lat="46.17063906321834" lon="13.058585675502217"><ele>154.66666666666666</ele><time>2026-04-04T12:35:13.001Z</time></trkpt><trkpt lat="46.17060643648174" lon="13.058825418586467"><ele>155.0</ele><time>2026-04-04T12:35:14.001Z</time></trkpt><trkpt lat="46.17057314636815" lon="13.059066240774198"><ele>155.0</ele><time>2026-04-04T12:35:15.001Z</time></trkpt><trkpt lat="46.170538536524894" lon="13.059301864755668"><ele>155.0</ele><time>2026-04-04T12:35:16.001Z</time></trkpt><trkpt lat="46.17050676186224" lon="13.05953623672957"><ele>155.0</ele><time>2026-04-04T12:35:17.001Z</time></trkpt><trkpt lat="46.17047700819775" lon="13.059771448462273"><ele>155.0</ele><time>2026-04-04T12:35:18.001Z</time></trkpt><trkpt lat="46.17044375466692" lon="13.06000385795641"><ele>155.0</ele><time>2026-04-04T12:35:19.001Z</time></trkpt><trkpt lat="46.17041740960034" lon="13.06023772343256"><ele>155.0</ele><time>2026-04-04T12:35:20.001Z</time></trkpt><trkpt lat="46.17039083033538" lon="13.060469609578165"><ele>155.0</ele><time>2026-04-04T12:35:21.001Z</time></trkpt><trkpt lat="46.17036389292547" lon="13.060695930024217"><ele>155.0</ele><time>2026-04-04T12:35:22.001Z</time></trkpt><trkpt lat="46.17033845574412" lon="13.060923540349593"><ele>155.0</ele><time>2026-04-04T12:35:23.001Z</time></trkpt><trkpt lat="46.17029185673209" lon="13.061155394873415"><ele>155.33333333333331</ele><time>2026-04-04T12:35:24.001Z</time></trkpt><trkpt lat="46.1702590370467" lon="13.061398148956718"><ele>155.66666666666666</ele><time>2026-04-04T12:35:25.001Z</time></trkpt><trkpt lat="46.170225729391476" lon="13.061644512345394"><ele>156.0</ele><time>2026-04-04T12:35:26.001Z</time></trkpt><trkpt lat="46.17019402582594" lon="13.0618843047644"><ele>156.0</ele><time>2026-04-04T12:35:27.001Z</time></trkpt><trkpt lat="46.17016568461267" lon="13.062114135840254"><ele>156.0</ele><time>2026-04-04T12:35:28.001Z</time></trkpt><trkpt lat="46.170144246800376" lon="13.062335918400878"><ele>156.0</ele><time>2026-04-04T12:35:29.001Z</time></trkpt><trkpt lat="46.170131236096225" lon="13.062566419112235"><ele>156.0</ele><time>2026-04-04T12:35:30.001Z</time></trkpt><trkpt lat="46.17013327674559" lon="13.062811536054195"><ele>156.0</ele><time>2026-04-04T12:35:31.001Z</time></trkpt><trkpt lat="46.17016989086409" lon="13.063056486229144"><ele>156.0</ele><time>2026-04-04T12:35:32.001Z</time></trkpt><trkpt lat="46.170196265912885" lon="13.063305939774908"><ele>156.33333333333334</ele><time>2026-04-04T12:35:33.001Z</time></trkpt><trkpt lat="46.17021313514328" lon="13.063542560885356"><ele>156.66666666666669</ele><time>2026-04-04T12:35:34.001Z</time></trkpt><trkpt lat="46.170255057143656" lon="13.063753949836682"><ele>157.0</ele><time>2026-04-04T12:35:35.001Z</time></trkpt><trkpt lat="46.17027330878714" lon="13.06395389807982"><ele>157.0</ele><time>2026-04-04T12:35:36.001Z</time></trkpt><trkpt lat="46.17029024987001" lon="13.064142830583798"><ele>157.0</ele><time>2026-04-04T12:35:37.001Z</time></trkpt><trkpt lat="46.17028059357464" lon="13.064319347556085"><ele>157.0</ele><time>2026-04-04T12:35:38.001Z</time></trkpt><trkpt lat="46.17027802935686" lon="13.064489035317473"><ele>157.0</ele><time>2026-04-04T12:35:39.001Z</time></trkpt><trkpt lat="46.17026885465449" lon="13.064671159238868"><ele>157.0</ele><time>2026-04-04T12:35:40.001Z</time></trkpt><trkpt lat="46.17025536056133" lon="13.06485865111213"><ele>157.0</ele><time>2026-04-04T12:35:41.001Z</time></trkpt><trkpt lat="46.17022159289832" lon="13.065034134134851"><ele>157.0</ele><time>2026-04-04T12:35:42.001Z</time></trkpt><trkpt lat="46.17019535800127" lon="13.065202739909653"><ele>157.0</ele><time>2026-04-04T12:35:43.001Z</time></trkpt><trkpt lat="46.17016013866713" lon="13.065352907721376"><ele>157.0</ele><time>2026-04-04T12:35:44.001Z</time></trkpt><trkpt lat="46.170140588121136" lon="13.065493175744761"><ele>157.0</ele><time>2026-04-04T12:35:45.001Z</time></trkpt><trkpt lat="46.170124876014064" lon="13.065621251433054"><ele>157.0</ele><time>2026-04-04T12:35:46.001Z</time></trkpt><trkpt lat="46.17010911708691" lon="13.065747654106344"><ele>157.0</ele><time>2026-04-04T12:35:47.001Z</time></trkpt><trkpt lat="46.170139380417545" lon="13.065871992023"><ele>157.0</ele><time>2026-04-04T12:35:48.001Z</time></trkpt><trkpt lat="46.17011683869082" lon="13.065958888710977"><ele>157.0</ele><time>2026-04-04T12:35:49.001Z</time></trkpt><trkpt lat="46.17009176879956" lon="13.06604307220002"><ele>157.0</ele><time>2026-04-04T12:35:50.001Z</time></trkpt><trkpt lat="46.170051097306676" lon="13.066172693783464"><ele>157.0</ele><time>2026-04-04T12:35:52.001Z</time></trkpt><trkpt lat="46.17007699521758" lon="13.06628089723038"><ele>157.0</ele><time>2026-04-04T12:35:54.001Z</time></trkpt><trkpt lat="46.1701412052198" lon="13.066383316988398"><ele>157.0</ele><time>2026-04-04T12:36:00Z</time></trkpt><trkpt lat="46.17023703092603" lon="13.066444446687957"><ele>157.0</ele><time>2026-04-04T12:36:02Z</time></trkpt><trkpt lat="46.170308994527076" lon="13.066429447792324"><ele>157.0</ele><time>2026-04-04T12:36:03Z</time></trkpt><trkpt lat="46.170410894693376" lon="13.066395157273949"><ele>157.0</ele><time>2026-04-04T12:36:04Z</time></trkpt><trkpt lat="46.17053236477465" lon="13.066363776541575"><ele>157.0</ele><time>2026-04-04T12:36:05Z</time></trkpt><trkpt lat="46.17068748846161" lon="13.066324338936203"><ele>157.0</ele><time>2026-04-04T12:36:06Z</time></trkpt><trkpt lat="46.17086124574243" lon="13.06629169500171"><ele>157.0</ele><time>2026-04-04T12:36:07Z</time></trkpt><trkpt lat="46.17104870793988" lon="13.066269746880428"><ele>157.0</ele><time>2026-04-04T12:36:08Z</time></trkpt><trkpt lat="46.171251046157316" lon="13.066269734932662"><ele>157.0</ele><time>2026-04-04T12:36:09Z</time></trkpt><trkpt lat="46.171454481463186" lon="13.066268917618801"><ele>157.66666666666669</ele><time>2026-04-04T12:36:10Z</time></trkpt><trkpt lat="46.171667447659736" lon="13.066288507372398"><ele>158.33333333333334</ele><time>2026-04-04T12:36:11Z</time></trkpt><trkpt lat="46.17184419340901" lon="13.066322264165311"><ele>159.0</ele><time>2026-04-04T12:36:12Z</time></trkpt><trkpt lat="46.17201204868374" lon="13.066361042131453"><ele>159.0</ele><time>2026-04-04T12:36:13Z</time></trkpt><trkpt lat="46.17217491900129" lon="13.06639063774422"><ele>159.0</ele><time>2026-04-04T12:36:14Z</time></trkpt><trkpt lat="46.17233253200976" lon="13.066413420682656"><ele>159.0</ele><time>2026-04-04T12:36:15Z</time></trkpt><trkpt lat="46.172487509249564" lon="13.066452896367394"><ele>159.33333333333334</ele><time>2026-04-04T12:36:16Z</time></trkpt><trkpt lat="46.172643460348" lon="13.066469207992565"><ele>159.66666666666669</ele><time>2026-04-04T12:36:17Z</time></trkpt><trkpt lat="46.17281224963718" lon="13.066501253518025"><ele>160.0</ele><time>2026-04-04T12:36:18Z</time></trkpt><trkpt lat="46.17297887328412" lon="13.066532005889743"><ele>160.0</ele><time>2026-04-04T12:36:19Z</time></trkpt><trkpt lat="46.17315001435488" lon="13.066560789989007"><ele>160.0</ele><time>2026-04-04T12:36:20Z</time></trkpt><trkpt lat="46.173316276264686" lon="13.066594625006772"><ele>160.0</ele><time>2026-04-04T12:36:21Z</time></trkpt><trkpt lat="46.17347518136602" lon="13.066625064143688"><ele>160.0</ele><time>2026-04-04T12:36:22Z</time></trkpt><trkpt lat="46.17363566966925" lon="13.066656715917079"><ele>160.0</ele><time>2026-04-04T12:36:23Z</time></trkpt><trkpt lat="46.17380741383296" lon="13.066697073762064"><ele>160.0</ele><time>2026-04-04T12:36:24Z</time></trkpt><trkpt lat="46.17397785873551" lon="13.066729410903557"><ele>160.0</ele><time>2026-04-04T12:36:25Z</time></trkpt><trkpt lat="46.174147753762924" lon="13.066759000499223"><ele>160.0</ele><time>2026-04-04T12:36:26Z</time></trkpt><trkpt lat="46.17431782935061" lon="13.066790774713935"><ele>160.0</ele><time>2026-04-04T12:36:27Z</time></trkpt><trkpt lat="46.17448719756932" lon="13.066821651110283"><ele>160.0</ele><time>2026-04-04T12:36:28Z</time></trkpt><trkpt lat="46.174661128415984" lon="13.066854016093643"><ele>160.0</ele><time>2026-04-04T12:36:29Z</time></trkpt><trkpt lat="46.1748310255764" lon="13.066895313139826"><ele>160.0</ele><time>2026-04-04T12:36:30Z</time></trkpt><trkpt lat="46.175001500703985" lon="13.066929790085817"><ele>159.66666666666669</ele><time>2026-04-04T12:36:31Z</time></trkpt><trkpt lat="46.175177377773295" lon="13.066959900536908"><ele>159.33333333333334</ele><time>2026-04-04T12:36:32Z</time></trkpt><trkpt lat="46.17535004475855" lon="13.06699549648699"><ele>159.0</ele><time>2026-04-04T12:36:33Z</time></trkpt><trkpt lat="46.17552212473909" lon="13.067029220856108"><ele>158.66666666666666</ele><time>2026-04-04T12:36:34Z</time></trkpt><trkpt lat="46.17569801402976" lon="13.067062097188288"><ele>158.33333333333331</ele><time>2026-04-04T12:36:35Z</time></trkpt><trkpt lat="46.17588240503119" lon="13.067095304808417"><ele>158.0</ele><time>2026-04-04T12:36:36Z</time></trkpt><trkpt lat="46.17606778927718" lon="13.067129208097793"><ele>158.0</ele><time>2026-04-04T12:36:37Z</time></trkpt><trkpt lat="46.17625715080783" lon="13.067163762640453"><ele>158.0</ele><time>2026-04-04T12:36:38Z</time></trkpt><trkpt lat="46.17646327755219" lon="13.067208625017907"><ele>158.0</ele><time>2026-04-04T12:36:39Z</time></trkpt><trkpt lat="46.17664487461705" lon="13.067252485147781"><ele>158.33333333333331</ele><time>2026-04-04T12:36:40Z</time></trkpt><trkpt lat="46.17683056702846" lon="13.067287092127495"><ele>158.66666666666666</ele><time>2026-04-04T12:36:41Z</time></trkpt><trkpt lat="46.1770037447533" lon="13.067313084003798"><ele>159.0</ele><time>2026-04-04T12:36:42Z</time></trkpt><trkpt lat="46.17718629059553" lon="13.067336744125612"><ele>159.0</ele><time>2026-04-04T12:36:43Z</time></trkpt><trkpt lat="46.17736039201758" lon="13.067368267939507"><ele>159.0</ele><time>2026-04-04T12:36:44Z</time></trkpt><trkpt lat="46.177526584443335" lon="13.067417080771634"><ele>159.0</ele><time>2026-04-04T12:36:45Z</time></trkpt><trkpt lat="46.177703797520024" lon="13.067451021786576"><ele>159.0</ele><time>2026-04-04T12:36:46Z</time></trkpt><trkpt lat="46.1778757729691" lon="13.06747931390652"><ele>159.0</ele><time>2026-04-04T12:36:47Z</time></trkpt><trkpt lat="46.17804289664379" lon="13.067514013411435"><ele>159.0</ele><time>2026-04-04T12:36:48Z</time></trkpt><trkpt lat="46.17822167075552" lon="13.067548417657662"><ele>158.66666666666666</ele><time>2026-04-04T12:36:49Z</time></trkpt><trkpt lat="46.17839546436707" lon="13.067573969105009"><ele>158.33333333333331</ele><time>2026-04-04T12:36:50Z</time></trkpt><trkpt lat="46.178570033307736" lon="13.067602022526975"><ele>158.0</ele><time>2026-04-04T12:36:51Z</time></trkpt><trkpt lat="46.17874321382414" lon="13.067590503413747"><ele>158.0</ele><time>2026-04-04T12:36:52.001Z</time></trkpt><trkpt lat="46.17891492242961" lon="13.067563424232489"><ele>158.0</ele><time>2026-04-04T12:36:53.001Z</time></trkpt><trkpt lat="46.1790862718057" lon="13.067522328745813"><ele>158.0</ele><time>2026-04-04T12:36:54.001Z</time></trkpt><trkpt lat="46.17925725643938" lon="13.06747616180562"><ele>158.0</ele><time>2026-04-04T12:36:55.001Z</time></trkpt><trkpt lat="46.17942915400742" lon="13.067423423060783"><ele>158.0</ele><time>2026-04-04T12:36:56.001Z</time></trkpt><trkpt lat="46.17959753089625" lon="13.067395947549816"><ele>158.0</ele><time>2026-04-04T12:36:57.001Z</time></trkpt><trkpt lat="46.17974410529827" lon="13.067340788529917"><ele>158.25</ele><time>2026-04-04T12:36:58.001Z</time></trkpt><trkpt lat="46.17988868607705" lon="13.06730587488434"><ele>158.5</ele><time>2026-04-04T12:36:59.001Z</time></trkpt><trkpt lat="46.18002794229855" lon="13.067263484521465"><ele>158.75</ele><time>2026-04-04T12:37:00.001Z</time></trkpt><trkpt lat="46.18015377857311" lon="13.067227817191256"><ele>159.0</ele><time>2026-04-04T12:37:01.001Z</time></trkpt><trkpt lat="46.180280303737064" lon="13.067190384906564"><ele>159.0</ele><time>2026-04-04T12:37:02.001Z</time></trkpt><trkpt lat="46.18039627888225" lon="13.067155156814975"><ele>159.0</ele><time>2026-04-04T12:37:03.001Z</time></trkpt><trkpt lat="46.18049982280779" lon="13.067121289146884"><ele>159.0</ele><time>2026-04-04T12:37:04.001Z</time></trkpt><trkpt lat="46.18059548538207" lon="13.067090359965425"><ele>159.0</ele><time>2026-04-04T12:37:05.001Z</time></trkpt><trkpt lat="46.180685582109334" lon="13.067070833952547"><ele>159.0</ele><time>2026-04-04T12:37:06.001Z</time></trkpt><trkpt lat="46.1807699309609" lon="13.06705658033386"><ele>159.66666666666666</ele><time>2026-04-04T12:37:07.001Z</time></trkpt><trkpt lat="46.18085375790291" lon="13.067057578225768"><ele>160.33333333333334</ele><time>2026-04-04T12:37:08.001Z</time></trkpt><trkpt lat="46.18093149974136" lon="13.067109659072736"><ele>161.0</ele><time>2026-04-04T12:37:09.001Z</time></trkpt><trkpt lat="46.18100995494388" lon="13.06711555506197"><ele>161.66666666666669</ele><time>2026-04-04T12:37:10.001Z</time></trkpt><trkpt lat="46.18107752376358" lon="13.067155508355945"><ele>162.33333333333334</ele><time>2026-04-04T12:37:11.001Z</time></trkpt><trkpt lat="46.18114830879647" lon="13.067186888518082"><ele>163.0</ele><time>2026-04-04T12:37:12.001Z</time></trkpt><trkpt lat="46.1812255372076" lon="13.067217104665835"><ele>163.0</ele><time>2026-04-04T12:37:13.001Z</time></trkpt><trkpt lat="46.18129312454808" lon="13.067245665172969"><ele>163.0</ele><time>2026-04-04T12:37:14.001Z</time></trkpt><trkpt lat="46.18136341009138" lon="13.067273635080069"><ele>163.0</ele><time>2026-04-04T12:37:15.001Z</time></trkpt><trkpt lat="46.181432104473664" lon="13.067298851167527"><ele>163.0</ele><time>2026-04-04T12:37:16.001Z</time></trkpt><trkpt lat="46.18150497616467" lon="13.067325518488456"><ele>163.0</ele><time>2026-04-04T12:37:17.001Z</time></trkpt><trkpt lat="46.18158516683796" lon="13.067353692749966"><ele>163.0</ele><time>2026-04-04T12:37:18.001Z</time></trkpt><trkpt lat="46.18167275218927" lon="13.06739370096857"><ele>163.2</ele><time>2026-04-04T12:37:19.001Z</time></trkpt><trkpt lat="46.181771103572764" lon="13.06743341529876"><ele>163.4</ele><time>2026-04-04T12:37:20.001Z</time></trkpt><trkpt lat="46.18187066569324" lon="13.067473511959355"><ele>163.6</ele><time>2026-04-04T12:37:21.001Z</time></trkpt><trkpt lat="46.18197402201512" lon="13.067536224277667"><ele>163.79999999999998</ele><time>2026-04-04T12:37:22.001Z</time></trkpt><trkpt lat="46.18208680020021" lon="13.067558035140516"><ele>164.0</ele><time>2026-04-04T12:37:23.001Z</time></trkpt><trkpt lat="46.18220046932684" lon="13.0676043279086"><ele>164.0</ele><time>2026-04-04T12:37:24.001Z</time></trkpt><trkpt lat="46.18230904978407" lon="13.067652278147985"><ele>164.0</ele><time>2026-04-04T12:37:25.001Z</time></trkpt><trkpt lat="46.18241946902321" lon="13.067717029918219"><ele>164.0</ele><time>2026-04-04T12:37:26.001Z</time></trkpt><trkpt lat="46.18252756664589" lon="13.067760872865788"><ele>164.0</ele><time>2026-04-04T12:37:27.001Z</time></trkpt><trkpt lat="46.182632476816345" lon="13.067803435772845"><ele>164.2</ele><time>2026-04-04T12:37:28.001Z</time></trkpt><trkpt lat="46.18274385342671" lon="13.067848622234049"><ele>164.39999999999998</ele><time>2026-04-04T12:37:29.001Z</time></trkpt><trkpt lat="46.182858588346434" lon="13.067895999857468"><ele>164.6</ele><time>2026-04-04T12:37:30.001Z</time></trkpt><trkpt lat="46.18296105794333" lon="13.067938164235345"><ele>164.8</ele><time>2026-04-04T12:37:31.001Z</time></trkpt><trkpt lat="46.18305162800755" lon="13.067958310551445"><ele>165.0</ele><time>2026-04-04T12:37:32.001Z</time></trkpt><trkpt lat="46.18313687471682" lon="13.067990617968164"><ele>165.0</ele><time>2026-04-04T12:37:33.001Z</time></trkpt><trkpt lat="46.183224009787175" lon="13.06802968471236"><ele>165.0</ele><time>2026-04-04T12:37:34.001Z</time></trkpt><trkpt lat="46.18331237619169" lon="13.06806886471947"><ele>165.0</ele><time>2026-04-04T12:37:35.001Z</time></trkpt><trkpt lat="46.183394059385854" lon="13.068101751946983"><ele>165.0</ele><time>2026-04-04T12:37:36.001Z</time></trkpt><trkpt lat="46.183470948875055" lon="13.068131874260088"><ele>165.0</ele><time>2026-04-04T12:37:37.001Z</time></trkpt><trkpt lat="46.183553930437306" lon="13.068158269948606"><ele>165.0</ele><time>2026-04-04T12:37:38.001Z</time></trkpt><trkpt lat="46.18363943621182" lon="13.068197666259637"><ele>165.0</ele><time>2026-04-04T12:37:39.001Z</time></trkpt><trkpt lat="46.183721507364176" lon="13.06823901638565"><ele>165.0</ele><time>2026-04-04T12:37:40.001Z</time></trkpt><trkpt lat="46.18381721978181" lon="13.068275149106366"><ele>165.0</ele><time>2026-04-04T12:37:41.001Z</time></trkpt><trkpt lat="46.183918804436274" lon="13.068308940626167"><ele>165.0</ele><time>2026-04-04T12:37:42.001Z</time></trkpt><trkpt lat="46.18401892509634" lon="13.06834496560751"><ele>165.0</ele><time>2026-04-04T12:37:43.001Z</time></trkpt><trkpt lat="46.18410884156578" lon="13.068374541608865"><ele>165.5</ele><time>2026-04-04T12:37:44.001Z</time></trkpt><trkpt lat="46.18418927343522" lon="13.068389063869803"><ele>166.0</ele><time>2026-04-04T12:37:45.001Z</time></trkpt><trkpt lat="46.18426117467704" lon="13.068396663941868"><ele>166.5</ele><time>2026-04-04T12:37:46.001Z</time></trkpt><trkpt lat="46.18432755795715" lon="13.068409892189186"><ele>167.0</ele><time>2026-04-04T12:37:47.001Z</time></trkpt><trkpt lat="46.18439097023661" lon="13.068422919002048"><ele>167.5</ele><time>2026-04-04T12:37:48.001Z</time></trkpt><trkpt lat="46.18449634949149" lon="13.068444133441249"><ele>168.0</ele><time>2026-04-04T12:37:50.001Z</time></trkpt><trkpt lat="46.184599392694395" lon="13.068458445500081"><ele>168.0</ele><time>2026-04-04T12:37:52.001Z</time></trkpt><trkpt lat="46.18469465170675" lon="13.068461970798106"><ele>168.0</ele><time>2026-04-04T12:37:54.001Z</time></trkpt><trkpt lat="46.184803881461576" lon="13.068535793688444"><ele>168.0</ele><time>2026-04-04T12:37:56.001Z</time></trkpt><trkpt lat="46.184884829446545" lon="13.068732736489192"><ele>168.0</ele><time>2026-04-04T12:37:58.001Z</time></trkpt><trkpt lat="46.18489449204231" lon="13.068870902525758"><ele>168.0</ele><time>2026-04-04T12:37:59.001Z</time></trkpt><trkpt lat="46.184871888488985" lon="13.069012467805862"><ele>168.0</ele><time>2026-04-04T12:38:00.001Z</time></trkpt><trkpt lat="46.184848612080614" lon="13.069156603561792"><ele>168.0</ele><time>2026-04-04T12:38:01.001Z</time></trkpt><trkpt lat="46.184839761352094" lon="13.06930276477285"><ele>168.0</ele><time>2026-04-04T12:38:02.001Z</time></trkpt><trkpt lat="46.184826239326135" lon="13.06944933874163"><ele>168.0</ele><time>2026-04-04T12:38:03.001Z</time></trkpt><trkpt lat="46.18480882856759" lon="13.069600870171403"><ele>168.0</ele><time>2026-04-04T12:38:04.001Z</time></trkpt><trkpt lat="46.18478496717011" lon="13.06974722157367"><ele>168.0</ele><time>2026-04-04T12:38:05.001Z</time></trkpt><trkpt lat="46.18476565384286" lon="13.069895650313576"><ele>168.0</ele><time>2026-04-04T12:38:06Z</time></trkpt><trkpt lat="46.18474514292073" lon="13.070042595788754"><ele>168.0</ele><time>2026-04-04T12:38:07Z</time></trkpt><trkpt lat="46.18472341267652" lon="13.07019495842143"><ele>168.0</ele><time>2026-04-04T12:38:08Z</time></trkpt><trkpt lat="46.18470406466467" lon="13.070333954504301"><ele>167.8</ele><time>2026-04-04T12:38:09Z</time></trkpt><trkpt lat="46.18468110304796" lon="13.070443516288545"><ele>167.60000000000002</ele><time>2026-04-04T12:38:10Z</time></trkpt><trkpt lat="46.18465513697702" lon="13.07053156667403"><ele>167.39999999999998</ele><time>2026-04-04T12:38:11Z</time></trkpt><trkpt lat="46.18462735747208" lon="13.070688503724297"><ele>167.2</ele><time>2026-04-04T12:38:13Z</time></trkpt><trkpt lat="46.18460767291018" lon="13.070846749324291"><ele>167.0</ele><time>2026-04-04T12:38:15Z</time></trkpt><trkpt lat="46.18459922216267" lon="13.070978623126205"><ele>167.0</ele><time>2026-04-04T12:38:17Z</time></trkpt><trkpt lat="46.18459388738984" lon="13.071069259514474"><ele>167.0</ele><time>2026-04-04T12:38:20Z</time></trkpt><trkpt lat="46.18455862825703" lon="13.071149760256338"><ele>167.0</ele><time>2026-04-04T12:48:59.999Z</time></trkpt><trkpt lat="46.18459509791053" lon="13.071058971614615"><ele>167.0</ele><time>2026-04-04T12:49:13Z</time></trkpt><trkpt lat="46.184614410331356" lon="13.07091317243313"><ele>167.0</ele><time>2026-04-04T12:49:15Z</time></trkpt><trkpt lat="46.184630715717546" lon="13.07079240010511"><ele>167.0</ele><time>2026-04-04T12:49:16Z</time></trkpt><trkpt lat="46.1846960591816" lon="13.070553210720933"><ele>167.0</ele><time>2026-04-04T12:49:17Z</time></trkpt><trkpt lat="46.18471842889043" lon="13.070383132246219"><ele>167.0</ele><time>2026-04-04T12:49:18Z</time></trkpt><trkpt lat="46.184739114850146" lon="13.070202916612681"><ele>167.0</ele><time>2026-04-04T12:49:19Z</time></trkpt><trkpt lat="46.18476358008581" lon="13.07002784828494"><ele>167.0</ele><time>2026-04-04T12:49:20Z</time></trkpt><trkpt lat="46.18479789802424" lon="13.069803921095891"><ele>167.33333333333331</ele><time>2026-04-04T12:49:21Z</time></trkpt><trkpt lat="46.184840983907456" lon="13.069535560313469"><ele>167.66666666666666</ele><time>2026-04-04T12:49:22Z</time></trkpt><trkpt lat="46.18487134183496" lon="13.069280957916098"><ele>168.0</ele><time>2026-04-04T12:49:23Z</time></trkpt><trkpt lat="46.184890111651036" lon="13.06907506442872"><ele>168.4</ele><time>2026-04-04T12:49:24Z</time></trkpt><trkpt lat="46.18490447972006" lon="13.06891937079319"><ele>168.8</ele><time>2026-04-04T12:49:25Z</time></trkpt><trkpt lat="46.18491286122375" lon="13.06877994217295"><ele>169.2</ele><time>2026-04-04T12:49:26Z</time></trkpt><trkpt lat="46.184909660650504" lon="13.068628394819847"><ele>169.6</ele><time>2026-04-04T12:49:27Z</time></trkpt><trkpt lat="46.18490253688728" lon="13.068434393208484"><ele>170.0</ele><time>2026-04-04T12:49:28Z</time></trkpt><trkpt lat="46.18491354581027" lon="13.068202957802942"><ele>170.33333333333331</ele><time>2026-04-04T12:49:29Z</time></trkpt><trkpt lat="46.18492738204695" lon="13.067951776195253"><ele>170.66666666666666</ele><time>2026-04-04T12:49:30Z</time></trkpt><trkpt lat="46.184926442313404" lon="13.067718737194934"><ele>171.0</ele><time>2026-04-04T12:49:31Z</time></trkpt><trkpt lat="46.18492203648716" lon="13.067530182862765"><ele>171.0</ele><time>2026-04-04T12:49:32Z</time></trkpt><trkpt lat="46.184912986149314" lon="13.067363186449441"><ele>171.0</ele><time>2026-04-04T12:49:33Z</time></trkpt><trkpt lat="46.18489158374922" lon="13.067151207550284"><ele>171.0</ele><time>2026-04-04T12:49:34Z</time></trkpt><trkpt lat="46.184865684020814" lon="13.066958832400815"><ele>171.0</ele><time>2026-04-04T12:49:35Z</time></trkpt><trkpt lat="46.18485120220757" lon="13.066794120528737"><ele>170.5</ele><time>2026-04-04T12:49:36Z</time></trkpt><trkpt lat="46.184858324147015" lon="13.06660769561725"><ele>170.0</ele><time>2026-04-04T12:49:37Z</time></trkpt><trkpt lat="46.18486392451677" lon="13.066391984183479"><ele>169.5</ele><time>2026-04-04T12:49:38Z</time></trkpt><trkpt lat="46.18488150434659" lon="13.066146685328969"><ele>169.0</ele><time>2026-04-04T12:49:39Z</time></trkpt><trkpt lat="46.18488270963779" lon="13.06589450105307"><ele>169.0</ele><time>2026-04-04T12:49:40Z</time></trkpt><trkpt lat="46.18490458090288" lon="13.065665963358116"><ele>169.0</ele><time>2026-04-04T12:49:41Z</time></trkpt><trkpt lat="46.18491359992707" lon="13.065466714697882"><ele>169.0</ele><time>2026-04-04T12:49:42Z</time></trkpt><trkpt lat="46.18492164622496" lon="13.065286663412367"><ele>169.0</ele><time>2026-04-04T12:49:43Z</time></trkpt><trkpt lat="46.18492999381969" lon="13.065115147827601"><ele>169.39999999999998</ele><time>2026-04-04T12:49:44Z</time></trkpt><trkpt lat="46.18494208262096" lon="13.064942131202356"><ele>169.8</ele><time>2026-04-04T12:49:45Z</time></trkpt><trkpt lat="46.18495655488595" lon="13.064783274240375"><ele>170.2</ele><time>2026-04-04T12:49:46Z</time></trkpt><trkpt lat="46.18498410506346" lon="13.064645280763662"><ele>170.60000000000002</ele><time>2026-04-04T12:49:47Z</time></trkpt><trkpt lat="46.18501188555768" lon="13.064493535741581"><ele>171.0</ele><time>2026-04-04T12:49:48Z</time></trkpt><trkpt lat="46.18504657476115" lon="13.064325085947658"><ele>171.0</ele><time>2026-04-04T12:49:49Z</time></trkpt><trkpt lat="46.18506119416282" lon="13.064171467596456"><ele>171.0</ele><time>2026-04-04T12:49:50Z</time></trkpt><trkpt lat="46.18507623417426" lon="13.064001440092579"><ele>171.0</ele><time>2026-04-04T12:49:51Z</time></trkpt><trkpt lat="46.185081223721085" lon="13.063815724542357"><ele>171.0</ele><time>2026-04-04T12:49:52Z</time></trkpt><trkpt lat="46.18508242501376" lon="13.063616919408116"><ele>171.0</ele><time>2026-04-04T12:49:53Z</time></trkpt><trkpt lat="46.185104753809384" lon="13.063409341269386"><ele>171.0</ele><time>2026-04-04T12:49:54Z</time></trkpt><trkpt lat="46.18513361692074" lon="13.063217109716161"><ele>171.0</ele><time>2026-04-04T12:49:55Z</time></trkpt><trkpt lat="46.18516329733308" lon="13.063022905220498"><ele>171.0</ele><time>2026-04-04T12:49:56Z</time></trkpt><trkpt lat="46.185194074960975" lon="13.06283431186242"><ele>171.0</ele><time>2026-04-04T12:49:57Z</time></trkpt><trkpt lat="46.18522284888357" lon="13.062657486388348"><ele>171.0</ele><time>2026-04-04T12:49:58.001Z</time></trkpt><trkpt lat="46.18525026554529" lon="13.06249731694712"><ele>171.0</ele><time>2026-04-04T12:49:59.001Z</time></trkpt><trkpt lat="46.18527791707062" lon="13.062310324806448"><ele>171.0</ele><time>2026-04-04T12:50:00.001Z</time></trkpt><trkpt lat="46.18531505057471" lon="13.062093763542794"><ele>171.33333333333334</ele><time>2026-04-04T12:50:01.001Z</time></trkpt><trkpt lat="46.185348849268244" lon="13.061861083016533"><ele>171.66666666666669</ele><time>2026-04-04T12:50:02.001Z</time></trkpt><trkpt lat="46.18537879500183" lon="13.061649371522977"><ele>172.0</ele><time>2026-04-04T12:50:03.001Z</time></trkpt><trkpt lat="46.18540765796775" lon="13.061453395975796"><ele>172.25</ele><time>2026-04-04T12:50:04.001Z</time></trkpt><trkpt lat="46.18543435366226" lon="13.061273710823151"><ele>172.5</ele><time>2026-04-04T12:50:05.001Z</time></trkpt><trkpt lat="46.185464799768724" lon="13.061104728256133"><ele>172.75</ele><time>2026-04-04T12:50:06.001Z</time></trkpt><trkpt lat="46.18549457387523" lon="13.060948867000786"><ele>173.0</ele><time>2026-04-04T12:50:07.001Z</time></trkpt><trkpt lat="46.185516893146705" lon="13.060797336107475"><ele>174.25</ele><time>2026-04-04T12:50:08.001Z</time></trkpt><trkpt lat="46.18553748925003" lon="13.060637198051746"><ele>175.5</ele><time>2026-04-04T12:50:09.001Z</time></trkpt><trkpt lat="46.185562618778185" lon="13.060470285588618"><ele>176.75</ele><time>2026-04-04T12:50:10.001Z</time></trkpt><trkpt lat="46.18558900192628" lon="13.060301135378893"><ele>178.0</ele><time>2026-04-04T12:50:11.001Z</time></trkpt><trkpt lat="46.18561668689834" lon="13.060133904000041"><ele>178.0</ele><time>2026-04-04T12:50:12.001Z</time></trkpt><trkpt lat="46.185636070673155" lon="13.059970106312191"><ele>178.0</ele><time>2026-04-04T12:50:13.001Z</time></trkpt><trkpt lat="46.18565620408482" lon="13.059803505318518"><ele>178.0</ele><time>2026-04-04T12:50:14.001Z</time></trkpt><trkpt lat="46.185678064163774" lon="13.0596363260175"><ele>178.0</ele><time>2026-04-04T12:50:15.001Z</time></trkpt><trkpt lat="46.18570134388219" lon="13.059465764136066"><ele>175.5</ele><time>2026-04-04T12:50:16.001Z</time></trkpt><trkpt lat="46.18572807317266" lon="13.059293994555928"><ele>173.0</ele><time>2026-04-04T12:50:17.001Z</time></trkpt><trkpt lat="46.18575501396902" lon="13.059124462876008"><ele>170.5</ele><time>2026-04-04T12:50:18.001Z</time></trkpt><trkpt lat="46.185779214967646" lon="13.058954444899843"><ele>168.0</ele><time>2026-04-04T12:50:19.001Z</time></trkpt><trkpt lat="46.18580555154972" lon="13.058782407488032"><ele>168.0</ele><time>2026-04-04T12:50:20.001Z</time></trkpt><trkpt lat="46.18582912987066" lon="13.058616228154243"><ele>168.0</ele><time>2026-04-04T12:50:21.001Z</time></trkpt><trkpt lat="46.185851437623505" lon="13.058441943898636"><ele>168.0</ele><time>2026-04-04T12:50:22.001Z</time></trkpt><trkpt lat="46.185874249525114" lon="13.058265255914307"><ele>168.0</ele><time>2026-04-04T12:50:23.001Z</time></trkpt><trkpt lat="46.18590171522843" lon="13.058090326746257"><ele>167.75</ele><time>2026-04-04T12:50:24.001Z</time></trkpt><trkpt lat="46.18593341176612" lon="13.057914287758395"><ele>167.5</ele><time>2026-04-04T12:50:25.001Z</time></trkpt><trkpt lat="46.18596295232402" lon="13.057737252364452"><ele>167.25</ele><time>2026-04-04T12:50:26.001Z</time></trkpt><trkpt lat="46.18598544230582" lon="13.05756431052301"><ele>167.0</ele><time>2026-04-04T12:50:27.001Z</time></trkpt><trkpt lat="46.18600322941189" lon="13.05737202385631"><ele>166.75</ele><time>2026-04-04T12:50:28.001Z</time></trkpt><trkpt lat="46.18604724652839" lon="13.057196428696717"><ele>166.5</ele><time>2026-04-04T12:50:29.001Z</time></trkpt><trkpt lat="46.186072445978574" lon="13.057025343550016"><ele>166.25</ele><time>2026-04-04T12:50:30.001Z</time></trkpt><trkpt lat="46.186097723161566" lon="13.056854884385224"><ele>166.0</ele><time>2026-04-04T12:50:31.001Z</time></trkpt><trkpt lat="46.1861233574749" lon="13.056682016712891"><ele>166.25</ele><time>2026-04-04T12:50:32.001Z</time></trkpt><trkpt lat="46.186147945236684" lon="13.056485845248526"><ele>166.5</ele><time>2026-04-04T12:50:33.001Z</time></trkpt><trkpt lat="46.18617435146183" lon="13.056304917838096"><ele>166.75</ele><time>2026-04-04T12:50:34.001Z</time></trkpt><trkpt lat="46.186201325182104" lon="13.056124560286067"><ele>167.0</ele><time>2026-04-04T12:50:35.001Z</time></trkpt><trkpt lat="46.186231228315414" lon="13.055953784019053"><ele>167.5</ele><time>2026-04-04T12:50:36.001Z</time></trkpt><trkpt lat="46.18626197343338" lon="13.055776392011918"><ele>168.0</ele><time>2026-04-04T12:50:37.001Z</time></trkpt><trkpt lat="46.18628979383401" lon="13.05559537159443"><ele>168.5</ele><time>2026-04-04T12:50:38.001Z</time></trkpt><trkpt lat="46.186316953459055" lon="13.055428502277678"><ele>169.0</ele><time>2026-04-04T12:50:39.001Z</time></trkpt><trkpt lat="46.18634272405325" lon="13.055274722796018"><ele>169.0</ele><time>2026-04-04T12:50:40.001Z</time></trkpt><trkpt lat="46.186363512708766" lon="13.055128200588467"><ele>169.0</ele><time>2026-04-04T12:50:41.001Z</time></trkpt><trkpt lat="46.18638362456009" lon="13.054984128032357"><ele>169.0</ele><time>2026-04-04T12:50:41.999Z</time></trkpt><trkpt lat="46.18639877084528" lon="13.05483191050923"><ele>169.0</ele><time>2026-04-04T12:50:42.999Z</time></trkpt><trkpt lat="46.186412874027475" lon="13.054696762598605"><ele>169.0</ele><time>2026-04-04T12:50:43.999Z</time></trkpt><trkpt lat="46.18642305947667" lon="13.054578850733135"><ele>169.16666666666669</ele><time>2026-04-04T12:50:44.999Z</time></trkpt><trkpt lat="46.186429113516986" lon="13.054469600326962"><ele>169.33333333333334</ele><time>2026-04-04T12:50:45.999Z</time></trkpt><trkpt lat="46.18641762070762" lon="13.054363419507782"><ele>169.5</ele><time>2026-04-04T12:50:47.999Z</time></trkpt><trkpt lat="46.18640861140062" lon="13.054268759297033"><ele>169.66666666666666</ele><time>2026-04-04T12:50:52.999Z</time></trkpt><trkpt lat="46.18645848676506" lon="13.054134310614996"><ele>169.83333333333331</ele><time>2026-04-04T12:50:54.999Z</time></trkpt><trkpt lat="46.18653067902335" lon="13.054054973912912"><ele>170.0</ele><time>2026-04-04T12:50:55.999Z</time></trkpt><trkpt lat="46.186532461925935" lon="13.053929427375106"><ele>170.2</ele><time>2026-04-04T12:50:57.999Z</time></trkpt><trkpt lat="46.18652178705617" lon="13.053808214406724"><ele>170.4</ele><time>2026-04-04T12:50:59.999Z</time></trkpt><trkpt lat="46.18642216013381" lon="13.053797435060677"><ele>170.60000000000002</ele><time>2026-04-04T12:51:00.999Z</time></trkpt><trkpt lat="46.186346794124624" lon="13.053802074442132"><ele>170.8</ele><time>2026-04-04T12:51:01.999Z</time></trkpt><trkpt lat="46.18625099547975" lon="13.053807613802093"><ele>171.0</ele><time>2026-04-04T12:51:02.999Z</time></trkpt><trkpt lat="46.18615179259717" lon="13.053800618791813"><ele>171.0</ele><time>2026-04-04T12:51:03.999Z</time></trkpt><trkpt lat="46.18604089791558" lon="13.053711983860914"><ele>171.0</ele><time>2026-04-04T12:51:04.999Z</time></trkpt><trkpt lat="46.18591856088958" lon="13.053637262179542"><ele>171.0</ele><time>2026-04-04T12:51:05.999Z</time></trkpt><trkpt lat="46.18581327621745" lon="13.053567622911888"><ele>171.0</ele><time>2026-04-04T12:51:07Z</time></trkpt><trkpt lat="46.18572374123128" lon="13.053503071101336"><ele>170.8</ele><time>2026-04-04T12:51:08Z</time></trkpt><trkpt lat="46.18564005791212" lon="13.053445915920559"><ele>170.60000000000002</ele><time>2026-04-04T12:51:09Z</time></trkpt><trkpt lat="46.18554246096358" lon="13.05338902616185"><ele>170.4</ele><time>2026-04-04T12:51:10Z</time></trkpt><trkpt lat="46.185437809692054" lon="13.053329213942149"><ele>170.2</ele><time>2026-04-04T12:51:11Z</time></trkpt><trkpt lat="46.1853321187635" lon="13.053261110778646"><ele>170.0</ele><time>2026-04-04T12:51:12Z</time></trkpt><trkpt lat="46.18521975646812" lon="13.053189481136332"><ele>169.75</ele><time>2026-04-04T12:51:13Z</time></trkpt><trkpt lat="46.185098247100015" lon="13.053118522198057"><ele>169.5</ele><time>2026-04-04T12:51:14Z</time></trkpt><trkpt lat="46.18497310049843" lon="13.053042867551378"><ele>169.25</ele><time>2026-04-04T12:51:15Z</time></trkpt><trkpt lat="46.18483554154356" lon="13.052957452068751"><ele>169.0</ele><time>2026-04-04T12:51:16Z</time></trkpt><trkpt lat="46.18469055312153" lon="13.052863924333497"><ele>169.0</ele><time>2026-04-04T12:51:17Z</time></trkpt><trkpt lat="46.18454340348486" lon="13.05277084490077"><ele>169.0</ele><time>2026-04-04T12:51:18Z</time></trkpt><trkpt lat="46.18439821478201" lon="13.052675094380206"><ele>169.0</ele><time>2026-04-04T12:51:19Z</time></trkpt><trkpt lat="46.18425206143644" lon="13.052571107633245"><ele>169.0</ele><time>2026-04-04T12:51:20Z</time></trkpt><trkpt lat="46.184109216354294" lon="13.052464236418068"><ele>169.0</ele><time>2026-04-04T12:51:21Z</time></trkpt><trkpt lat="46.18398825545819" lon="13.052365737225971"><ele>169.0</ele><time>2026-04-04T12:51:22Z</time></trkpt><trkpt lat="46.18387313402454" lon="13.052272947637693"><ele>169.0</ele><time>2026-04-04T12:51:23Z</time></trkpt><trkpt lat="46.18376254918229" lon="13.052173193112143"><ele>170.0</ele><time>2026-04-04T12:51:24Z</time></trkpt><trkpt lat="46.18365096787436" lon="13.052060163232136"><ele>171.0</ele><time>2026-04-04T12:51:25Z</time></trkpt><trkpt lat="46.18354318195756" lon="13.05196685893034"><ele>172.0</ele><time>2026-04-04T12:51:26Z</time></trkpt><trkpt lat="46.18343786166433" lon="13.051868693227389"><ele>173.0</ele><time>2026-04-04T12:51:27Z</time></trkpt><trkpt lat="46.18333255500845" lon="13.05177468408753"><ele>173.0</ele><time>2026-04-04T12:51:28Z</time></trkpt><trkpt lat="46.18322838663401" lon="13.051673706281615"><ele>173.0</ele><time>2026-04-04T12:51:29Z</time></trkpt><trkpt lat="46.183125907254556" lon="13.05157240427315"><ele>173.0</ele><time>2026-04-04T12:51:30Z</time></trkpt><trkpt lat="46.18303820868402" lon="13.051484625573138"><ele>173.0</ele><time>2026-04-04T12:51:31Z</time></trkpt><trkpt lat="46.1829753502862" lon="13.051351692486634"><ele>173.2</ele><time>2026-04-04T12:51:32Z</time></trkpt><trkpt lat="46.182911723363404" lon="13.051230058840316"><ele>173.4</ele><time>2026-04-04T12:51:33Z</time></trkpt><trkpt lat="46.182850592241714" lon="13.051102434910133"><ele>173.6</ele><time>2026-04-04T12:51:34Z</time></trkpt><trkpt lat="46.18279349846311" lon="13.050964663495336"><ele>173.79999999999998</ele><time>2026-04-04T12:51:35Z</time></trkpt><trkpt lat="46.182740757618525" lon="13.050810771583503"><ele>174.0</ele><time>2026-04-04T12:51:36Z</time></trkpt><trkpt lat="46.18269516044382" lon="13.05067667013622"><ele>174.6</ele><time>2026-04-04T12:51:37Z</time></trkpt><trkpt lat="46.18263233415156" lon="13.050546063486708"><ele>175.2</ele><time>2026-04-04T12:51:38Z</time></trkpt><trkpt lat="46.18256573506686" lon="13.0504175375991"><ele>175.79999999999998</ele><time>2026-04-04T12:51:39Z</time></trkpt><trkpt lat="46.18249454066785" lon="13.050299668627254"><ele>176.39999999999998</ele><time>2026-04-04T12:51:40Z</time></trkpt><trkpt lat="46.18242659500792" lon="13.050198987411067"><ele>177.0</ele><time>2026-04-04T12:51:41Z</time></trkpt><trkpt lat="46.18236200763494" lon="13.050093464278026"><ele>175.6</ele><time>2026-04-04T12:51:42Z</time></trkpt><trkpt lat="46.1823039604062" lon="13.049985207222187"><ele>174.2</ele><time>2026-04-04T12:51:43Z</time></trkpt><trkpt lat="46.182256016407166" lon="13.04988352515596"><ele>172.8</ele><time>2026-04-04T12:51:44Z</time></trkpt><trkpt lat="46.18221804156108" lon="13.049776648238717"><ele>171.4</ele><time>2026-04-04T12:51:45Z</time></trkpt><trkpt lat="46.18219610087954" lon="13.049644903101733"><ele>170.0</ele><time>2026-04-04T12:51:46Z</time></trkpt><trkpt lat="46.18216979163038" lon="13.049488108173058"><ele>170.0</ele><time>2026-04-04T12:51:47Z</time></trkpt><trkpt lat="46.18213745748148" lon="13.049334650291751"><ele>170.0</ele><time>2026-04-04T12:51:48Z</time></trkpt><trkpt lat="46.18213098791318" lon="13.049174964095677"><ele>170.0</ele><time>2026-04-04T12:51:49.001Z</time></trkpt><trkpt lat="46.18211367090416" lon="13.049005209297073"><ele>170.0</ele><time>2026-04-04T12:51:50.001Z</time></trkpt><trkpt lat="46.18207070204499" lon="13.048826712466058"><ele>171.25</ele><time>2026-04-04T12:51:51.001Z</time></trkpt><trkpt lat="46.18201584952214" lon="13.048649327436769"><ele>172.5</ele><time>2026-04-04T12:51:52.001Z</time></trkpt><trkpt lat="46.18194755599826" lon="13.048468993745955"><ele>173.75</ele><time>2026-04-04T12:51:53.001Z</time></trkpt><trkpt lat="46.181867822865165" lon="13.048293697081066"><ele>175.0</ele><time>2026-04-04T12:51:54.001Z</time></trkpt><trkpt lat="46.18178044943672" lon="13.048112830635553"><ele>177.33333333333334</ele><time>2026-04-04T12:51:55.001Z</time></trkpt><trkpt lat="46.18169699249479" lon="13.047927266994755"><ele>179.66666666666666</ele><time>2026-04-04T12:51:56.001Z</time></trkpt><trkpt lat="46.1816172280616" lon="13.047744050930588"><ele>182.0</ele><time>2026-04-04T12:51:57.001Z</time></trkpt><trkpt lat="46.181535013899236" lon="13.047561570558786"><ele>180.0</ele><time>2026-04-04T12:51:58.001Z</time></trkpt><trkpt lat="46.1814560714983" lon="13.047380024399803"><ele>178.0</ele><time>2026-04-04T12:51:59.001Z</time></trkpt><trkpt lat="46.18136883739597" lon="13.047189388421502"><ele>176.0</ele><time>2026-04-04T12:52:00.001Z</time></trkpt><trkpt lat="46.18128184047887" lon="13.046997800129352"><ele>176.0</ele><time>2026-04-04T12:52:01.001Z</time></trkpt><trkpt lat="46.181196045591086" lon="13.046804462208494"><ele>176.0</ele><time>2026-04-04T12:52:02.001Z</time></trkpt><trkpt lat="46.18110588960226" lon="13.046610718997616"><ele>176.0</ele><time>2026-04-04T12:52:03.001Z</time></trkpt><trkpt lat="46.18102322612983" lon="13.046412493845091"><ele>176.66666666666666</ele><time>2026-04-04T12:52:04.001Z</time></trkpt><trkpt lat="46.180923829514484" lon="13.04622727183347"><ele>177.33333333333334</ele><time>2026-04-04T12:52:05.001Z</time></trkpt><trkpt lat="46.180820823927796" lon="13.04604957587793"><ele>178.0</ele><time>2026-04-04T12:52:06.001Z</time></trkpt><trkpt lat="46.180710116087276" lon="13.04587433233269"><ele>177.0</ele><time>2026-04-04T12:52:07.001Z</time></trkpt><trkpt lat="46.18060287364098" lon="13.04569951756763"><ele>176.0</ele><time>2026-04-04T12:52:08.001Z</time></trkpt><trkpt lat="46.180491347609916" lon="13.045519014196973"><ele>175.0</ele><time>2026-04-04T12:52:09.001Z</time></trkpt><trkpt lat="46.180378842127084" lon="13.045337854661367"><ele>175.0</ele><time>2026-04-04T12:52:10.001Z</time></trkpt><trkpt lat="46.18026455750591" lon="13.045153189005013"><ele>175.0</ele><time>2026-04-04T12:52:11.001Z</time></trkpt><trkpt lat="46.18015375462405" lon="13.04497285992621"><ele>175.0</ele><time>2026-04-04T12:52:12.001Z</time></trkpt><trkpt lat="46.180049178338045" lon="13.04479338846142"><ele>175.0</ele><time>2026-04-04T12:52:13.001Z</time></trkpt><trkpt lat="46.179936341575825" lon="13.0446106012472"><ele>175.0</ele><time>2026-04-04T12:52:14.001Z</time></trkpt><trkpt lat="46.17982814198529" lon="13.044431106921095"><ele>175.0</ele><time>2026-04-04T12:52:15.001Z</time></trkpt><trkpt lat="46.17972639453044" lon="13.044261339298831"><ele>176.66666666666669</ele><time>2026-04-04T12:52:16.001Z</time></trkpt><trkpt lat="46.17962455014245" lon="13.044101555549664"><ele>178.33333333333334</ele><time>2026-04-04T12:52:17.001Z</time></trkpt><trkpt lat="46.17952390728912" lon="13.043938938477693"><ele>180.0</ele><time>2026-04-04T12:52:18.001Z</time></trkpt><trkpt lat="46.17942455597462" lon="13.04376984706448"><ele>180.0</ele><time>2026-04-04T12:52:19.001Z</time></trkpt><trkpt lat="46.17932354147338" lon="13.043599373693342"><ele>180.0</ele><time>2026-04-04T12:52:20.001Z</time></trkpt><trkpt lat="46.179227934476295" lon="13.043431868799495"><ele>180.0</ele><time>2026-04-04T12:52:21.001Z</time></trkpt><trkpt lat="46.179128627018144" lon="13.043266930740625"><ele>180.33333333333334</ele><time>2026-04-04T12:52:22.001Z</time></trkpt><trkpt lat="46.17902668283853" lon="13.043103214702375"><ele>180.66666666666669</ele><time>2026-04-04T12:52:23.001Z</time></trkpt><trkpt lat="46.17892452996708" lon="13.042938588625212"><ele>181.0</ele><time>2026-04-04T12:52:24.001Z</time></trkpt><trkpt lat="46.178823124341235" lon="13.042772836301815"><ele>181.0</ele><time>2026-04-04T12:52:25.001Z</time></trkpt><trkpt lat="46.178717292846365" lon="13.042603032210351"><ele>181.0</ele><time>2026-04-04T12:52:26.001Z</time></trkpt><trkpt lat="46.178614646000646" lon="13.04243073445477"><ele>181.0</ele><time>2026-04-04T12:52:27.001Z</time></trkpt><trkpt lat="46.17850656868064" lon="13.042261215061885"><ele>181.5</ele><time>2026-04-04T12:52:28.001Z</time></trkpt><trkpt lat="46.178408369445464" lon="13.042100345949327"><ele>182.0</ele><time>2026-04-04T12:52:29.001Z</time></trkpt><trkpt lat="46.178316218918226" lon="13.0419446156836"><ele>182.5</ele><time>2026-04-04T12:52:30.001Z</time></trkpt><trkpt lat="46.178219953714155" lon="13.041791456948275"><ele>183.0</ele><time>2026-04-04T12:52:31.001Z</time></trkpt><trkpt lat="46.1781241297967" lon="13.041630129414838"><ele>183.0</ele><time>2026-04-04T12:52:32.001Z</time></trkpt><trkpt lat="46.1780287033294" lon="13.04147743448023"><ele>183.0</ele><time>2026-04-04T12:52:33.001Z</time></trkpt><trkpt lat="46.17794465087128" lon="13.041326438762761"><ele>183.0</ele><time>2026-04-04T12:52:34.001Z</time></trkpt><trkpt lat="46.17784128923262" lon="13.04117027670069"><ele>183.0</ele><time>2026-04-04T12:52:35.001Z</time></trkpt><trkpt lat="46.17774197507032" lon="13.041009099217373"><ele>183.0</ele><time>2026-04-04T12:52:36.001Z</time></trkpt><trkpt lat="46.17764855290716" lon="13.04084101030047"><ele>183.0</ele><time>2026-04-04T12:52:37.001Z</time></trkpt><trkpt lat="46.177548610419215" lon="13.040663037185988"><ele>183.0</ele><time>2026-04-04T12:52:38.001Z</time></trkpt><trkpt lat="46.17744886708737" lon="13.040496624017727"><ele>183.5</ele><time>2026-04-04T12:52:39.001Z</time></trkpt><trkpt lat="46.1773553843815" lon="13.040348936143298"><ele>184.0</ele><time>2026-04-04T12:52:40.001Z</time></trkpt><trkpt lat="46.17726097555365" lon="13.040199428968464"><ele>184.5</ele><time>2026-04-04T12:52:41.001Z</time></trkpt><trkpt lat="46.17717679967074" lon="13.040058008477027"><ele>185.0</ele><time>2026-04-04T12:52:42.001Z</time></trkpt><trkpt lat="46.17708923109016" lon="13.039913878989207"><ele>185.0</ele><time>2026-04-04T12:52:43.001Z</time></trkpt><trkpt lat="46.177000416094884" lon="13.03977366372376"><ele>185.0</ele><time>2026-04-04T12:52:44.002Z</time></trkpt><trkpt lat="46.1769114915834" lon="13.039621840286877"><ele>185.0</ele><time>2026-04-04T12:52:45.002Z</time></trkpt><trkpt lat="46.17682386497987" lon="13.039464143218332"><ele>185.0</ele><time>2026-04-04T12:52:46.002Z</time></trkpt><trkpt lat="46.17673394125031" lon="13.039316254136745"><ele>185.0</ele><time>2026-04-04T12:52:47.002Z</time></trkpt><trkpt lat="46.176635663379564" lon="13.039165555654264"><ele>185.0</ele><time>2026-04-04T12:52:48Z</time></trkpt><trkpt lat="46.17654002506258" lon="13.039008681587946"><ele>185.0</ele><time>2026-04-04T12:52:49Z</time></trkpt><trkpt lat="46.176451873890805" lon="13.038835217260457"><ele>185.0</ele><time>2026-04-04T12:52:50Z</time></trkpt><trkpt lat="46.176372344411206" lon="13.038651253810384"><ele>185.0</ele><time>2026-04-04T12:52:51Z</time></trkpt><trkpt lat="46.17629953255789" lon="13.038450403042116"><ele>185.0</ele><time>2026-04-04T12:52:52Z</time></trkpt><trkpt lat="46.17622959672206" lon="13.03823979151773"><ele>185.0</ele><time>2026-04-04T12:52:53Z</time></trkpt><trkpt lat="46.17616924480357" lon="13.038016159479506"><ele>185.0</ele><time>2026-04-04T12:52:54Z</time></trkpt><trkpt lat="46.17610634611311" lon="13.037767971815333"><ele>185.0</ele><time>2026-04-04T12:52:55Z</time></trkpt><trkpt lat="46.17604493749766" lon="13.03751336681451"><ele>185.0</ele><time>2026-04-04T12:52:56Z</time></trkpt><trkpt lat="46.175985228349084" lon="13.037252338983375"><ele>184.0</ele><time>2026-04-04T12:52:57Z</time></trkpt><trkpt lat="46.17592208833197" lon="13.036989866668954"><ele>183.0</ele><time>2026-04-04T12:52:58Z</time></trkpt><trkpt lat="46.17586392054102" lon="13.036736699000373"><ele>182.0</ele><time>2026-04-04T12:52:59Z</time></trkpt><trkpt lat="46.17579986267073" lon="13.036473188182125"><ele>181.66666666666666</ele><time>2026-04-04T12:53:00Z</time></trkpt><trkpt lat="46.17573715902108" lon="13.036219658004262"><ele>181.33333333333334</ele><time>2026-04-04T12:53:01Z</time></trkpt><trkpt lat="46.175675003826086" lon="13.035981135906814"><ele>181.0</ele><time>2026-04-04T12:53:02Z</time></trkpt><trkpt lat="46.17561224896969" lon="13.035733113197066"><ele>180.0</ele><time>2026-04-04T12:53:03Z</time></trkpt><trkpt lat="46.175555321308856" lon="13.035484981428889"><ele>179.0</ele><time>2026-04-04T12:53:04Z</time></trkpt><trkpt lat="46.17548919457341" lon="13.035224634656819"><ele>178.0</ele><time>2026-04-04T12:53:05Z</time></trkpt><trkpt lat="46.17543509316228" lon="13.034983268531557"><ele>177.33333333333334</ele><time>2026-04-04T12:53:06Z</time></trkpt><trkpt lat="46.17537705653879" lon="13.034749698267648"><ele>176.66666666666666</ele><time>2026-04-04T12:53:07Z</time></trkpt><trkpt lat="46.17532415298441" lon="13.03452038493877"><ele>176.0</ele><time>2026-04-04T12:53:08Z</time></trkpt><trkpt lat="46.175269322250195" lon="13.034296394864908"><ele>177.0</ele><time>2026-04-04T12:53:09Z</time></trkpt><trkpt lat="46.175215943362545" lon="13.03406747933422"><ele>178.0</ele><time>2026-04-04T12:53:10Z</time></trkpt><trkpt lat="46.17516048934188" lon="13.033842883630793"><ele>179.0</ele><time>2026-04-04T12:53:11Z</time></trkpt><trkpt lat="46.17510513775109" lon="13.033616969764063"><ele>179.0</ele><time>2026-04-04T12:53:12Z</time></trkpt><trkpt lat="46.175050553150875" lon="13.033395787595516"><ele>179.0</ele><time>2026-04-04T12:53:13Z</time></trkpt><trkpt lat="46.17499676044289" lon="13.033165121068892"><ele>179.0</ele><time>2026-04-04T12:53:14Z</time></trkpt><trkpt lat="46.174941336163634" lon="13.032938840596067"><ele>179.0</ele><time>2026-04-04T12:53:15Z</time></trkpt><trkpt lat="46.174885781998064" lon="13.032704007920525"><ele>179.0</ele><time>2026-04-04T12:53:16Z</time></trkpt><trkpt lat="46.17482842340453" lon="13.032470747627299"><ele>179.0</ele><time>2026-04-04T12:53:17Z</time></trkpt><trkpt lat="46.17477359730749" lon="13.032233265991689"><ele>178.33333333333331</ele><time>2026-04-04T12:53:18Z</time></trkpt><trkpt lat="46.17471611013279" lon="13.031990842959114"><ele>177.66666666666666</ele><time>2026-04-04T12:53:19Z</time></trkpt><trkpt lat="46.17466197504568" lon="13.0317412231287"><ele>177.0</ele><time>2026-04-04T12:53:20Z</time></trkpt><trkpt lat="46.174603056049904" lon="13.031491723094957"><ele>176.33333333333334</ele><time>2026-04-04T12:53:21Z</time></trkpt><trkpt lat="46.174542840802" lon="13.031244249174364"><ele>175.66666666666669</ele><time>2026-04-04T12:53:22Z</time></trkpt><trkpt lat="46.17448256326365" lon="13.031003325510357"><ele>175.0</ele><time>2026-04-04T12:53:23Z</time></trkpt><trkpt lat="46.174423709439345" lon="13.030763855174971"><ele>175.0</ele><time>2026-04-04T12:53:24Z</time></trkpt><trkpt lat="46.17436864178045" lon="13.030523565177711"><ele>175.0</ele><time>2026-04-04T12:53:25Z</time></trkpt><trkpt lat="46.17431357326072" lon="13.030288102280007"><ele>175.0</ele><time>2026-04-04T12:53:26Z</time></trkpt><trkpt lat="46.17426026571657" lon="13.03005679554795"><ele>175.33333333333334</ele><time>2026-04-04T12:53:27Z</time></trkpt><trkpt lat="46.17420698371024" lon="13.029819494251683"><ele>175.66666666666666</ele><time>2026-04-04T12:53:28Z</time></trkpt><trkpt lat="46.174151051902825" lon="13.029592954838025"><ele>176.0</ele><time>2026-04-04T12:53:29Z</time></trkpt><trkpt lat="46.17409647920967" lon="13.029368670472218"><ele>176.0</ele><time>2026-04-04T12:53:30.001Z</time></trkpt><trkpt lat="46.1740425344277" lon="13.029148375907376"><ele>176.0</ele><time>2026-04-04T12:53:31.001Z</time></trkpt><trkpt lat="46.17398767990902" lon="13.028926644067997"><ele>176.0</ele><time>2026-04-04T12:53:32.001Z</time></trkpt><trkpt lat="46.17393470180502" lon="13.028705592720016"><ele>175.66666666666666</ele><time>2026-04-04T12:53:33.001Z</time></trkpt><trkpt lat="46.173885192047024" lon="13.028489398116651"><ele>175.33333333333334</ele><time>2026-04-04T12:53:34.001Z</time></trkpt><trkpt lat="46.17383462043199" lon="13.028280895360462"><ele>175.0</ele><time>2026-04-04T12:53:35.001Z</time></trkpt><trkpt lat="46.173783807172484" lon="13.028091263582553"><ele>175.0</ele><time>2026-04-04T12:53:36.001Z</time></trkpt><trkpt lat="46.17374268648814" lon="13.027921246523169"><ele>175.0</ele><time>2026-04-04T12:53:37.001Z</time></trkpt><trkpt lat="46.17370637710105" lon="13.02776962545124"><ele>175.0</ele><time>2026-04-04T12:53:38.001Z</time></trkpt><trkpt lat="46.17367381376885" lon="13.027637177245335"><ele>175.0</ele><time>2026-04-04T12:53:39.001Z</time></trkpt><trkpt lat="46.173642547950706" lon="13.027515103241875"><ele>175.0</ele><time>2026-04-04T12:53:40.001Z</time></trkpt><trkpt lat="46.17361121367198" lon="13.027398702741985"><ele>175.2</ele><time>2026-04-04T12:53:41.001Z</time></trkpt><trkpt lat="46.173579778944" lon="13.027289306995566"><ele>175.4</ele><time>2026-04-04T12:53:42.001Z</time></trkpt><trkpt lat="46.17356546650546" lon="13.027181952301662"><ele>175.60000000000002</ele><time>2026-04-04T12:53:43.001Z</time></trkpt><trkpt lat="46.17352824263578" lon="13.027100507993994"><ele>175.8</ele><time>2026-04-04T12:53:44.001Z</time></trkpt><trkpt lat="46.17350593786873" lon="13.02693709926905"><ele>176.0</ele><time>2026-04-04T12:53:46.001Z</time></trkpt><trkpt lat="46.1733568491491" lon="13.026890017311278"><ele>176.0</ele><time>2026-04-04T12:53:48.001Z</time></trkpt><trkpt lat="46.17328583628348" lon="13.02683162495696"><ele>176.0</ele><time>2026-04-04T12:53:49.001Z</time></trkpt><trkpt lat="46.17319495935014" lon="13.026805340779672"><ele>176.0</ele><time>2026-04-04T12:53:50.001Z</time></trkpt><trkpt lat="46.17309551661173" lon="13.026753404014631"><ele>176.0</ele><time>2026-04-04T12:53:51.001Z</time></trkpt><trkpt lat="46.17299600511942" lon="13.02667483269394"><ele>176.0</ele><time>2026-04-04T12:53:52.001Z</time></trkpt><trkpt lat="46.17289395927414" lon="13.026586022423945"><ele>175.75</ele><time>2026-04-04T12:53:53.001Z</time></trkpt><trkpt lat="46.17277981843909" lon="13.026474207736273"><ele>175.5</ele><time>2026-04-04T12:53:54.001Z</time></trkpt><trkpt lat="46.17265354284031" lon="13.02636687944372"><ele>175.25</ele><time>2026-04-04T12:53:55.001Z</time></trkpt><trkpt lat="46.1725181483854" lon="13.026250497711729"><ele>175.0</ele><time>2026-04-04T12:53:56.001Z</time></trkpt><trkpt lat="46.17235343519998" lon="13.026128580822913"><ele>175.0</ele><time>2026-04-04T12:53:57.001Z</time></trkpt><trkpt lat="46.17218368034618" lon="13.025996295041898"><ele>175.0</ele><time>2026-04-04T12:53:58.001Z</time></trkpt><trkpt lat="46.172014344836164" lon="13.025864008160909"><ele>175.0</ele><time>2026-04-04T12:53:59.001Z</time></trkpt><trkpt lat="46.17183979799198" lon="13.02573958693109"><ele>175.0</ele><time>2026-04-04T12:54:00.001Z</time></trkpt><trkpt lat="46.171680848187165" lon="13.025628806464956"><ele>175.0</ele><time>2026-04-04T12:54:01.001Z</time></trkpt><trkpt lat="46.171524820006745" lon="13.025525415303784"><ele>175.0</ele><time>2026-04-04T12:54:02.001Z</time></trkpt><trkpt lat="46.17138445213155" lon="13.025417043970815"><ele>174.75</ele><time>2026-04-04T12:54:03.001Z</time></trkpt><trkpt lat="46.17125132529816" lon="13.025325844381884"><ele>174.5</ele><time>2026-04-04T12:54:04.001Z</time></trkpt><trkpt lat="46.171127684391344" lon="13.025236417979977"><ele>174.25</ele><time>2026-04-04T12:54:05.001Z</time></trkpt><trkpt lat="46.17101667976441" lon="13.02515613140834"><ele>174.0</ele><time>2026-04-04T12:54:06.001Z</time></trkpt><trkpt lat="46.17091050763108" lon="13.025082251096224"><ele>174.0</ele><time>2026-04-04T12:54:07.001Z</time></trkpt><trkpt lat="46.170809891294894" lon="13.025009046628808"><ele>174.0</ele><time>2026-04-04T12:54:08.001Z</time></trkpt><trkpt lat="46.170707320011964" lon="13.024937418188122"><ele>174.0</ele><time>2026-04-04T12:54:09.001Z</time></trkpt><trkpt lat="46.170607550511114" lon="13.024867962740696"><ele>174.0</ele><time>2026-04-04T12:54:10.001Z</time></trkpt><trkpt lat="46.17050030016943" lon="13.024791086243885"><ele>173.25</ele><time>2026-04-04T12:54:11.001Z</time></trkpt><trkpt lat="46.17038722669172" lon="13.024706353133018"><ele>172.5</ele><time>2026-04-04T12:54:12.001Z</time></trkpt><trkpt lat="46.170270333511866" lon="13.024608210266038"><ele>171.75</ele><time>2026-04-04T12:54:13.001Z</time></trkpt><trkpt lat="46.17015150244486" lon="13.024510021947718"><ele>171.0</ele><time>2026-04-04T12:54:14.001Z</time></trkpt><trkpt lat="46.170032997091745" lon="13.024397535949339"><ele>171.0</ele><time>2026-04-04T12:54:15.001Z</time></trkpt><trkpt lat="46.16990797613001" lon="13.024321786822197"><ele>171.0</ele><time>2026-04-04T12:54:16.001Z</time></trkpt><trkpt lat="46.16979767912914" lon="13.02421680647975"><ele>171.0</ele><time>2026-04-04T12:54:17.001Z</time></trkpt><trkpt lat="46.169691748774774" lon="13.024092166230679"><ele>171.0</ele><time>2026-04-04T12:54:18.001Z</time></trkpt><trkpt lat="46.16958016947171" lon="13.02398858969094"><ele>171.66666666666666</ele><time>2026-04-04T12:54:19.001Z</time></trkpt><trkpt lat="46.16945951654612" lon="13.023878257773982"><ele>172.33333333333331</ele><time>2026-04-04T12:54:20.001Z</time></trkpt><trkpt lat="46.16932929117965" lon="13.02375917228627"><ele>173.0</ele><time>2026-04-04T12:54:21.001Z</time></trkpt><trkpt lat="46.16918703421318" lon="13.023656559728053"><ele>173.0</ele><time>2026-04-04T12:54:22.001Z</time></trkpt><trkpt lat="46.16906565412611" lon="13.023514211856167"><ele>173.0</ele><time>2026-04-04T12:54:23.002Z</time></trkpt><trkpt lat="46.168942689230896" lon="13.02336334642963"><ele>173.0</ele><time>2026-04-04T12:54:24.002Z</time></trkpt><trkpt lat="46.16882553233697" lon="13.02319913479175"><ele>173.33333333333331</ele><time>2026-04-04T12:54:25.002Z</time></trkpt><trkpt lat="46.16871173126438" lon="13.023025931383225"><ele>173.66666666666666</ele><time>2026-04-04T12:54:26.002Z</time></trkpt><trkpt lat="46.16859860079703" lon="13.022857233476254"><ele>174.0</ele><time>2026-04-04T12:54:27.002Z</time></trkpt><trkpt lat="46.16848431666393" lon="13.022686715602987"><ele>174.0</ele><time>2026-04-04T12:54:28.002Z</time></trkpt><trkpt lat="46.168370461447424" lon="13.022510024108312"><ele>174.0</ele><time>2026-04-04T12:54:29.002Z</time></trkpt><trkpt lat="46.16824708996172" lon="13.022329464813208"><ele>174.0</ele><time>2026-04-04T12:54:30.002Z</time></trkpt><trkpt lat="46.168117463730894" lon="13.022133447376316"><ele>174.66666666666666</ele><time>2026-04-04T12:54:31.002Z</time></trkpt><trkpt lat="46.167988332392746" lon="13.021920738847303"><ele>175.33333333333331</ele><time>2026-04-04T12:54:32.002Z</time></trkpt><trkpt lat="46.16784688690413" lon="13.021733833776045"><ele>176.0</ele><time>2026-04-04T12:54:33.002Z</time></trkpt><trkpt lat="46.16771564411162" lon="13.021532603366364"><ele>176.33333333333331</ele><time>2026-04-04T12:54:34.002Z</time></trkpt><trkpt lat="46.167596905634944" lon="13.021322007540459"><ele>176.66666666666666</ele><time>2026-04-04T12:54:35.002Z</time></trkpt><trkpt lat="46.16746998303742" lon="13.021126154635342"><ele>177.0</ele><time>2026-04-04T12:54:36.002Z</time></trkpt><trkpt lat="46.1673452881225" lon="13.020935544215185"><ele>179.0</ele><time>2026-04-04T12:54:37.002Z</time></trkpt><trkpt lat="46.16720627434692" lon="13.020762169070087"><ele>181.0</ele><time>2026-04-04T12:54:38.002Z</time></trkpt><trkpt lat="46.167083628085166" lon="13.020572398190774"><ele>183.0</ele><time>2026-04-04T12:54:39.002Z</time></trkpt><trkpt lat="46.16695790163819" lon="13.020392386808178"><ele>183.0</ele><time>2026-04-04T12:54:40.002Z</time></trkpt><trkpt lat="46.16684658102801" lon="13.020199321682798"><ele>183.0</ele><time>2026-04-04T12:54:41.002Z</time></trkpt><trkpt lat="46.16672874102902" lon="13.02002669963451"><ele>183.0</ele><time>2026-04-04T12:54:42.002Z</time></trkpt><trkpt lat="46.166605711647655" lon="13.019880501316447"><ele>184.75</ele><time>2026-04-04T12:54:43.002Z</time></trkpt><trkpt lat="46.16650695305922" lon="13.019732082269092"><ele>186.5</ele><time>2026-04-04T12:54:44.002Z</time></trkpt><trkpt lat="46.16641101432768" lon="13.019585874112572"><ele>188.25</ele><time>2026-04-04T12:54:45.002Z</time></trkpt><trkpt lat="46.16631691694825" lon="13.01945377218049"><ele>190.0</ele><time>2026-04-04T12:54:46.002Z</time></trkpt><trkpt lat="46.16622585586624" lon="13.019327331616601"><ele>190.0</ele><time>2026-04-04T12:54:47.002Z</time></trkpt><trkpt lat="46.16613468562229" lon="13.019208138770075"><ele>190.0</ele><time>2026-04-04T12:54:48.002Z</time></trkpt><trkpt lat="46.16604335536529" lon="13.019087158252376"><ele>190.0</ele><time>2026-04-04T12:54:49.002Z</time></trkpt><trkpt lat="46.165964725361405" lon="13.018934968034667"><ele>190.0</ele><time>2026-04-04T12:54:50.002Z</time></trkpt><trkpt lat="46.16587633585341" lon="13.018798627894665"><ele>190.25</ele><time>2026-04-04T12:54:51.002Z</time></trkpt><trkpt lat="46.1657901022077" lon="13.018662990130409"><ele>190.5</ele><time>2026-04-04T12:54:52.002Z</time></trkpt><trkpt lat="46.165709588184626" lon="13.018536037817116"><ele>190.75</ele><time>2026-04-04T12:54:53.002Z</time></trkpt><trkpt lat="46.16563297095401" lon="13.018415230157938"><ele>191.0</ele><time>2026-04-04T12:54:54.001Z</time></trkpt><trkpt lat="46.16556309131661" lon="13.018305045794152"><ele>192.4</ele><time>2026-04-04T12:54:55.001Z</time></trkpt><trkpt lat="46.16547982162039" lon="13.018200997474038"><ele>193.8</ele><time>2026-04-04T12:54:56.001Z</time></trkpt><trkpt lat="46.16540763590112" lon="13.018079721819374"><ele>195.20000000000002</ele><time>2026-04-04T12:54:57.001Z</time></trkpt><trkpt lat="46.165365108483066" lon="13.017972761875942"><ele>196.60000000000002</ele><time>2026-04-04T12:54:58.001Z</time></trkpt><trkpt lat="46.16532367386516" lon="13.017893503448184"><ele>198.0</ele><time>2026-04-04T12:54:59.001Z</time></trkpt><trkpt lat="46.16525001381749" lon="13.017735601653646"><ele>198.0</ele><time>2026-04-04T12:55:01.001Z</time></trkpt><trkpt lat="46.16520053790125" lon="13.017630830726699"><ele>198.0</ele><time>2026-04-04T12:55:02.001Z</time></trkpt><trkpt lat="46.165125928090504" lon="13.017525429807748"><ele>198.0</ele><time>2026-04-04T12:55:03.001Z</time></trkpt><trkpt lat="46.16502565859798" lon="13.017416268424405"><ele>198.0</ele><time>2026-04-04T12:55:04.001Z</time></trkpt><trkpt lat="46.16490977978158" lon="13.017305879020725"><ele>199.5</ele><time>2026-04-04T12:55:05.001Z</time></trkpt><trkpt lat="46.16479870581767" lon="13.017172037777659"><ele>201.0</ele><time>2026-04-04T12:55:06.001Z</time></trkpt><trkpt lat="46.1646804444975" lon="13.017044521553013"><ele>202.5</ele><time>2026-04-04T12:55:07.001Z</time></trkpt><trkpt lat="46.164562494175065" lon="13.016894851394857"><ele>204.0</ele><time>2026-04-04T12:55:08.001Z</time></trkpt><trkpt lat="46.16445430258923" lon="13.01675409333109"><ele>204.25</ele><time>2026-04-04T12:55:09.001Z</time></trkpt><trkpt lat="46.164349161749854" lon="13.016614422399138"><ele>204.5</ele><time>2026-04-04T12:55:10.001Z</time></trkpt><trkpt lat="46.16424605390118" lon="13.016474931562621"><ele>204.75</ele><time>2026-04-04T12:55:11.001Z</time></trkpt><trkpt lat="46.16413288939136" lon="13.01631702823867"><ele>205.0</ele><time>2026-04-04T12:55:12.001Z</time></trkpt><trkpt lat="46.164009487442456" lon="13.016159340293019"><ele>207.33333333333331</ele><time>2026-04-04T12:55:13.001Z</time></trkpt><trkpt lat="46.163887054805286" lon="13.015983927577723"><ele>209.66666666666669</ele><time>2026-04-04T12:55:14.001Z</time></trkpt><trkpt lat="46.163760009129966" lon="13.015828246818886"><ele>212.0</ele><time>2026-04-04T12:55:15.001Z</time></trkpt><trkpt lat="46.163651563029205" lon="13.015689102980472"><ele>213.25</ele><time>2026-04-04T12:55:16.001Z</time></trkpt><trkpt lat="46.163547027868375" lon="13.015539539004042"><ele>214.5</ele><time>2026-04-04T12:55:17.001Z</time></trkpt><trkpt lat="46.163452439768406" lon="13.015375650361468"><ele>215.75</ele><time>2026-04-04T12:55:18.001Z</time></trkpt><trkpt lat="46.16337780003108" lon="13.015187788034991"><ele>217.0</ele><time>2026-04-04T12:55:19.001Z</time></trkpt><trkpt lat="46.163314157587415" lon="13.01501610234495"><ele>217.0</ele><time>2026-04-04T12:55:20.001Z</time></trkpt><trkpt lat="46.1632541321709" lon="13.01487356865578"><ele>217.0</ele><time>2026-04-04T12:55:21.001Z</time></trkpt><trkpt lat="46.163193905016875" lon="13.014757022888167"><ele>217.0</ele><time>2026-04-04T12:55:22.001Z</time></trkpt><trkpt lat="46.16312353680674" lon="13.014669759240627"><ele>217.0</ele><time>2026-04-04T12:55:23.001Z</time></trkpt><trkpt lat="46.163058931657105" lon="13.014590543695611"><ele>217.0</ele><time>2026-04-04T12:55:24.001Z</time></trkpt><trkpt lat="46.16297611701263" lon="13.014529099631936"><ele>219.0</ele><time>2026-04-04T12:55:25.001Z</time></trkpt><trkpt lat="46.162886586448394" lon="13.014475861158349"><ele>221.0</ele><time>2026-04-04T12:55:26.001Z</time></trkpt><trkpt lat="46.16280824075181" lon="13.014381609114237"><ele>223.0</ele><time>2026-04-04T12:55:27.001Z</time></trkpt><trkpt lat="46.162718986815705" lon="13.01426861026645"><ele>225.0</ele><time>2026-04-04T12:55:28.001Z</time></trkpt><trkpt lat="46.16262638637868" lon="13.014152733321046"><ele>227.0</ele><time>2026-04-04T12:55:29.001Z</time></trkpt><trkpt lat="46.16256079073847" lon="13.013996768500126"><ele>227.0</ele><time>2026-04-04T12:55:30.001Z</time></trkpt><trkpt lat="46.16247136765261" lon="13.013848973638288"><ele>227.0</ele><time>2026-04-04T12:55:31.001Z</time></trkpt><trkpt lat="46.16240118035414" lon="13.013664651004492"><ele>227.0</ele><time>2026-04-04T12:55:32.001Z</time></trkpt><trkpt lat="46.162320582450356" lon="13.013501376416356"><ele>227.0</ele><time>2026-04-04T12:55:33.001Z</time></trkpt><trkpt lat="46.16222799545946" lon="13.013335580666716"><ele>230.2</ele><time>2026-04-04T12:55:34.001Z</time></trkpt><trkpt lat="46.1621483203994" lon="13.0131779079129"><ele>233.39999999999998</ele><time>2026-04-04T12:55:35.001Z</time></trkpt><trkpt lat="46.16208139233992" lon="13.013042840729096"><ele>236.60000000000002</ele><time>2026-04-04T12:55:36.001Z</time></trkpt><trkpt lat="46.16202296555767" lon="13.012927200506327"><ele>239.8</ele><time>2026-04-04T12:55:37.001Z</time></trkpt><trkpt lat="46.16196985610774" lon="13.01282590197357"><ele>243.0</ele><time>2026-04-04T12:55:38.001Z</time></trkpt><trkpt lat="46.16191135303785" lon="13.012722462963618"><ele>243.0</ele><time>2026-04-04T12:55:39.001Z</time></trkpt><trkpt lat="46.16185789952277" lon="13.012632457359786"><ele>243.0</ele><time>2026-04-04T12:55:40.001Z</time></trkpt><trkpt lat="46.16177777012149" lon="13.012554592888321"><ele>243.0</ele><time>2026-04-04T12:55:41.001Z</time></trkpt><trkpt lat="46.161685905259446" lon="13.012508910378903"><ele>243.0</ele><time>2026-04-04T12:55:42.001Z</time></trkpt><trkpt lat="46.16156007363875" lon="13.012393116365327"><ele>243.0</ele><time>2026-04-04T12:55:44.001Z</time></trkpt><trkpt lat="46.16149503994556" lon="13.01233608731212"><ele>243.83333333333334</ele><time>2026-04-04T12:55:45.001Z</time></trkpt><trkpt lat="46.16143605137482" lon="13.01226822511508"><ele>244.66666666666669</ele><time>2026-04-04T12:55:46.001Z</time></trkpt><trkpt lat="46.16136339525077" lon="13.01219648806524"><ele>245.5</ele><time>2026-04-04T12:55:48.001Z</time></trkpt><trkpt lat="46.16132402424284" lon="13.012113651564805"><ele>246.33333333333334</ele><time>2026-04-04T12:55:50.001Z</time></trkpt><trkpt lat="46.16127499720078" lon="13.012005743730594"><ele>247.16666666666669</ele><time>2026-04-04T12:55:52.001Z</time></trkpt><trkpt lat="46.16122593437736" lon="13.011885131637314"><ele>248.0</ele><time>2026-04-04T12:55:54.001Z</time></trkpt><trkpt lat="46.161207604608386" lon="13.011793871085642"><ele>248.00000000000003</ele><time>2026-04-04T12:55:55.001Z</time></trkpt><trkpt lat="46.1611848685896" lon="13.01169806052489"><ele>248.0</ele><time>2026-04-04T12:55:56.001Z</time></trkpt><trkpt lat="46.16114684889938" lon="13.01160853186093"><ele>248.0</ele><time>2026-04-04T12:55:57.001Z</time></trkpt><trkpt lat="46.16109486640449" lon="13.011546494901225"><ele>248.0</ele><time>2026-04-04T12:55:58.001Z</time></trkpt><trkpt lat="46.161025344898825" lon="13.011438132724697"><ele>248.00000000000003</ele><time>2026-04-04T12:56:00.001Z</time></trkpt><trkpt lat="46.16094557185564" lon="13.011294849206138"><ele>248.0</ele><time>2026-04-04T12:56:02.001Z</time></trkpt><trkpt lat="46.160904769641114" lon="13.011217635174184"><ele>248.0</ele><time>2026-04-04T12:56:03.001Z</time></trkpt><trkpt lat="46.160831230228645" lon="13.011094651737212"><ele>248.0</ele><time>2026-04-04T12:56:05.001Z</time></trkpt><trkpt lat="46.16076817082034" lon="13.011008741342316"><ele>248.0</ele><time>2026-04-04T12:56:07.001Z</time></trkpt><trkpt lat="46.16066141796443" lon="13.010884052126253"><ele>248.0</ele><time>2026-04-04T12:56:09.001Z</time></trkpt><trkpt lat="46.16059860841018" lon="13.010815542674871"><ele>248.0</ele><time>2026-04-04T12:56:10.001Z</time></trkpt><trkpt lat="46.16053601886515" lon="13.010753225313739"><ele>248.0</ele><time>2026-04-04T12:56:11.001Z</time></trkpt><trkpt lat="46.16047811753714" lon="13.010697422009985"><ele>248.00000000000003</ele><time>2026-04-04T12:56:12.001Z</time></trkpt><trkpt lat="46.160417061051376" lon="13.010646551223324"><ele>248.0</ele><time>2026-04-04T12:56:14.001Z</time></trkpt><trkpt lat="46.160347904514715" lon="13.010598197609358"><ele>248.0</ele><time>2026-04-04T12:56:17.001Z</time></trkpt><trkpt lat="46.16028043941496" lon="13.010559448641768"><ele>248.00000000000003</ele><time>2026-04-04T12:56:20.002Z</time></trkpt><trkpt lat="46.160213007862176" lon="13.010564707890783"><ele>248.0</ele><time>2026-04-04T12:56:56.002Z</time></trkpt><trkpt lat="46.160137147421125" lon="13.010545158583378"><ele>248.0</ele><time>2026-04-04T12:56:59.002Z</time></trkpt><trkpt lat="46.16003653117803" lon="13.010571301372574"><ele>248.0</ele><time>2026-04-04T12:57:02.002Z</time></trkpt><trkpt lat="46.15996528176826" lon="13.010585036982231"><ele>248.0</ele><time>2026-04-04T12:57:03.002Z</time></trkpt><trkpt lat="46.15987874342583" lon="13.010600267764305"><ele>248.0</ele><time>2026-04-04T12:57:05.002Z</time></trkpt><trkpt lat="46.159874273317755" lon="13.010809082608946"><ele>248.0</ele><time>2026-04-04T12:57:06.001Z</time></trkpt><trkpt lat="46.159899906422524" lon="13.010979073712289"><ele>248.0</ele><time>2026-04-04T12:57:08.001Z</time></trkpt><trkpt lat="46.15992184577103" lon="13.011078815713319"><ele>249.60000000000002</ele><time>2026-04-04T12:57:09.001Z</time></trkpt><trkpt lat="46.15994744167703" lon="13.011226477397381"><ele>251.20000000000002</ele><time>2026-04-04T12:57:11.001Z</time></trkpt><trkpt lat="46.1599666028107" lon="13.011322880183897"><ele>252.8</ele><time>2026-04-04T12:57:13.001Z</time></trkpt><trkpt lat="46.159972861795985" lon="13.01141870901687"><ele>254.4</ele><time>2026-04-04T12:57:15.001Z</time></trkpt><trkpt lat="46.16000044837901" lon="13.011507008006134"><ele>256.0</ele><time>2026-04-04T12:57:18.001Z</time></trkpt><trkpt lat="46.16014519506266" lon="13.011541687899026"><ele>255.99999999999997</ele><time>2026-04-04T12:57:20.001Z</time></trkpt><trkpt lat="46.160205522896966" lon="13.011571960203524"><ele>256.0</ele><time>2026-04-04T12:57:21.001Z</time></trkpt><trkpt lat="46.16033015877764" lon="13.011642162337242"><ele>256.0</ele><time>2026-04-04T12:57:23.001Z</time></trkpt><trkpt lat="46.160377816036856" lon="13.011716463570183"><ele>256.0</ele><time>2026-04-04T12:57:24.001Z</time></trkpt><trkpt lat="46.160439358616074" lon="13.011803021277384"><ele>255.99999999999997</ele><time>2026-04-04T12:57:25.001Z</time></trkpt><trkpt lat="46.16049779761717" lon="13.01190229772397"><ele>256.0</ele><time>2026-04-04T12:57:26.001Z</time></trkpt><trkpt lat="46.16055094891065" lon="13.011986772950982"><ele>256.2</ele><time>2026-04-04T12:57:27.001Z</time></trkpt><trkpt lat="46.16061064034428" lon="13.012031322006385"><ele>256.40000000000003</ele><time>2026-04-04T12:57:28.001Z</time></trkpt><trkpt lat="46.16066828394806" lon="13.012088810313204"><ele>256.6</ele><time>2026-04-04T12:57:29.001Z</time></trkpt><trkpt lat="46.16075222834759" lon="13.01214789910192"><ele>256.8</ele><time>2026-04-04T12:57:30.001Z</time></trkpt><trkpt lat="46.16086763309744" lon="13.01221546374231"><ele>257.0</ele><time>2026-04-04T12:57:32.001Z</time></trkpt><trkpt lat="46.160961474259445" lon="13.012290225681827"><ele>255.50000000000003</ele><time>2026-04-04T12:57:36.001Z</time></trkpt><trkpt lat="46.161071848808646" lon="13.01231499667079"><ele>254.0</ele><time>2026-04-04T12:57:38.001Z</time></trkpt><trkpt lat="46.1611433418904" lon="13.012375906001926"><ele>252.5</ele><time>2026-04-04T12:57:41.001Z</time></trkpt><trkpt lat="46.16120166887888" lon="13.01234153420268"><ele>251.0</ele><time>2026-04-04T12:57:43.001Z</time></trkpt><trkpt lat="46.16127828071685" lon="13.012357320691008"><ele>249.50000000000003</ele><time>2026-04-04T12:57:47.001Z</time></trkpt><trkpt lat="46.16136987291869" lon="13.012363434555816"><ele>248.0</ele><time>2026-04-04T12:57:50.001Z</time></trkpt><trkpt lat="46.16147670455505" lon="13.012401647852874"><ele>247.0</ele><time>2026-04-04T12:57:52.001Z</time></trkpt><trkpt lat="46.16157071242076" lon="13.01246609674581"><ele>246.0</ele><time>2026-04-04T12:57:54.001Z</time></trkpt><trkpt lat="46.16165076160072" lon="13.012523470486006"><ele>245.0</ele><time>2026-04-04T12:57:56.001Z</time></trkpt><trkpt lat="46.161770859115606" lon="13.012607645112473"><ele>244.0</ele><time>2026-04-04T12:57:58.001Z</time></trkpt><trkpt lat="46.16185681333647" lon="13.012705310154297"><ele>243.0</ele><time>2026-04-04T12:57:59.001Z</time></trkpt><trkpt lat="46.161918410999974" lon="13.012809848276031"><ele>243.0</ele><time>2026-04-04T12:58:00.001Z</time></trkpt><trkpt lat="46.161973081250814" lon="13.012908605447778"><ele>243.0</ele><time>2026-04-04T12:58:01.001Z</time></trkpt><trkpt lat="46.16202350595566" lon="13.013009370034801"><ele>243.0</ele><time>2026-04-04T12:58:02.001Z</time></trkpt><trkpt lat="46.162072321586884" lon="13.013107039678289"><ele>243.0</ele><time>2026-04-04T12:58:03.001Z</time></trkpt><trkpt lat="46.16213021623551" lon="13.013191401931891"><ele>243.0</ele><time>2026-04-04T12:58:04.001Z</time></trkpt><trkpt lat="46.16216350305002" lon="13.013296950451378"><ele>243.0</ele><time>2026-04-04T12:58:05.001Z</time></trkpt><trkpt lat="46.16219698522273" lon="13.013394185376725"><ele>243.60000000000002</ele><time>2026-04-04T12:58:06.001Z</time></trkpt><trkpt lat="46.16223664567356" lon="13.013488923704193"><ele>244.20000000000002</ele><time>2026-04-04T12:58:07.001Z</time></trkpt><trkpt lat="46.16228241499032" lon="13.013599678127868"><ele>244.8</ele><time>2026-04-04T12:58:08.001Z</time></trkpt><trkpt lat="46.162337898291575" lon="13.013707199385834"><ele>245.4</ele><time>2026-04-04T12:58:09.001Z</time></trkpt><trkpt lat="46.1624226389682" lon="13.013800880617811"><ele>246.0</ele><time>2026-04-04T12:58:10.001Z</time></trkpt><trkpt lat="46.162473586014826" lon="13.013905041974272"><ele>243.33333333333334</ele><time>2026-04-04T12:58:11.001Z</time></trkpt><trkpt lat="46.162528091146726" lon="13.014004518901485"><ele>240.66666666666669</ele><time>2026-04-04T12:58:12.001Z</time></trkpt><trkpt lat="46.16257851788219" lon="13.014102925032404"><ele>238.0</ele><time>2026-04-04T12:58:13.001Z</time></trkpt><trkpt lat="46.16262721957224" lon="13.014198628953896"><ele>235.33333333333334</ele><time>2026-04-04T12:58:14.001Z</time></trkpt><trkpt lat="46.16267429761383" lon="13.014288248363222"><ele>232.66666666666669</ele><time>2026-04-04T12:58:15.001Z</time></trkpt><trkpt lat="46.16273235724529" lon="13.014377037151403"><ele>230.0</ele><time>2026-04-04T12:58:16.001Z</time></trkpt><trkpt lat="46.162819897062754" lon="13.014457622539416"><ele>230.00000000000003</ele><time>2026-04-04T12:58:17.001Z</time></trkpt><trkpt lat="46.16290573205234" lon="13.014527114965574"><ele>230.0</ele><time>2026-04-04T12:58:18.001Z</time></trkpt><trkpt lat="46.16298279075954" lon="13.014585404279408"><ele>230.0</ele><time>2026-04-04T12:58:19.001Z</time></trkpt><trkpt lat="46.16306602843902" lon="13.014648397301963"><ele>230.0</ele><time>2026-04-04T12:58:20.001Z</time></trkpt><trkpt lat="46.16312269402835" lon="13.014708208368987"><ele>230.00000000000003</ele><time>2026-04-04T12:58:21.001Z</time></trkpt><trkpt lat="46.16319592291013" lon="13.014789836940354"><ele>230.0</ele><time>2026-04-04T12:58:22.001Z</time></trkpt><trkpt lat="46.16324875878743" lon="13.014907977989632"><ele>227.83333333333334</ele><time>2026-04-04T12:58:23.001Z</time></trkpt><trkpt lat="46.16328439894238" lon="13.015034371827397"><ele>225.66666666666669</ele><time>2026-04-04T12:58:24.001Z</time></trkpt><trkpt lat="46.16333170970018" lon="13.015121314245562"><ele>223.5</ele><time>2026-04-04T12:58:25.001Z</time></trkpt><trkpt lat="46.163385624234635" lon="13.015250364245464"><ele>221.33333333333331</ele><time>2026-04-04T12:58:27.001Z</time></trkpt><trkpt lat="46.16341268915534" lon="13.015359747617218"><ele>219.16666666666666</ele><time>2026-04-04T12:59:01.002Z</time></trkpt><trkpt lat="46.163438563762035" lon="13.015444242900903"><ele>217.0</ele><time>2026-04-04T12:59:05.002Z</time></trkpt><trkpt lat="46.163409617264634" lon="13.015326742960681"><ele>217.0</ele><time>2026-04-04T12:59:13.002Z</time></trkpt><trkpt lat="46.163350102746904" lon="13.015188936431365"><ele>217.0</ele><time>2026-04-04T12:59:15.001Z</time></trkpt><trkpt lat="46.16329981436748" lon="13.015117030352972"><ele>217.0</ele><time>2026-04-04T12:59:18.001Z</time></trkpt><trkpt lat="46.16321276142517" lon="13.01524718482062"><ele>217.0</ele><time>2026-04-04T12:59:20.001Z</time></trkpt><trkpt lat="46.16318503376472" lon="13.015372876657707"><ele>217.0</ele><time>2026-04-04T12:59:21.001Z</time></trkpt><trkpt lat="46.16314266343589" lon="13.015513599352461"><ele>220.75</ele><time>2026-04-04T12:59:22.001Z</time></trkpt><trkpt lat="46.16310623699288" lon="13.015651839488427"><ele>224.5</ele><time>2026-04-04T12:59:23.001Z</time></trkpt><trkpt lat="46.16305088635152" lon="13.015797126855688"><ele>228.25</ele><time>2026-04-04T12:59:24.001Z</time></trkpt><trkpt lat="46.162966208861334" lon="13.015955418061568"><ele>232.0</ele><time>2026-04-04T12:59:25.001Z</time></trkpt><trkpt lat="46.162865489731296" lon="13.016138817441503"><ele>233.33333333333331</ele><time>2026-04-04T12:59:26.001Z</time></trkpt><trkpt lat="46.16276812544814" lon="13.01631366823426"><ele>234.66666666666669</ele><time>2026-04-04T12:59:27.001Z</time></trkpt><trkpt lat="46.162670896723775" lon="13.016483737488603"><ele>236.0</ele><time>2026-04-04T12:59:28.001Z</time></trkpt><trkpt lat="46.162575152668836" lon="13.016653929414034"><ele>237.5</ele><time>2026-04-04T12:59:29.001Z</time></trkpt><trkpt lat="46.162488891609854" lon="13.016809825335192"><ele>239.0</ele><time>2026-04-04T12:59:30.001Z</time></trkpt><trkpt lat="46.16242078053422" lon="13.01697093456878"><ele>240.5</ele><time>2026-04-04T12:59:31.001Z</time></trkpt><trkpt lat="46.16233996260094" lon="13.017104280433873"><ele>242.0</ele><time>2026-04-04T12:59:32.001Z</time></trkpt><trkpt lat="46.1622626355742" lon="13.01724245907585"><ele>242.0</ele><time>2026-04-04T12:59:33.001Z</time></trkpt><trkpt lat="46.16217607349543" lon="13.017402847413269"><ele>242.0</ele><time>2026-04-04T12:59:34.001Z</time></trkpt><trkpt lat="46.162077302274064" lon="13.017543815395884"><ele>242.0</ele><time>2026-04-04T12:59:35.001Z</time></trkpt><trkpt lat="46.16200506314808" lon="13.017703049408516"><ele>242.0</ele><time>2026-04-04T12:59:36.001Z</time></trkpt><trkpt lat="46.16192870919172" lon="13.017843461820346"><ele>237.5</ele><time>2026-04-04T12:59:37.001Z</time></trkpt><trkpt lat="46.1618535251602" lon="13.017969374666553"><ele>233.0</ele><time>2026-04-04T12:59:38.001Z</time></trkpt><trkpt lat="46.16175741442616" lon="13.018085404555567"><ele>228.5</ele><time>2026-04-04T12:59:39.001Z</time></trkpt><trkpt lat="46.161644867220765" lon="13.018188268826231"><ele>224.0</ele><time>2026-04-04T12:59:40.001Z</time></trkpt><trkpt lat="46.16152501896843" lon="13.018266649208032"><ele>218.25</ele><time>2026-04-04T12:59:41.001Z</time></trkpt><trkpt lat="46.16138730035106" lon="13.018332353181824"><ele>212.5</ele><time>2026-04-04T12:59:42.001Z</time></trkpt><trkpt lat="46.16125013758638" lon="13.018359566755485"><ele>206.75</ele><time>2026-04-04T12:59:43.001Z</time></trkpt><trkpt lat="46.161128141977684" lon="13.018404441095486"><ele>201.0</ele><time>2026-04-04T12:59:44.001Z</time></trkpt><trkpt lat="46.16101929161171" lon="13.018441241947071"><ele>201.0</ele><time>2026-04-04T12:59:45.001Z</time></trkpt><trkpt lat="46.16092800711564" lon="13.018472750068378"><ele>201.0</ele><time>2026-04-04T12:59:46.001Z</time></trkpt><trkpt lat="46.16084210573964" lon="13.018498127962808"><ele>201.0</ele><time>2026-04-04T12:59:47.001Z</time></trkpt><trkpt lat="46.160754898918334" lon="13.018511861822297"><ele>201.0</ele><time>2026-04-04T12:59:48.001Z</time></trkpt><trkpt lat="46.16066468262744" lon="13.018499560550595"><ele>201.0</ele><time>2026-04-04T12:59:49.001Z</time></trkpt><trkpt lat="46.160577161387614" lon="13.018462611229818"><ele>199.25</ele><time>2026-04-04T12:59:50.001Z</time></trkpt><trkpt lat="46.160479655008785" lon="13.018379151553138"><ele>197.5</ele><time>2026-04-04T12:59:51.001Z</time></trkpt><trkpt lat="46.160384132835986" lon="13.01827791269308"><ele>195.75</ele><time>2026-04-04T12:59:52.001Z</time></trkpt><trkpt lat="46.160266565066294" lon="13.018173282884412"><ele>194.0</ele><time>2026-04-04T12:59:53.001Z</time></trkpt><trkpt lat="46.16017166896496" lon="13.018055060169642"><ele>194.0</ele><time>2026-04-04T12:59:54.001Z</time></trkpt><trkpt lat="46.16008569944166" lon="13.017943547259565"><ele>194.0</ele><time>2026-04-04T12:59:55.001Z</time></trkpt><trkpt lat="46.16001064714174" lon="13.017855457909711"><ele>194.0</ele><time>2026-04-04T12:59:56.001Z</time></trkpt><trkpt lat="46.159942958355835" lon="13.017771709154552"><ele>194.0</ele><time>2026-04-04T12:59:57.001Z</time></trkpt><trkpt lat="46.15989944768446" lon="13.017667244085997"><ele>194.0</ele><time>2026-04-04T12:59:58.001Z</time></trkpt><trkpt lat="46.15986399787174" lon="13.017567128694138"><ele>193.39999999999998</ele><time>2026-04-04T12:59:59.001Z</time></trkpt><trkpt lat="46.15984003948017" lon="13.017471396645952"><ele>192.8</ele><time>2026-04-04T13:00:00.001Z</time></trkpt><trkpt lat="46.15981825711701" lon="13.01732722472424"><ele>192.2</ele><time>2026-04-04T13:00:02.001Z</time></trkpt><trkpt lat="46.159780138362876" lon="13.017226201600726"><ele>191.60000000000002</ele><time>2026-04-04T13:00:04.001Z</time></trkpt><trkpt lat="46.15967724443965" lon="13.017131140119556"><ele>191.0</ele><time>2026-04-04T13:00:06.001Z</time></trkpt><trkpt lat="46.15958584356865" lon="13.017107522860506"><ele>191.0</ele><time>2026-04-04T13:00:07.001Z</time></trkpt><trkpt lat="46.159468279969424" lon="13.017072077842558"><ele>191.0</ele><time>2026-04-04T13:00:08.001Z</time></trkpt><trkpt lat="46.15935913716636" lon="13.0170369350102"><ele>191.0</ele><time>2026-04-04T13:00:09.001Z</time></trkpt><trkpt lat="46.15926774438421" lon="13.017002534166943"><ele>191.0</ele><time>2026-04-04T13:00:10.001Z</time></trkpt><trkpt lat="46.15917822095651" lon="13.016983213464059"><ele>191.0</ele><time>2026-04-04T13:00:11.001Z</time></trkpt><trkpt lat="46.159085766887095" lon="13.016927619952117"><ele>190.20000000000002</ele><time>2026-04-04T13:00:12.001Z</time></trkpt><trkpt lat="46.15899738718154" lon="13.016859149593895"><ele>189.4</ele><time>2026-04-04T13:00:13.001Z</time></trkpt><trkpt lat="46.15891735378592" lon="13.016773035011509"><ele>188.6</ele><time>2026-04-04T13:00:14.001Z</time></trkpt><trkpt lat="46.15883813232775" lon="13.016715770720516"><ele>187.8</ele><time>2026-04-04T13:00:15.001Z</time></trkpt><trkpt lat="46.158747276142975" lon="13.016652562459308"><ele>187.0</ele><time>2026-04-04T13:00:16.001Z</time></trkpt><trkpt lat="46.15867434994114" lon="13.016601828051792"><ele>187.0</ele><time>2026-04-04T13:00:17.001Z</time></trkpt><trkpt lat="46.158615236689094" lon="13.016558612080821"><ele>187.0</ele><time>2026-04-04T13:00:18.001Z</time></trkpt><trkpt lat="46.15852764411422" lon="13.016491165325947"><ele>187.0</ele><time>2026-04-04T13:00:20.001Z</time></trkpt><trkpt lat="46.15845462498555" lon="13.016432820054327"><ele>187.0</ele><time>2026-04-04T13:00:22.001Z</time></trkpt><trkpt lat="46.1583915548035" lon="13.016379427652685"><ele>187.0</ele><time>2026-04-04T13:00:23.001Z</time></trkpt><trkpt lat="46.15830341955044" lon="13.0162975991274"><ele>187.0</ele><time>2026-04-04T13:00:24.001Z</time></trkpt><trkpt lat="46.15819081754613" lon="13.016188851201628"><ele>186.0</ele><time>2026-04-04T13:00:25.001Z</time></trkpt><trkpt lat="46.1580689958134" lon="13.016058872078338"><ele>185.0</ele><time>2026-04-04T13:00:26.001Z</time></trkpt><trkpt lat="46.1579525771441" lon="13.015922287897103"><ele>184.0</ele><time>2026-04-04T13:00:27.001Z</time></trkpt><trkpt lat="46.15782953944995" lon="13.0157583777904"><ele>184.0</ele><time>2026-04-04T13:00:28.001Z</time></trkpt><trkpt lat="46.15771001308324" lon="13.015599223833338"><ele>184.0</ele><time>2026-04-04T13:00:29.001Z</time></trkpt><trkpt lat="46.157602642651234" lon="13.015458058119489"><ele>184.0</ele><time>2026-04-04T13:00:30.001Z</time></trkpt><trkpt lat="46.1574984209033" lon="13.015318790530966"><ele>184.0</ele><time>2026-04-04T13:00:31.001Z</time></trkpt><trkpt lat="46.1574034720586" lon="13.015191465664799"><ele>184.0</ele><time>2026-04-04T13:00:32.001Z</time></trkpt><trkpt lat="46.1573194589527" lon="13.015067583741946"><ele>184.0</ele><time>2026-04-04T13:00:33.001Z</time></trkpt><trkpt lat="46.15724860287781" lon="13.014918838647548"><ele>184.0</ele><time>2026-04-04T13:00:34.001Z</time></trkpt><trkpt lat="46.15718658467201" lon="13.01473755815462"><ele>184.0</ele><time>2026-04-04T13:00:35.001Z</time></trkpt><trkpt lat="46.157111106214586" lon="13.014576562590074"><ele>184.0</ele><time>2026-04-04T13:00:36.001Z</time></trkpt><trkpt lat="46.15701053830106" lon="13.014428590741272"><ele>184.0</ele><time>2026-04-04T13:00:37.001Z</time></trkpt><trkpt lat="46.156890342512" lon="13.014300334004998"><ele>184.0</ele><time>2026-04-04T13:00:38.001Z</time></trkpt><trkpt lat="46.1567665644309" lon="13.014190172280575"><ele>184.6</ele><time>2026-04-04T13:00:39.001Z</time></trkpt><trkpt lat="46.15664241843885" lon="13.014082938724075"><ele>185.2</ele><time>2026-04-04T13:00:40.001Z</time></trkpt><trkpt lat="46.15654686927173" lon="13.014016504202026"><ele>185.79999999999998</ele><time>2026-04-04T13:00:41.001Z</time></trkpt><trkpt lat="46.15646948150117" lon="13.013971508517399"><ele>186.39999999999998</ele><time>2026-04-04T13:00:42.001Z</time></trkpt><trkpt lat="46.15640768014969" lon="13.0139402168788"><ele>187.0</ele><time>2026-04-04T13:00:43.001Z</time></trkpt><trkpt lat="46.15632487389633" lon="13.013904023858851"><ele>187.0</ele><time>2026-04-04T13:00:45.001Z</time></trkpt><trkpt lat="46.15624868385008" lon="13.013879626176605"><ele>187.0</ele><time>2026-04-04T13:00:57.001Z</time></trkpt><trkpt lat="46.15616521185333" lon="13.013853500994083"><ele>187.0</ele><time>2026-04-04T13:00:59.001Z</time></trkpt><trkpt lat="46.15608755568277" lon="13.013951044236887"><ele>187.0</ele><time>2026-04-04T13:01:02.001Z</time></trkpt><trkpt lat="46.156084306748404" lon="13.014060698424554"><ele>187.0</ele><time>2026-04-04T13:01:03.001Z</time></trkpt><trkpt lat="46.15607326815993" lon="13.014209932228022"><ele>187.0</ele><time>2026-04-04T13:01:04.001Z</time></trkpt><trkpt lat="46.15608632840899" lon="13.014373509312847"><ele>187.2</ele><time>2026-04-04T13:01:05.001Z</time></trkpt><trkpt lat="46.15606650135105" lon="13.014518394268649"><ele>187.39999999999998</ele><time>2026-04-04T13:01:06.001Z</time></trkpt><trkpt lat="46.156060512903736" lon="13.014665680403194"><ele>187.60000000000002</ele><time>2026-04-04T13:01:07.002Z</time></trkpt><trkpt lat="46.156067018131466" lon="13.014809320663305"><ele>187.8</ele><time>2026-04-04T13:01:08.002Z</time></trkpt><trkpt lat="46.156059296924724" lon="13.014942633927044"><ele>188.0</ele><time>2026-04-04T13:01:09.002Z</time></trkpt><trkpt lat="46.15604651089759" lon="13.015080071596453"><ele>188.60000000000002</ele><time>2026-04-04T13:01:10.002Z</time></trkpt><trkpt lat="46.15606089911685" lon="13.015233214009477"><ele>189.20000000000002</ele><time>2026-04-04T13:01:11.002Z</time></trkpt><trkpt lat="46.156085365736914" lon="13.015383930164456"><ele>189.8</ele><time>2026-04-04T13:01:12.001Z</time></trkpt><trkpt lat="46.15609600732732" lon="13.015524976859316"><ele>190.4</ele><time>2026-04-04T13:01:13.001Z</time></trkpt><trkpt lat="46.15614420391754" lon="13.015683899459411"><ele>191.0</ele><time>2026-04-04T13:01:14.001Z</time></trkpt><trkpt lat="46.156175259745844" lon="13.015885408630577"><ele>191.0</ele><time>2026-04-04T13:01:15.001Z</time></trkpt><trkpt lat="46.156190074715134" lon="13.016038836636524"><ele>191.0</ele><time>2026-04-04T13:01:16.001Z</time></trkpt><trkpt lat="46.15621367683812" lon="13.016166379885009"><ele>191.0</ele><time>2026-04-04T13:01:17.001Z</time></trkpt><trkpt lat="46.15622586856751" lon="13.016285793702728"><ele>191.0</ele><time>2026-04-04T13:01:18.001Z</time></trkpt><trkpt lat="46.15623845069896" lon="13.016403593351246"><ele>191.0</ele><time>2026-04-04T13:01:19.001Z</time></trkpt><trkpt lat="46.15624983705871" lon="13.016521145557421"><ele>191.0</ele><time>2026-04-04T13:01:20.001Z</time></trkpt><trkpt lat="46.15625803193099" lon="13.016649227336066"><ele>189.60000000000002</ele><time>2026-04-04T13:01:21.001Z</time></trkpt><trkpt lat="46.15627083347266" lon="13.016798836724382"><ele>188.2</ele><time>2026-04-04T13:01:22.001Z</time></trkpt><trkpt lat="46.15628239593655" lon="13.016956368131869"><ele>186.8</ele><time>2026-04-04T13:01:23.001Z</time></trkpt><trkpt lat="46.156307776291094" lon="13.017108997821722"><ele>185.39999999999998</ele><time>2026-04-04T13:01:24.001Z</time></trkpt><trkpt lat="46.156373743692775" lon="13.017250761440856"><ele>184.0</ele><time>2026-04-04T13:01:25.001Z</time></trkpt><trkpt lat="46.15642302441217" lon="13.017374423792688"><ele>182.25</ele><time>2026-04-04T13:01:26Z</time></trkpt><trkpt lat="46.15649230938493" lon="13.017486090618203"><ele>180.5</ele><time>2026-04-04T13:01:27Z</time></trkpt><trkpt lat="46.15656726390582" lon="13.017581741473332"><ele>178.75</ele><time>2026-04-04T13:01:28Z</time></trkpt><trkpt lat="46.15667310626576" lon="13.017685260756641"><ele>177.0</ele><time>2026-04-04T13:01:29Z</time></trkpt><trkpt lat="46.15678529174253" lon="13.01779915096455"><ele>176.5</ele><time>2026-04-04T13:01:30Z</time></trkpt><trkpt lat="46.156890532621205" lon="13.017908991066152"><ele>176.0</ele><time>2026-04-04T13:01:31Z</time></trkpt><trkpt lat="46.15697167057909" lon="13.018033537844902"><ele>175.5</ele><time>2026-04-04T13:01:32Z</time></trkpt><trkpt lat="46.157051210921615" lon="13.01815779951007"><ele>175.0</ele><time>2026-04-04T13:01:33Z</time></trkpt><trkpt lat="46.157112803553915" lon="13.018285900906612"><ele>173.6</ele><time>2026-04-04T13:01:34Z</time></trkpt><trkpt lat="46.15716089306613" lon="13.018411762764048"><ele>172.2</ele><time>2026-04-04T13:01:35Z</time></trkpt><trkpt lat="46.15716348017107" lon="13.01855189077151"><ele>170.8</ele><time>2026-04-04T13:01:36Z</time></trkpt><trkpt lat="46.1571755541076" lon="13.018711995250687"><ele>169.4</ele><time>2026-04-04T13:01:37Z</time></trkpt><trkpt lat="46.15717869792366" lon="13.018877944000401"><ele>168.0</ele><time>2026-04-04T13:01:38Z</time></trkpt><trkpt lat="46.157175422306324" lon="13.019059341831847"><ele>167.0</ele><time>2026-04-04T13:01:39Z</time></trkpt><trkpt lat="46.1571628942428" lon="13.019237422111962"><ele>166.0</ele><time>2026-04-04T13:01:40Z</time></trkpt><trkpt lat="46.15714395929584" lon="13.01941825959747"><ele>165.0</ele><time>2026-04-04T13:01:41Z</time></trkpt><trkpt lat="46.15711684546846" lon="13.019605262719319"><ele>164.0</ele><time>2026-04-04T13:01:42Z</time></trkpt><trkpt lat="46.15708576120299" lon="13.019789091058337"><ele>164.0</ele><time>2026-04-04T13:01:43Z</time></trkpt><trkpt lat="46.15704969588568" lon="13.01995627611118"><ele>164.0</ele><time>2026-04-04T13:01:44Z</time></trkpt><trkpt lat="46.15700555415953" lon="13.020120360962679"><ele>164.0</ele><time>2026-04-04T13:01:45Z</time></trkpt><trkpt lat="46.156947213454146" lon="13.020288727417132"><ele>164.0</ele><time>2026-04-04T13:01:46Z</time></trkpt><trkpt lat="46.15687958754044" lon="13.020447859017116"><ele>165.66666666666666</ele><time>2026-04-04T13:01:47Z</time></trkpt><trkpt lat="46.15677987754317" lon="13.020606936616696"><ele>167.33333333333334</ele><time>2026-04-04T13:01:48Z</time></trkpt><trkpt lat="46.15666209294076" lon="13.020747337866421"><ele>169.0</ele><time>2026-04-04T13:01:49Z</time></trkpt><trkpt lat="46.15654476906276" lon="13.02088118235138"><ele>173.66666666666669</ele><time>2026-04-04T13:01:50Z</time></trkpt><trkpt lat="46.156415166506434" lon="13.020988061008692"><ele>178.33333333333334</ele><time>2026-04-04T13:01:51Z</time></trkpt><trkpt lat="46.15629230618579" lon="13.021105236409987"><ele>183.0</ele><time>2026-04-04T13:01:52Z</time></trkpt><trkpt lat="46.15617961685389" lon="13.021270793705781"><ele>183.0</ele><time>2026-04-04T13:01:53Z</time></trkpt><trkpt lat="46.15607691708432" lon="13.021450237732996"><ele>183.0</ele><time>2026-04-04T13:01:54Z</time></trkpt><trkpt lat="46.15598904964273" lon="13.021620636849285"><ele>183.0</ele><time>2026-04-04T13:01:55Z</time></trkpt><trkpt lat="46.155899380392476" lon="13.021803773301563"><ele>183.66666666666666</ele><time>2026-04-04T13:01:56Z</time></trkpt><trkpt lat="46.155789829132424" lon="13.0220290165744"><ele>184.33333333333331</ele><time>2026-04-04T13:01:57Z</time></trkpt><trkpt lat="46.15569561654035" lon="13.022261158792206"><ele>185.0</ele><time>2026-04-04T13:01:58Z</time></trkpt><trkpt lat="46.15559525845228" lon="13.022454591291988"><ele>183.75</ele><time>2026-04-04T13:01:59Z</time></trkpt><trkpt lat="46.155500443614436" lon="13.022614692825782"><ele>182.5</ele><time>2026-04-04T13:02:00Z</time></trkpt><trkpt lat="46.15541584658238" lon="13.022785760492335"><ele>181.25</ele><time>2026-04-04T13:02:01Z</time></trkpt><trkpt lat="46.15532458200982" lon="13.022970311380986"><ele>180.0</ele><time>2026-04-04T13:02:02Z</time></trkpt><trkpt lat="46.15522344266217" lon="13.023178772314765"><ele>179.0</ele><time>2026-04-04T13:02:03Z</time></trkpt><trkpt lat="46.1551318550552" lon="13.023391725076534"><ele>178.0</ele><time>2026-04-04T13:02:04Z</time></trkpt><trkpt lat="46.155035091109156" lon="13.023630436525268"><ele>177.0</ele><time>2026-04-04T13:02:05Z</time></trkpt><trkpt lat="46.15494338593055" lon="13.02386134589976"><ele>177.0</ele><time>2026-04-04T13:02:06Z</time></trkpt><trkpt lat="46.154856558517324" lon="13.024088260912293"><ele>177.0</ele><time>2026-04-04T13:02:07Z</time></trkpt><trkpt lat="46.15475788828009" lon="13.024340097089961"><ele>177.0</ele><time>2026-04-04T13:02:08Z</time></trkpt><trkpt lat="46.15466103264804" lon="13.024586478980822"><ele>177.0</ele><time>2026-04-04T13:02:09Z</time></trkpt><trkpt lat="46.15456850235511" lon="13.02482073520012"><ele>177.0</ele><time>2026-04-04T13:02:10Z</time></trkpt><trkpt lat="46.154480911659526" lon="13.025042486786123"><ele>177.0</ele><time>2026-04-04T13:02:11Z</time></trkpt><trkpt lat="46.15439704508009" lon="13.02525480939116"><ele>177.0</ele><time>2026-04-04T13:02:12Z</time></trkpt><trkpt lat="46.15431448195418" lon="13.02546958771491"><ele>177.0</ele><time>2026-04-04T13:02:13Z</time></trkpt><trkpt lat="46.15423378777456" lon="13.025698892486265"><ele>177.0</ele><time>2026-04-04T13:02:14.001Z</time></trkpt><trkpt lat="46.154162047472816" lon="13.02593572237313"><ele>176.0</ele><time>2026-04-04T13:02:15.001Z</time></trkpt><trkpt lat="46.154112120761596" lon="13.026191309700327"><ele>175.0</ele><time>2026-04-04T13:02:16.001Z</time></trkpt><trkpt lat="46.154047093264964" lon="13.02643265041813"><ele>174.0</ele><time>2026-04-04T13:02:17.001Z</time></trkpt><trkpt lat="46.15398492336963" lon="13.026682713574804"><ele>172.66666666666666</ele><time>2026-04-04T13:02:18.001Z</time></trkpt><trkpt lat="46.15389793631967" lon="13.026921712558297"><ele>171.33333333333331</ele><time>2026-04-04T13:02:19.001Z</time></trkpt><trkpt lat="46.15381312665339" lon="13.02716340892497"><ele>170.0</ele><time>2026-04-04T13:02:20.001Z</time></trkpt><trkpt lat="46.153712733651474" lon="13.027401659464797"><ele>169.0</ele><time>2026-04-04T13:02:21.001Z</time></trkpt><trkpt lat="46.15360557135794" lon="13.02763788002473"><ele>168.0</ele><time>2026-04-04T13:02:22.001Z</time></trkpt><trkpt lat="46.15350967722805" lon="13.027890913687155"><ele>167.0</ele><time>2026-04-04T13:02:23.001Z</time></trkpt><trkpt lat="46.15340011935277" lon="13.028126499565893"><ele>167.33333333333331</ele><time>2026-04-04T13:02:24.001Z</time></trkpt><trkpt lat="46.15329886204885" lon="13.028364315114615"><ele>167.66666666666666</ele><time>2026-04-04T13:02:25.001Z</time></trkpt><trkpt lat="46.153185957491715" lon="13.028582831178431"><ele>168.0</ele><time>2026-04-04T13:02:26.001Z</time></trkpt><trkpt lat="46.153097571250804" lon="13.028814053043293"><ele>168.0</ele><time>2026-04-04T13:02:27.001Z</time></trkpt><trkpt lat="46.153025297811524" lon="13.029043052274416"><ele>168.0</ele><time>2026-04-04T13:02:28.001Z</time></trkpt><trkpt lat="46.152964509920636" lon="13.029280143315178"><ele>168.0</ele><time>2026-04-04T13:02:29.001Z</time></trkpt><trkpt lat="46.15292598971152" lon="13.029535187836093"><ele>167.33333333333334</ele><time>2026-04-04T13:02:30.001Z</time></trkpt><trkpt lat="46.15286213792575" lon="13.0297823006371"><ele>166.66666666666669</ele><time>2026-04-04T13:02:31.001Z</time></trkpt><trkpt lat="46.152816399860185" lon="13.030040283893511"><ele>166.0</ele><time>2026-04-04T13:02:32.001Z</time></trkpt><trkpt lat="46.15277184559878" lon="13.030296076012231"><ele>166.0</ele><time>2026-04-04T13:02:33.001Z</time></trkpt><trkpt lat="46.15272966029302" lon="13.030550008088047"><ele>166.0</ele><time>2026-04-04T13:02:34.001Z</time></trkpt><trkpt lat="46.15269463725893" lon="13.030804788916749"><ele>166.0</ele><time>2026-04-04T13:02:35.001Z</time></trkpt><trkpt lat="46.15268527931091" lon="13.031060145242536"><ele>166.0</ele><time>2026-04-04T13:02:36.001Z</time></trkpt><trkpt lat="46.1526810479884" lon="13.031318110308543"><ele>166.0</ele><time>2026-04-04T13:02:37.001Z</time></trkpt><trkpt lat="46.15269844395307" lon="13.031567762756419"><ele>166.0</ele><time>2026-04-04T13:02:38.001Z</time></trkpt><trkpt lat="46.15273345259097" lon="13.031822210420943"><ele>165.66666666666669</ele><time>2026-04-04T13:02:39.001Z</time></trkpt><trkpt lat="46.152789214717004" lon="13.032081669068084"><ele>165.33333333333334</ele><time>2026-04-04T13:02:40.001Z</time></trkpt><trkpt lat="46.15285899285147" lon="13.03234595687434"><ele>165.0</ele><time>2026-04-04T13:02:41.001Z</time></trkpt><trkpt lat="46.152933084781765" lon="13.03261791640122"><ele>164.33333333333334</ele><time>2026-04-04T13:02:42.001Z</time></trkpt><trkpt lat="46.15299389559831" lon="13.03287725339691"><ele>163.66666666666669</ele><time>2026-04-04T13:02:43.001Z</time></trkpt><trkpt lat="46.153042361121955" lon="13.033129833955192"><ele>163.0</ele><time>2026-04-04T13:02:44.001Z</time></trkpt><trkpt lat="46.1530556955898" lon="13.033380751807268"><ele>162.0</ele><time>2026-04-04T13:02:45.001Z</time></trkpt><trkpt lat="46.153063913237105" lon="13.033636594764003"><ele>161.0</ele><time>2026-04-04T13:02:46.001Z</time></trkpt><trkpt lat="46.153061526366116" lon="13.033895556954148"><ele>160.0</ele><time>2026-04-04T13:02:47.001Z</time></trkpt><trkpt lat="46.15305393919059" lon="13.034158700066364"><ele>158.66666666666669</ele><time>2026-04-04T13:02:48.001Z</time></trkpt><trkpt lat="46.15304511632551" lon="13.034430081090214"><ele>157.33333333333334</ele><time>2026-04-04T13:02:49.001Z</time></trkpt><trkpt lat="46.15303604086506" lon="13.034705451545276"><ele>156.0</ele><time>2026-04-04T13:02:50.001Z</time></trkpt><trkpt lat="46.153026141561575" lon="13.034986022695728"><ele>155.66666666666666</ele><time>2026-04-04T13:02:51.001Z</time></trkpt><trkpt lat="46.15301421622562" lon="13.035270166561906"><ele>155.33333333333331</ele><time>2026-04-04T13:02:52.001Z</time></trkpt><trkpt lat="46.15299396023112" lon="13.035553060813399"><ele>155.0</ele><time>2026-04-04T13:02:53.001Z</time></trkpt><trkpt lat="46.15297178460965" lon="13.035833155309215"><ele>155.66666666666666</ele><time>2026-04-04T13:02:54.001Z</time></trkpt><trkpt lat="46.15294922275017" lon="13.036117470885166"><ele>156.33333333333334</ele><time>2026-04-04T13:02:55.001Z</time></trkpt><trkpt lat="46.15293981989057" lon="13.036423494066199"><ele>157.0</ele><time>2026-04-04T13:02:56.001Z</time></trkpt><trkpt lat="46.15291129430025" lon="13.036740096477558"><ele>158.33333333333334</ele><time>2026-04-04T13:02:57.001Z</time></trkpt><trkpt lat="46.152885267160535" lon="13.03706091906555"><ele>159.66666666666666</ele><time>2026-04-04T13:02:58.001Z</time></trkpt><trkpt lat="46.1528587474879" lon="13.037377756220456"><ele>161.0</ele><time>2026-04-04T13:02:59.001Z</time></trkpt><trkpt lat="46.15283393758697" lon="13.03766693932189"><ele>162.0</ele><time>2026-04-04T13:03:00.001Z</time></trkpt><trkpt lat="46.1528117462353" lon="13.037937575745635"><ele>163.0</ele><time>2026-04-04T13:03:01.001Z</time></trkpt><trkpt lat="46.15279205329853" lon="13.038200063205373"><ele>164.0</ele><time>2026-04-04T13:03:02.001Z</time></trkpt><trkpt lat="46.152773545563505" lon="13.03845572384611"><ele>165.33333333333331</ele><time>2026-04-04T13:03:03.001Z</time></trkpt><trkpt lat="46.152745512476145" lon="13.038692625700227"><ele>166.66666666666666</ele><time>2026-04-04T13:03:04.001Z</time></trkpt><trkpt lat="46.1527638581377" lon="13.038915065398466"><ele>168.0</ele><time>2026-04-04T13:03:05.001Z</time></trkpt><trkpt lat="46.152780522113616" lon="13.039132443310217"><ele>168.33333333333334</ele><time>2026-04-04T13:03:06.001Z</time></trkpt><trkpt lat="46.15282121560444" lon="13.039354290992444"><ele>168.66666666666669</ele><time>2026-04-04T13:03:07.001Z</time></trkpt><trkpt lat="46.152879727662835" lon="13.039583378890125"><ele>169.0</ele><time>2026-04-04T13:03:08.001Z</time></trkpt><trkpt lat="46.15293293040159" lon="13.039815358676103"><ele>170.66666666666669</ele><time>2026-04-04T13:03:09.001Z</time></trkpt><trkpt lat="46.15299277507444" lon="13.040035156960013"><ele>172.33333333333334</ele><time>2026-04-04T13:03:10.001Z</time></trkpt><trkpt lat="46.15304123420013" lon="13.04024263261368"><ele>174.0</ele><time>2026-04-04T13:03:11.001Z</time></trkpt><trkpt lat="46.15306555993118" lon="13.040449131502301"><ele>174.0</ele><time>2026-04-04T13:03:12.001Z</time></trkpt><trkpt lat="46.15306465943534" lon="13.040637934354246"><ele>174.0</ele><time>2026-04-04T13:03:13.001Z</time></trkpt><trkpt lat="46.153038025757915" lon="13.040831162460087"><ele>174.0</ele><time>2026-04-04T13:03:14.001Z</time></trkpt><trkpt lat="46.15299576429116" lon="13.041028189191026"><ele>174.0</ele><time>2026-04-04T13:03:15.001Z</time></trkpt><trkpt lat="46.15292328440354" lon="13.041198733824604"><ele>176.25</ele><time>2026-04-04T13:03:16.001Z</time></trkpt><trkpt lat="46.15283297188243" lon="13.041363456739804"><ele>178.5</ele><time>2026-04-04T13:03:17.001Z</time></trkpt><trkpt lat="46.1527260485929" lon="13.041501448268429"><ele>180.75</ele><time>2026-04-04T13:03:18Z</time></trkpt><trkpt lat="46.15260277062063" lon="13.041601120377441"><ele>183.0</ele><time>2026-04-04T13:03:19Z</time></trkpt><trkpt lat="46.15248203635557" lon="13.041665715306804"><ele>184.0</ele><time>2026-04-04T13:03:20Z</time></trkpt><trkpt lat="46.152331612277585" lon="13.041707572431106"><ele>185.0</ele><time>2026-04-04T13:03:21Z</time></trkpt><trkpt lat="46.15215637536382" lon="13.041734921163277"><ele>186.0</ele><time>2026-04-04T13:03:22Z</time></trkpt><trkpt lat="46.15196113174607" lon="13.041761695879696"><ele>186.0</ele><time>2026-04-04T13:03:23Z</time></trkpt><trkpt lat="46.151759652417695" lon="13.041797752475707"><ele>186.0</ele><time>2026-04-04T13:03:24Z</time></trkpt><trkpt lat="46.15157632177508" lon="13.04187316317572"><ele>186.0</ele><time>2026-04-04T13:03:25Z</time></trkpt><trkpt lat="46.15140274314321" lon="13.041946100228172"><ele>186.66666666666666</ele><time>2026-04-04T13:03:26Z</time></trkpt><trkpt lat="46.151203555900366" lon="13.042032709545795"><ele>187.33333333333331</ele><time>2026-04-04T13:03:27Z</time></trkpt><trkpt lat="46.15100898250439" lon="13.042165331725013"><ele>188.0</ele><time>2026-04-04T13:03:28Z</time></trkpt><trkpt lat="46.150809030146235" lon="13.042294033180534"><ele>188.33333333333331</ele><time>2026-04-04T13:03:29Z</time></trkpt><trkpt lat="46.150616503826164" lon="13.042413246827385"><ele>188.66666666666666</ele><time>2026-04-04T13:03:30Z</time></trkpt><trkpt lat="46.1504423616965" lon="13.042538410839693"><ele>189.0</ele><time>2026-04-04T13:03:31Z</time></trkpt><trkpt lat="46.15027450992656" lon="13.042669410839599"><ele>189.0</ele><time>2026-04-04T13:03:32Z</time></trkpt><trkpt lat="46.15010850432863" lon="13.042821566579782"><ele>189.0</ele><time>2026-04-04T13:03:33Z</time></trkpt><trkpt lat="46.14994007933573" lon="13.042985869725554"><ele>189.0</ele><time>2026-04-04T13:03:34Z</time></trkpt><trkpt lat="46.14976923431088" lon="13.043156979275691"><ele>189.33333333333334</ele><time>2026-04-04T13:03:35Z</time></trkpt><trkpt lat="46.14961018353139" lon="13.043339034507438"><ele>189.66666666666669</ele><time>2026-04-04T13:03:36Z</time></trkpt><trkpt lat="46.149454593483334" lon="13.043536888069385"><ele>190.0</ele><time>2026-04-04T13:03:37Z</time></trkpt><trkpt lat="46.14930888384082" lon="13.043744436729337"><ele>190.0</ele><time>2026-04-04T13:03:38Z</time></trkpt><trkpt lat="46.14915927887821" lon="13.043954025750251"><ele>190.0</ele><time>2026-04-04T13:03:39Z</time></trkpt><trkpt lat="46.14901353761534" lon="13.04414853314534"><ele>190.0</ele><time>2026-04-04T13:03:40Z</time></trkpt><trkpt lat="46.1488665000588" lon="13.04435006739162"><ele>190.66666666666669</ele><time>2026-04-04T13:03:41Z</time></trkpt><trkpt lat="46.14872346896744" lon="13.044541497004113"><ele>191.33333333333334</ele><time>2026-04-04T13:03:42Z</time></trkpt><trkpt lat="46.14858385064745" lon="13.04472820737423"><ele>192.0</ele><time>2026-04-04T13:03:43Z</time></trkpt><trkpt lat="46.14845115554516" lon="13.044906890922059"><ele>192.33333333333331</ele><time>2026-04-04T13:03:44Z</time></trkpt><trkpt lat="46.14831834891363" lon="13.045089010667125"><ele>192.66666666666666</ele><time>2026-04-04T13:03:45Z</time></trkpt><trkpt lat="46.14817119748014" lon="13.045254921859016"><ele>193.0</ele><time>2026-04-04T13:03:46Z</time></trkpt><trkpt lat="46.148034305810114" lon="13.045438300423143"><ele>193.0</ele><time>2026-04-04T13:03:47Z</time></trkpt><trkpt lat="46.14789689602971" lon="13.045621936134722"><ele>193.0</ele><time>2026-04-04T13:03:48Z</time></trkpt><trkpt lat="46.14776144092754" lon="13.04580241860028"><ele>193.0</ele><time>2026-04-04T13:03:49Z</time></trkpt><trkpt lat="46.147637653028845" lon="13.045994722645737"><ele>193.0</ele><time>2026-04-04T13:03:50Z</time></trkpt><trkpt lat="46.14749414374052" lon="13.046148845703675"><ele>193.0</ele><time>2026-04-04T13:03:51Z</time></trkpt><trkpt lat="46.147353929795145" lon="13.046295889684483"><ele>193.0</ele><time>2026-04-04T13:03:52Z</time></trkpt><trkpt lat="46.14720799905909" lon="13.046438689447436"><ele>193.33333333333331</ele><time>2026-04-04T13:03:53Z</time></trkpt><trkpt lat="46.14705744045308" lon="13.046579164334096"><ele>193.66666666666669</ele><time>2026-04-04T13:03:54Z</time></trkpt><trkpt lat="46.14691114512489" lon="13.046719129131263"><ele>194.0</ele><time>2026-04-04T13:03:55Z</time></trkpt><trkpt lat="46.14676434016741" lon="13.046866916733403"><ele>194.0</ele><time>2026-04-04T13:03:56Z</time></trkpt><trkpt lat="46.146631330917984" lon="13.047046637830663"><ele>194.0</ele><time>2026-04-04T13:03:57Z</time></trkpt><trkpt lat="46.146493736348326" lon="13.047228074904984"><ele>194.0</ele><time>2026-04-04T13:03:58Z</time></trkpt><trkpt lat="46.14635679274138" lon="13.047416006361054"><ele>194.66666666666669</ele><time>2026-04-04T13:03:59Z</time></trkpt><trkpt lat="46.14621270330228" lon="13.04760691640255"><ele>195.33333333333331</ele><time>2026-04-04T13:04:00Z</time></trkpt><trkpt lat="46.14607269058436" lon="13.047807522795054"><ele>196.0</ele><time>2026-04-04T13:04:01Z</time></trkpt><trkpt lat="46.14593871779945" lon="13.04801261474004"><ele>196.0</ele><time>2026-04-04T13:04:02Z</time></trkpt><trkpt lat="46.14580942952751" lon="13.048189196206982"><ele>196.0</ele><time>2026-04-04T13:04:03Z</time></trkpt><trkpt lat="46.1456889660928" lon="13.048357625199626"><ele>196.0</ele><time>2026-04-04T13:04:04Z</time></trkpt><trkpt lat="46.145571302196295" lon="13.04853593076728"><ele>196.33333333333331</ele><time>2026-04-04T13:04:05Z</time></trkpt><trkpt lat="46.14543552536746" lon="13.048700449478392"><ele>196.66666666666669</ele><time>2026-04-04T13:04:06Z</time></trkpt><trkpt lat="46.145307198616386" lon="13.04888348715484"><ele>197.0</ele><time>2026-04-04T13:04:07Z</time></trkpt><trkpt lat="46.145186250821126" lon="13.049089732954418"><ele>197.0</ele><time>2026-04-04T13:04:08Z</time></trkpt><trkpt lat="46.14504841277551" lon="13.049254634190984"><ele>197.0</ele><time>2026-04-04T13:04:09Z</time></trkpt><trkpt lat="46.14494119472931" lon="13.04944213389939"><ele>197.0</ele><time>2026-04-04T13:04:10Z</time></trkpt><trkpt lat="46.14481589601311" lon="13.049590088540516"><ele>197.66666666666669</ele><time>2026-04-04T13:04:11Z</time></trkpt><trkpt lat="46.144710102537154" lon="13.049736516046268"><ele>198.33333333333331</ele><time>2026-04-04T13:04:12Z</time></trkpt><trkpt lat="46.14459156397138" lon="13.049875114447312"><ele>199.0</ele><time>2026-04-04T13:04:13Z</time></trkpt><trkpt lat="46.144458375376814" lon="13.050005791425734"><ele>199.0</ele><time>2026-04-04T13:04:14Z</time></trkpt><trkpt lat="46.14430982592768" lon="13.050128318399551"><ele>199.0</ele><time>2026-04-04T13:04:15Z</time></trkpt><trkpt lat="46.14415842128605" lon="13.05026428338376"><ele>199.0</ele><time>2026-04-04T13:04:16Z</time></trkpt><trkpt lat="46.14399575584095" lon="13.050358170490115"><ele>199.33333333333331</ele><time>2026-04-04T13:04:17Z</time></trkpt><trkpt lat="46.14383657942395" lon="13.050418599815446"><ele>199.66666666666669</ele><time>2026-04-04T13:04:18Z</time></trkpt><trkpt lat="46.14366049791083" lon="13.050468172594554"><ele>200.0</ele><time>2026-04-04T13:04:19Z</time></trkpt><trkpt lat="46.14347934141103" lon="13.050516122306023"><ele>200.0</ele><time>2026-04-04T13:04:20Z</time></trkpt><trkpt lat="46.14330433371775" lon="13.050574581314963"><ele>200.0</ele><time>2026-04-04T13:04:21Z</time></trkpt><trkpt lat="46.143123017284125" lon="13.05062379110118"><ele>200.0</ele><time>2026-04-04T13:04:22Z</time></trkpt><trkpt lat="46.14295068220859" lon="13.050751192803636"><ele>200.66666666666669</ele><time>2026-04-04T13:04:23Z</time></trkpt><trkpt lat="46.14277250777327" lon="13.050875020125758"><ele>201.33333333333331</ele><time>2026-04-04T13:04:24Z</time></trkpt><trkpt lat="46.14259819214601" lon="13.050997332732077"><ele>202.0</ele><time>2026-04-04T13:04:25Z</time></trkpt><trkpt lat="46.14242683396665" lon="13.051116385279302"><ele>202.66666666666666</ele><time>2026-04-04T13:04:26Z</time></trkpt><trkpt lat="46.142255986505965" lon="13.05123606624685"><ele>203.33333333333331</ele><time>2026-04-04T13:04:27Z</time></trkpt><trkpt lat="46.142088796356425" lon="13.051358658846482"><ele>204.0</ele><time>2026-04-04T13:04:28Z</time></trkpt><trkpt lat="46.14192396393606" lon="13.051479869642218"><ele>204.0</ele><time>2026-04-04T13:04:29Z</time></trkpt><trkpt lat="46.14176109224851" lon="13.05159640937714"><ele>204.0</ele><time>2026-04-04T13:04:30Z</time></trkpt><trkpt lat="46.14160429875899" lon="13.051709246515422"><ele>204.0</ele><time>2026-04-04T13:04:31Z</time></trkpt><trkpt lat="46.14144606245937" lon="13.051819827814755"><ele>205.0</ele><time>2026-04-04T13:04:32Z</time></trkpt><trkpt lat="46.14129208908624" lon="13.051930787419796"><ele>206.0</ele><time>2026-04-04T13:04:33Z</time></trkpt><trkpt lat="46.141143801693225" lon="13.052042135844616"><ele>207.0</ele><time>2026-04-04T13:04:34Z</time></trkpt><trkpt lat="46.140988212095465" lon="13.05213660339371"><ele>207.0</ele><time>2026-04-04T13:04:35Z</time></trkpt><trkpt lat="46.140855368339906" lon="13.052292001796864"><ele>207.0</ele><time>2026-04-04T13:04:36Z</time></trkpt><trkpt lat="46.14072982660595" lon="13.052462730876735"><ele>207.0</ele><time>2026-04-04T13:04:37Z</time></trkpt><trkpt lat="46.14060269167292" lon="13.052639045451892"><ele>205.33333333333331</ele><time>2026-04-04T13:04:38Z</time></trkpt><trkpt lat="46.140469623027215" lon="13.05282415690336"><ele>203.66666666666666</ele><time>2026-04-04T13:04:39Z</time></trkpt><trkpt lat="46.140327728471235" lon="13.053018091832937"><ele>202.0</ele><time>2026-04-04T13:04:40Z</time></trkpt><trkpt lat="46.14018181843982" lon="13.053217281806509"><ele>203.0</ele><time>2026-04-04T13:04:41Z</time></trkpt><trkpt lat="46.14004227556698" lon="13.053436444605921"><ele>204.0</ele><time>2026-04-04T13:04:42Z</time></trkpt><trkpt lat="46.13989344307254" lon="13.053637379558447"><ele>205.0</ele><time>2026-04-04T13:04:43Z</time></trkpt><trkpt lat="46.13973333214002" lon="13.053825074339048"><ele>205.0</ele><time>2026-04-04T13:04:44Z</time></trkpt><trkpt lat="46.13959316905617" lon="13.054014433348815"><ele>205.0</ele><time>2026-04-04T13:04:45Z</time></trkpt><trkpt lat="46.13946164842462" lon="13.054192616918638"><ele>205.0</ele><time>2026-04-04T13:04:46Z</time></trkpt><trkpt lat="46.13932863450475" lon="13.054372938682288"><ele>206.0</ele><time>2026-04-04T13:04:47Z</time></trkpt><trkpt lat="46.139195202490356" lon="13.05455473027102"><ele>207.0</ele><time>2026-04-04T13:04:48Z</time></trkpt><trkpt lat="46.139064263094625" lon="13.054741939100953"><ele>208.0</ele><time>2026-04-04T13:04:49Z</time></trkpt><trkpt lat="46.13893661067586" lon="13.054937572201226"><ele>207.66666666666666</ele><time>2026-04-04T13:04:50.001Z</time></trkpt><trkpt lat="46.1388175903087" lon="13.055141062247694"><ele>207.33333333333331</ele><time>2026-04-04T13:04:51.001Z</time></trkpt><trkpt lat="46.138698326860116" lon="13.055348691606182"><ele>207.0</ele><time>2026-04-04T13:04:52.001Z</time></trkpt><trkpt lat="46.13858070598377" lon="13.055555222941551"><ele>207.0</ele><time>2026-04-04T13:04:53.001Z</time></trkpt><trkpt lat="46.13846321180711" lon="13.055761531763354"><ele>207.0</ele><time>2026-04-04T13:04:54.001Z</time></trkpt><trkpt lat="46.1383466891937" lon="13.055962945106367"><ele>207.0</ele><time>2026-04-04T13:04:55.001Z</time></trkpt><trkpt lat="46.1382501572084" lon="13.056162638447478"><ele>208.75</ele><time>2026-04-04T13:04:56.001Z</time></trkpt><trkpt lat="46.13814931447246" lon="13.056332704278251"><ele>210.5</ele><time>2026-04-04T13:04:57.001Z</time></trkpt><trkpt lat="46.13804741870829" lon="13.056480937178712"><ele>212.25</ele><time>2026-04-04T13:04:58.001Z</time></trkpt><trkpt lat="46.137938459692265" lon="13.05661151181326"><ele>214.0</ele><time>2026-04-04T13:04:59.001Z</time></trkpt><trkpt lat="46.13780614779803" lon="13.056738462852612"><ele>214.0</ele><time>2026-04-04T13:05:00.001Z</time></trkpt><trkpt lat="46.13764092230589" lon="13.056839926954208"><ele>214.0</ele><time>2026-04-04T13:05:01.001Z</time></trkpt><trkpt lat="46.137469105769945" lon="13.056968962498797"><ele>214.0</ele><time>2026-04-04T13:05:02.001Z</time></trkpt><trkpt lat="46.13729230156299" lon="13.057101078385942"><ele>213.33333333333331</ele><time>2026-04-04T13:05:03.001Z</time></trkpt><trkpt lat="46.13712290392268" lon="13.057227661483598"><ele>212.66666666666669</ele><time>2026-04-04T13:05:04.001Z</time></trkpt><trkpt lat="46.136960768288915" lon="13.057375158523682"><ele>212.0</ele><time>2026-04-04T13:05:05.001Z</time></trkpt><trkpt lat="46.13678314383977" lon="13.05750839557367"><ele>211.33333333333334</ele><time>2026-04-04T13:05:06.001Z</time></trkpt><trkpt lat="46.136592674068005" lon="13.057626526415827"><ele>210.66666666666669</ele><time>2026-04-04T13:05:07.001Z</time></trkpt><trkpt lat="46.13640859746963" lon="13.057776589886954"><ele>210.0</ele><time>2026-04-04T13:05:08.001Z</time></trkpt><trkpt lat="46.13622202153401" lon="13.057935736855079"><ele>210.0</ele><time>2026-04-04T13:05:09.001Z</time></trkpt><trkpt lat="46.13603702434556" lon="13.058098460239966"><ele>210.0</ele><time>2026-04-04T13:05:10.001Z</time></trkpt><trkpt lat="46.13585820675945" lon="13.058283234028226"><ele>210.0</ele><time>2026-04-04T13:05:11.001Z</time></trkpt><trkpt lat="46.13568080134099" lon="13.058441024834812"><ele>208.33333333333331</ele><time>2026-04-04T13:05:12.001Z</time></trkpt><trkpt lat="46.13551138903706" lon="13.058593396167868"><ele>206.66666666666666</ele><time>2026-04-04T13:05:13.001Z</time></trkpt><trkpt lat="46.135348006741395" lon="13.05873813031796"><ele>205.0</ele><time>2026-04-04T13:05:14.001Z</time></trkpt><trkpt lat="46.135187207694024" lon="13.058855302801934"><ele>205.0</ele><time>2026-04-04T13:05:15.001Z</time></trkpt><trkpt lat="46.13504474486338" lon="13.058981124619066"><ele>205.0</ele><time>2026-04-04T13:05:16.001Z</time></trkpt><trkpt lat="46.13489998955803" lon="13.059108971087921"><ele>205.0</ele><time>2026-04-04T13:05:17.001Z</time></trkpt><trkpt lat="46.13474816080231" lon="13.05924306477563"><ele>204.66666666666666</ele><time>2026-04-04T13:05:18.001Z</time></trkpt><trkpt lat="46.13458927011041" lon="13.059384101275857"><ele>204.33333333333331</ele><time>2026-04-04T13:05:19.001Z</time></trkpt><trkpt lat="46.13442807307709" lon="13.059549244177155"><ele>204.0</ele><time>2026-04-04T13:05:20.001Z</time></trkpt><trkpt lat="46.13425759071734" lon="13.059692051388657"><ele>204.0</ele><time>2026-04-04T13:05:21.001Z</time></trkpt><trkpt lat="46.13409866398795" lon="13.059838512009582"><ele>204.0</ele><time>2026-04-04T13:05:22.001Z</time></trkpt><trkpt lat="46.13393184055416" lon="13.05999379966982"><ele>204.0</ele><time>2026-04-04T13:05:23.001Z</time></trkpt><trkpt lat="46.133767262480916" lon="13.060134830821784"><ele>203.33333333333331</ele><time>2026-04-04T13:05:24Z</time></trkpt><trkpt lat="46.13361278125507" lon="13.06031099260218"><ele>202.66666666666666</ele><time>2026-04-04T13:05:25Z</time></trkpt><trkpt lat="46.13345707083075" lon="13.060491260119306"><ele>202.0</ele><time>2026-04-04T13:05:26Z</time></trkpt><trkpt lat="46.133301764009644" lon="13.060672005596034"><ele>200.66666666666666</ele><time>2026-04-04T13:05:27Z</time></trkpt><trkpt lat="46.133146810746155" lon="13.060851997125967"><ele>199.33333333333331</ele><time>2026-04-04T13:05:28Z</time></trkpt><trkpt lat="46.13299622843558" lon="13.061026580772426"><ele>198.0</ele><time>2026-04-04T13:05:29Z</time></trkpt><trkpt lat="46.132846716369684" lon="13.061199923757274"><ele>198.0</ele><time>2026-04-04T13:05:30Z</time></trkpt><trkpt lat="46.1327004032763" lon="13.061369557787593"><ele>198.0</ele><time>2026-04-04T13:05:31Z</time></trkpt><trkpt lat="46.13255640986218" lon="13.06153650244873"><ele>198.0</ele><time>2026-04-04T13:05:32Z</time></trkpt><trkpt lat="46.13241491067918" lon="13.061700555338426"><ele>197.0</ele><time>2026-04-04T13:05:33Z</time></trkpt><trkpt lat="46.13229121821566" lon="13.061873765312637"><ele>196.0</ele><time>2026-04-04T13:05:34Z</time></trkpt><trkpt lat="46.132154679819756" lon="13.062003096322382"><ele>195.0</ele><time>2026-04-04T13:05:35Z</time></trkpt><trkpt lat="46.13203386337945" lon="13.06214574036291"><ele>195.0</ele><time>2026-04-04T13:05:36Z</time></trkpt><trkpt lat="46.13191395690941" lon="13.062286815213788"><ele>195.0</ele><time>2026-04-04T13:05:37Z</time></trkpt><trkpt lat="46.13179631211552" lon="13.062419843069351"><ele>195.0</ele><time>2026-04-04T13:05:38Z</time></trkpt><trkpt lat="46.131671512171856" lon="13.062526405548104"><ele>195.0</ele><time>2026-04-04T13:05:39Z</time></trkpt><trkpt lat="46.13152756519201" lon="13.062610878364405"><ele>194.66666666666669</ele><time>2026-04-04T13:05:40Z</time></trkpt><trkpt lat="46.1313637085239" lon="13.06268806039183"><ele>194.33333333333334</ele><time>2026-04-04T13:05:41Z</time></trkpt><trkpt lat="46.13118657210636" lon="13.062765706045484"><ele>194.0</ele><time>2026-04-04T13:05:42Z</time></trkpt><trkpt lat="46.131018129897924" lon="13.062836361461315"><ele>194.0</ele><time>2026-04-04T13:05:43Z</time></trkpt><trkpt lat="46.130860362939046" lon="13.06290623126437"><ele>194.0</ele><time>2026-04-04T13:05:44Z</time></trkpt><trkpt lat="46.13071260706459" lon="13.063006678859283"><ele>194.0</ele><time>2026-04-04T13:05:45Z</time></trkpt><trkpt lat="46.13056703784968" lon="13.063161169452725"><ele>195.0</ele><time>2026-04-04T13:05:46Z</time></trkpt><trkpt lat="46.13044180338539" lon="13.06336120685658"><ele>196.0</ele><time>2026-04-04T13:05:47Z</time></trkpt><trkpt lat="46.130317717105136" lon="13.06357509236666"><ele>197.0</ele><time>2026-04-04T13:05:48Z</time></trkpt><trkpt lat="46.13017516765863" lon="13.063770283387734"><ele>197.0</ele><time>2026-04-04T13:05:49Z</time></trkpt><trkpt lat="46.13003953456674" lon="13.06398857266337"><ele>197.0</ele><time>2026-04-04T13:05:50Z</time></trkpt><trkpt lat="46.12990093967207" lon="13.064211711610536"><ele>197.0</ele><time>2026-04-04T13:05:51Z</time></trkpt><trkpt lat="46.1297609425056" lon="13.064437131731788"><ele>196.0</ele><time>2026-04-04T13:05:52Z</time></trkpt><trkpt lat="46.129620629886475" lon="13.064663059940386"><ele>195.0</ele><time>2026-04-04T13:05:53Z</time></trkpt><trkpt lat="46.1294774679444" lon="13.064894768428662"><ele>194.0</ele><time>2026-04-04T13:05:54Z</time></trkpt><trkpt lat="46.129346614319836" lon="13.06510856977234"><ele>194.0</ele><time>2026-04-04T13:05:55Z</time></trkpt><trkpt lat="46.129227341690815" lon="13.065303448879945"><ele>194.0</ele><time>2026-04-04T13:05:56Z</time></trkpt><trkpt lat="46.129114150420385" lon="13.065479557391196"><ele>194.0</ele><time>2026-04-04T13:05:57Z</time></trkpt><trkpt lat="46.129000368006274" lon="13.0656394936179"><ele>195.0</ele><time>2026-04-04T13:05:58Z</time></trkpt><trkpt lat="46.128876506478576" lon="13.065776446199699"><ele>196.0</ele><time>2026-04-04T13:05:59Z</time></trkpt><trkpt lat="46.12874151410978" lon="13.065899161570497"><ele>197.0</ele><time>2026-04-04T13:06:00Z</time></trkpt><trkpt lat="46.12860344889944" lon="13.066008264836944"><ele>197.0</ele><time>2026-04-04T13:06:01Z</time></trkpt><trkpt lat="46.12848146793871" lon="13.066109580758699"><ele>197.0</ele><time>2026-04-04T13:06:02Z</time></trkpt><trkpt lat="46.1283703943835" lon="13.066209289100307"><ele>197.0</ele><time>2026-04-04T13:06:03Z</time></trkpt><trkpt lat="46.128262379456096" lon="13.066326040161204"><ele>197.0</ele><time>2026-04-04T13:06:04Z</time></trkpt><trkpt lat="46.12815396248866" lon="13.06647152910186"><ele>197.66666666666669</ele><time>2026-04-04T13:06:05Z</time></trkpt><trkpt lat="46.12805190880104" lon="13.06665677581267"><ele>198.33333333333331</ele><time>2026-04-04T13:06:06Z</time></trkpt><trkpt lat="46.12793272822019" lon="13.066841121484716"><ele>199.0</ele><time>2026-04-04T13:06:07Z</time></trkpt><trkpt lat="46.12781064772276" lon="13.067039965030553"><ele>199.0</ele><time>2026-04-04T13:06:08Z</time></trkpt><trkpt lat="46.12768542611499" lon="13.067248159868592"><ele>199.0</ele><time>2026-04-04T13:06:09Z</time></trkpt><trkpt lat="46.127553464696916" lon="13.067454203970843"><ele>199.0</ele><time>2026-04-04T13:06:10Z</time></trkpt><trkpt lat="46.12743208034732" lon="13.067653276087354"><ele>199.66666666666666</ele><time>2026-04-04T13:06:11Z</time></trkpt><trkpt lat="46.12731914590708" lon="13.067837930596177"><ele>200.33333333333331</ele><time>2026-04-04T13:06:12Z</time></trkpt><trkpt lat="46.12720929500943" lon="13.068039734451002"><ele>201.0</ele><time>2026-04-04T13:06:13Z</time></trkpt><trkpt lat="46.12711315353889" lon="13.068249745316539"><ele>199.66666666666669</ele><time>2026-04-04T13:06:14Z</time></trkpt><trkpt lat="46.127026069030244" lon="13.068468729215494"><ele>198.33333333333334</ele><time>2026-04-04T13:06:15Z</time></trkpt><trkpt lat="46.126946089666696" lon="13.068689309656019"><ele>197.0</ele><time>2026-04-04T13:06:16Z</time></trkpt><trkpt lat="46.12686804751227" lon="13.068918422156548"><ele>197.33333333333334</ele><time>2026-04-04T13:06:17Z</time></trkpt><trkpt lat="46.12679497072728" lon="13.069148857313923"><ele>197.66666666666669</ele><time>2026-04-04T13:06:18Z</time></trkpt><trkpt lat="46.12672986120992" lon="13.069384316155379"><ele>198.0</ele><time>2026-04-04T13:06:19Z</time></trkpt><trkpt lat="46.126667902228775" lon="13.069617432985634"><ele>198.0</ele><time>2026-04-04T13:06:20Z</time></trkpt><trkpt lat="46.12660297714849" lon="13.069850034336401"><ele>198.0</ele><time>2026-04-04T13:06:21Z</time></trkpt><trkpt lat="46.12654295025832" lon="13.070082582945474"><ele>198.0</ele><time>2026-04-04T13:06:22Z</time></trkpt><trkpt lat="46.126478604379955" lon="13.070308916625049"><ele>198.33333333333331</ele><time>2026-04-04T13:06:23Z</time></trkpt><trkpt lat="46.126412300725725" lon="13.070542520115813"><ele>198.66666666666666</ele><time>2026-04-04T13:06:24Z</time></trkpt><trkpt lat="46.12634881169898" lon="13.0707855481162"><ele>199.0</ele><time>2026-04-04T13:06:25Z</time></trkpt><trkpt lat="46.126274009507796" lon="13.071047065794971"><ele>199.33333333333331</ele><time>2026-04-04T13:06:26Z</time></trkpt><trkpt lat="46.126205629450325" lon="13.0713038378557"><ele>199.66666666666669</ele><time>2026-04-04T13:06:27Z</time></trkpt><trkpt lat="46.126136178759715" lon="13.071565020716397"><ele>200.0</ele><time>2026-04-04T13:06:28Z</time></trkpt><trkpt lat="46.126062664082205" lon="13.0718287554447"><ele>200.0</ele><time>2026-04-04T13:06:29Z</time></trkpt><trkpt lat="46.125988179293294" lon="13.07209666499899"><ele>200.0</ele><time>2026-04-04T13:06:30Z</time></trkpt><trkpt lat="46.125915640717054" lon="13.072367584828394"><ele>200.0</ele><time>2026-04-04T13:06:31Z</time></trkpt><trkpt lat="46.12584023407217" lon="13.072627490124589"><ele>200.33333333333334</ele><time>2026-04-04T13:06:32Z</time></trkpt><trkpt lat="46.12577129374836" lon="13.072875015275487"><ele>200.66666666666669</ele><time>2026-04-04T13:06:33Z</time></trkpt><trkpt lat="46.12571034285776" lon="13.07311020611234"><ele>201.0</ele><time>2026-04-04T13:06:34Z</time></trkpt><trkpt lat="46.12564987292434" lon="13.073332666210618"><ele>201.0</ele><time>2026-04-04T13:06:35Z</time></trkpt><trkpt lat="46.12558337500539" lon="13.073548232595963"><ele>201.0</ele><time>2026-04-04T13:06:36Z</time></trkpt><trkpt lat="46.12550938356269" lon="13.073761163602322"><ele>201.0</ele><time>2026-04-04T13:06:37Z</time></trkpt><trkpt lat="46.12541440924893" lon="13.073962297619556"><ele>199.0</ele><time>2026-04-04T13:06:38Z</time></trkpt><trkpt lat="46.1253033547232" lon="13.074160180137516"><ele>197.0</ele><time>2026-04-04T13:06:39Z</time></trkpt><trkpt lat="46.12518435596803" lon="13.074363106121893"><ele>195.0</ele><time>2026-04-04T13:06:40Z</time></trkpt><trkpt lat="46.12506104529266" lon="13.074556567406285"><ele>195.0</ele><time>2026-04-04T13:06:41Z</time></trkpt><trkpt lat="46.12493382682828" lon="13.07472054105116"><ele>195.0</ele><time>2026-04-04T13:06:42Z</time></trkpt><trkpt lat="46.12482861566388" lon="13.07488130127308"><ele>195.0</ele><time>2026-04-04T13:06:43Z</time></trkpt><trkpt lat="46.1247296005767" lon="13.075042220845253"><ele>194.33333333333331</ele><time>2026-04-04T13:06:44Z</time></trkpt><trkpt lat="46.12460683560364" lon="13.075171736394012"><ele>193.66666666666666</ele><time>2026-04-04T13:06:45Z</time></trkpt><trkpt lat="46.1244592565365" lon="13.075258684059252"><ele>193.0</ele><time>2026-04-04T13:06:46Z</time></trkpt><trkpt lat="46.124316265186515" lon="13.075346252913791"><ele>193.0</ele><time>2026-04-04T13:06:47Z</time></trkpt><trkpt lat="46.12419400985219" lon="13.075420344203486"><ele>193.0</ele><time>2026-04-04T13:06:48Z</time></trkpt><trkpt lat="46.12408155205761" lon="13.075488591982648"><ele>193.0</ele><time>2026-04-04T13:06:49Z</time></trkpt><trkpt lat="46.12399809519416" lon="13.075556834896435"><ele>193.0</ele><time>2026-04-04T13:06:50Z</time></trkpt><trkpt lat="46.12391592918132" lon="13.07560195406725"><ele>193.0</ele><time>2026-04-04T13:06:51Z</time></trkpt><trkpt lat="46.123829526882076" lon="13.075646233230893"><ele>193.2857142857143</ele><time>2026-04-04T13:06:52Z</time></trkpt><trkpt lat="46.123749355924666" lon="13.0756911562595"><ele>193.57142857142858</ele><time>2026-04-04T13:06:53Z</time></trkpt><trkpt lat="46.123681440329" lon="13.07574005648255"><ele>193.85714285714286</ele><time>2026-04-04T13:06:54Z</time></trkpt><trkpt lat="46.12362323403402" lon="13.075802189375436"><ele>194.14285714285717</ele><time>2026-04-04T13:06:55Z</time></trkpt><trkpt lat="46.123569171841915" lon="13.07586461024744"><ele>194.42857142857142</ele><time>2026-04-04T13:06:56Z</time></trkpt><trkpt lat="46.123525818337576" lon="13.075943445437256"><ele>194.71428571428572</ele><time>2026-04-04T13:06:57Z</time></trkpt><trkpt lat="46.12349392485556" lon="13.076025476895623"><ele>195.0</ele><time>2026-04-04T13:06:58Z</time></trkpt><trkpt lat="46.12345992027583" lon="13.07612270279618"><ele>194.16666666666666</ele><time>2026-04-04T13:06:59Z</time></trkpt><trkpt lat="46.12342767413146" lon="13.076220209461843"><ele>193.33333333333334</ele><time>2026-04-04T13:07:00Z</time></trkpt><trkpt lat="46.12338175851115" lon="13.076308850299966"><ele>192.5</ele><time>2026-04-04T13:07:01Z</time></trkpt><trkpt lat="46.123324969788285" lon="13.076390909791108"><ele>191.66666666666669</ele><time>2026-04-04T13:07:02Z</time></trkpt><trkpt lat="46.1232673521902" lon="13.076446609180042"><ele>190.83333333333334</ele><time>2026-04-04T13:07:03.001Z</time></trkpt><trkpt lat="46.12318418486067" lon="13.076504699574446"><ele>190.0</ele><time>2026-04-04T13:07:05.001Z</time></trkpt><trkpt lat="46.12321896895778" lon="13.076583978283995"><ele>187.8</ele><time>2026-04-04T13:07:08.001Z</time></trkpt><trkpt lat="46.123070574199275" lon="13.076658548991263"><ele>185.6</ele><time>2026-04-04T13:11:24.001Z</time></trkpt><trkpt lat="46.12302593049424" lon="13.0767248003154"><ele>183.39999999999998</ele><time>2026-04-04T13:11:25.001Z</time></trkpt><trkpt lat="46.122940345048605" lon="13.076766123462"><ele>181.2</ele><time>2026-04-04T13:11:26.001Z</time></trkpt><trkpt lat="46.12285396123704" lon="13.076833317109987"><ele>179.0</ele><time>2026-04-04T13:11:27.001Z</time></trkpt><trkpt lat="46.12274130502523" lon="13.076924305610314"><ele>179.0</ele><time>2026-04-04T13:11:28.001Z</time></trkpt><trkpt lat="46.122628158103" lon="13.077010329644219"><ele>179.0</ele><time>2026-04-04T13:11:29.001Z</time></trkpt><trkpt lat="46.1224994102244" lon="13.07711041185488"><ele>179.0</ele><time>2026-04-04T13:11:30.001Z</time></trkpt><trkpt lat="46.12236412511202" lon="13.077215575916895"><ele>179.0</ele><time>2026-04-04T13:11:31.001Z</time></trkpt><trkpt lat="46.12224139287507" lon="13.077319123865529"><ele>179.0</ele><time>2026-04-04T13:11:32.001Z</time></trkpt><trkpt lat="46.12212286170375" lon="13.077406702881124"><ele>179.0</ele><time>2026-04-04T13:11:33.001Z</time></trkpt><trkpt lat="46.121999122182096" lon="13.07750296752336"><ele>179.0</ele><time>2026-04-04T13:11:34.001Z</time></trkpt><trkpt lat="46.12187644638115" lon="13.077602247348631"><ele>179.0</ele><time>2026-04-04T13:11:35.001Z</time></trkpt><trkpt lat="46.12175487357699" lon="13.077707845825245"><ele>178.5</ele><time>2026-04-04T13:11:36.001Z</time></trkpt><trkpt lat="46.12162993545482" lon="13.077805304189646"><ele>178.0</ele><time>2026-04-04T13:11:37.001Z</time></trkpt><trkpt lat="46.12150179951606" lon="13.077899638204125"><ele>177.5</ele><time>2026-04-04T13:11:38.001Z</time></trkpt><trkpt lat="46.12137097662416" lon="13.077999725918074"><ele>177.0</ele><time>2026-04-04T13:11:39.001Z</time></trkpt><trkpt lat="46.12124197033189" lon="13.078101259804221"><ele>176.66666666666666</ele><time>2026-04-04T13:11:40.001Z</time></trkpt><trkpt lat="46.12111447785478" lon="13.078205829335591"><ele>176.33333333333331</ele><time>2026-04-04T13:11:41.001Z</time></trkpt><trkpt lat="46.12098186413369" lon="13.078319117903812"><ele>176.0</ele><time>2026-04-04T13:11:42Z</time></trkpt><trkpt lat="46.120845036699535" lon="13.078428177135944"><ele>175.66666666666666</ele><time>2026-04-04T13:11:43Z</time></trkpt><trkpt lat="46.120705855644616" lon="13.078539415226928"><ele>175.33333333333334</ele><time>2026-04-04T13:11:44Z</time></trkpt><trkpt lat="46.1205665663905" lon="13.078652499330062"><ele>175.0</ele><time>2026-04-04T13:11:45Z</time></trkpt><trkpt lat="46.12043145794209" lon="13.078763015076666"><ele>175.0</ele><time>2026-04-04T13:11:46Z</time></trkpt><trkpt lat="46.120305884070376" lon="13.078866110735174"><ele>175.0</ele><time>2026-04-04T13:11:47Z</time></trkpt><trkpt lat="46.12017793660703" lon="13.07897313246512"><ele>175.0</ele><time>2026-04-04T13:11:48Z</time></trkpt><trkpt lat="46.1200504220584" lon="13.079078209880743"><ele>175.0</ele><time>2026-04-04T13:11:49Z</time></trkpt><trkpt lat="46.11992131055359" lon="13.07918335232527"><ele>174.0</ele><time>2026-04-04T13:11:50Z</time></trkpt><trkpt lat="46.11978184324378" lon="13.079279421190217"><ele>173.0</ele><time>2026-04-04T13:11:51Z</time></trkpt><trkpt lat="46.11964632592732" lon="13.079384191439186"><ele>172.0</ele><time>2026-04-04T13:11:52Z</time></trkpt><trkpt lat="46.119508547454785" lon="13.079487161433102"><ele>172.0</ele><time>2026-04-04T13:11:53Z</time></trkpt><trkpt lat="46.119370271833986" lon="13.079575723655005"><ele>172.0</ele><time>2026-04-04T13:11:54Z</time></trkpt><trkpt lat="46.11922767480097" lon="13.079628404391858"><ele>172.0</ele><time>2026-04-04T13:11:55Z</time></trkpt><trkpt lat="46.119078637606016" lon="13.07967758329054"><ele>172.33333333333334</ele><time>2026-04-04T13:11:56Z</time></trkpt><trkpt lat="46.1189284686421" lon="13.079716885893685"><ele>172.66666666666666</ele><time>2026-04-04T13:11:57Z</time></trkpt><trkpt lat="46.11877730491042" lon="13.079737896068655"><ele>173.0</ele><time>2026-04-04T13:11:58Z</time></trkpt><trkpt lat="46.118624391468515" lon="13.079752324060282"><ele>173.0</ele><time>2026-04-04T13:11:59Z</time></trkpt><trkpt lat="46.118466625871484" lon="13.079760606917443"><ele>173.0</ele><time>2026-04-04T13:12:00Z</time></trkpt><trkpt lat="46.118310200017994" lon="13.079745015929786"><ele>173.0</ele><time>2026-04-04T13:12:01Z</time></trkpt><trkpt lat="46.11815540445161" lon="13.079709285733243"><ele>173.66666666666666</ele><time>2026-04-04T13:12:02Z</time></trkpt><trkpt lat="46.11800057373098" lon="13.079657697636154"><ele>174.33333333333334</ele><time>2026-04-04T13:12:03Z</time></trkpt><trkpt lat="46.11784668134501" lon="13.07958899739826"><ele>175.0</ele><time>2026-04-04T13:12:04Z</time></trkpt><trkpt lat="46.11769611884101" lon="13.0795062125523"><ele>175.0</ele><time>2026-04-04T13:12:05Z</time></trkpt><trkpt lat="46.11754756465219" lon="13.07940576408199"><ele>175.0</ele><time>2026-04-04T13:12:06Z</time></trkpt><trkpt lat="46.11740338726574" lon="13.079304138815317"><ele>175.0</ele><time>2026-04-04T13:12:07Z</time></trkpt><trkpt lat="46.11726019332055" lon="13.079205491661673"><ele>175.0</ele><time>2026-04-04T13:12:08Z</time></trkpt><trkpt lat="46.11711250463907" lon="13.079103885611813"><ele>175.0</ele><time>2026-04-04T13:12:09Z</time></trkpt><trkpt lat="46.11696627636767" lon="13.078999683756443"><ele>175.0</ele><time>2026-04-04T13:12:10Z</time></trkpt><trkpt lat="46.11682427307018" lon="13.078901122238106"><ele>175.25</ele><time>2026-04-04T13:12:11Z</time></trkpt><trkpt lat="46.11669153499049" lon="13.078809053095402"><ele>175.5</ele><time>2026-04-04T13:12:12Z</time></trkpt><trkpt lat="46.11657030023421" lon="13.078721996034743"><ele>175.75</ele><time>2026-04-04T13:12:13Z</time></trkpt><trkpt lat="46.11646173207112" lon="13.078639395483659"><ele>176.0</ele><time>2026-04-04T13:12:14Z</time></trkpt><trkpt lat="46.116362893536596" lon="13.078563536069764"><ele>176.0</ele><time>2026-04-04T13:12:15Z</time></trkpt><trkpt lat="46.11628276007052" lon="13.078497297375637"><ele>176.0</ele><time>2026-04-04T13:12:16Z</time></trkpt><trkpt lat="46.11622296317742" lon="13.078439977691554"><ele>176.0</ele><time>2026-04-04T13:12:17Z</time></trkpt><trkpt lat="46.11616933885844" lon="13.078375765564378"><ele>176.0</ele><time>2026-04-04T13:12:18Z</time></trkpt><trkpt lat="46.116121535883835" lon="13.078299550135412"><ele>176.0</ele><time>2026-04-04T13:12:19Z</time></trkpt><trkpt lat="46.11605331640234" lon="13.078225709090214"><ele>176.0</ele><time>2026-04-04T13:12:20Z</time></trkpt><trkpt lat="46.11595874019254" lon="13.078106756818288"><ele>175.8</ele><time>2026-04-04T13:12:22Z</time></trkpt><trkpt lat="46.11586790971776" lon="13.078143995100524"><ele>175.60000000000002</ele><time>2026-04-04T13:12:23Z</time></trkpt><trkpt lat="46.11577382799684" lon="13.07814883091884"><ele>175.4</ele><time>2026-04-04T13:12:24Z</time></trkpt><trkpt lat="46.11565927052" lon="13.078104986053923"><ele>175.2</ele><time>2026-04-04T13:12:25Z</time></trkpt><trkpt lat="46.115532187113416" lon="13.078025711683415"><ele>175.0</ele><time>2026-04-04T13:12:26Z</time></trkpt><trkpt lat="46.11539400164559" lon="13.077929160347987"><ele>174.66666666666669</ele><time>2026-04-04T13:12:27Z</time></trkpt><trkpt lat="46.11523981323434" lon="13.077798630874858"><ele>174.33333333333334</ele><time>2026-04-04T13:12:28Z</time></trkpt><trkpt lat="46.11507072167478" lon="13.077681762923945"><ele>174.0</ele><time>2026-04-04T13:12:29Z</time></trkpt><trkpt lat="46.114904522737156" lon="13.077565137637157"><ele>173.33333333333334</ele><time>2026-04-04T13:12:30Z</time></trkpt><trkpt lat="46.11474853914123" lon="13.077455077115776"><ele>172.66666666666669</ele><time>2026-04-04T13:12:31Z</time></trkpt><trkpt lat="46.11459650153226" lon="13.077347802581537"><ele>172.0</ele><time>2026-04-04T13:12:32Z</time></trkpt><trkpt lat="46.11443930203405" lon="13.077236884056596"><ele>172.0</ele><time>2026-04-04T13:12:33Z</time></trkpt><trkpt lat="46.114278223690825" lon="13.077123355533706"><ele>172.0</ele><time>2026-04-04T13:12:34Z</time></trkpt><trkpt lat="46.11411172429224" lon="13.07703127502714"><ele>172.0</ele><time>2026-04-04T13:12:35Z</time></trkpt><trkpt lat="46.11395011724717" lon="13.0769184360062"><ele>172.33333333333334</ele><time>2026-04-04T13:12:36Z</time></trkpt><trkpt lat="46.11379223381582" lon="13.076806495494402"><ele>172.66666666666666</ele><time>2026-04-04T13:12:37Z</time></trkpt><trkpt lat="46.113656101373486" lon="13.076688012155747"><ele>173.0</ele><time>2026-04-04T13:12:38Z</time></trkpt><trkpt lat="46.113514758176436" lon="13.076588588932811"><ele>172.33333333333331</ele><time>2026-04-04T13:12:39Z</time></trkpt><trkpt lat="46.11336110345517" lon="13.076480455739718"><ele>171.66666666666666</ele><time>2026-04-04T13:12:40Z</time></trkpt><trkpt lat="46.113203235487624" lon="13.076369357332629"><ele>171.0</ele><time>2026-04-04T13:12:41Z</time></trkpt><trkpt lat="46.11304524112466" lon="13.076258170864028"><ele>170.66666666666666</ele><time>2026-04-04T13:12:42Z</time></trkpt><trkpt lat="46.112900416445605" lon="13.076154537619404"><ele>170.33333333333331</ele><time>2026-04-04T13:12:43Z</time></trkpt><trkpt lat="46.112764300932945" lon="13.076058267204548"><ele>170.0</ele><time>2026-04-04T13:12:44Z</time></trkpt><trkpt lat="46.11261948442438" lon="13.07597928780949"><ele>170.0</ele><time>2026-04-04T13:12:45Z</time></trkpt><trkpt lat="46.112472258890556" lon="13.075922590617159"><ele>170.0</ele><time>2026-04-04T13:12:46Z</time></trkpt><trkpt lat="46.11231795356069" lon="13.075899576164732"><ele>170.0</ele><time>2026-04-04T13:12:47Z</time></trkpt><trkpt lat="46.11216570964799" lon="13.075894558609946"><ele>169.33333333333331</ele><time>2026-04-04T13:12:48Z</time></trkpt><trkpt lat="46.112014078634814" lon="13.075906729822268"><ele>168.66666666666666</ele><time>2026-04-04T13:12:49.001Z</time></trkpt><trkpt lat="46.11186314342938" lon="13.075944258003389"><ele>168.0</ele><time>2026-04-04T13:12:50.001Z</time></trkpt><trkpt lat="46.111710431022864" lon="13.076012152970822"><ele>167.0</ele><time>2026-04-04T13:12:51.001Z</time></trkpt><trkpt lat="46.11155592785422" lon="13.076084953233773"><ele>166.0</ele><time>2026-04-04T13:12:52.001Z</time></trkpt><trkpt lat="46.111402011523644" lon="13.07616012904211"><ele>165.0</ele><time>2026-04-04T13:12:53.001Z</time></trkpt><trkpt lat="46.11126225172142" lon="13.076232022538157"><ele>165.0</ele><time>2026-04-04T13:12:54.001Z</time></trkpt><trkpt lat="46.11113510773" lon="13.0762946917468"><ele>165.0</ele><time>2026-04-04T13:12:55.001Z</time></trkpt><trkpt lat="46.111018216183105" lon="13.076352307441443"><ele>165.0</ele><time>2026-04-04T13:12:56.001Z</time></trkpt><trkpt lat="46.11090327122362" lon="13.076408963585294"><ele>165.0</ele><time>2026-04-04T13:12:57.001Z</time></trkpt><trkpt lat="46.11081109796178" lon="13.0764534074887"><ele>164.2</ele><time>2026-04-04T13:12:58.001Z</time></trkpt><trkpt lat="46.11072963678533" lon="13.07649447848106"><ele>163.4</ele><time>2026-04-04T13:12:59.001Z</time></trkpt><trkpt lat="46.11061724605687" lon="13.076550627007327"><ele>162.60000000000002</ele><time>2026-04-04T13:13:01.001Z</time></trkpt><trkpt lat="46.11054709666901" lon="13.076587550979788"><ele>161.8</ele><time>2026-04-04T13:13:03.001Z</time></trkpt><trkpt lat="46.110470710175925" lon="13.076627062535772"><ele>161.0</ele><time>2026-04-04T13:13:15.001Z</time></trkpt><trkpt lat="46.11042065899541" lon="13.07684567285773"><ele>161.0</ele><time>2026-04-04T13:13:17.001Z</time></trkpt><trkpt lat="46.110446923603504" lon="13.076972572819736"><ele>161.0</ele><time>2026-04-04T13:13:18.001Z</time></trkpt><trkpt lat="46.11049208688446" lon="13.077121900958034"><ele>161.0</ele><time>2026-04-04T13:13:19.001Z</time></trkpt><trkpt lat="46.11052727939917" lon="13.077305003424382"><ele>161.0</ele><time>2026-04-04T13:13:20.001Z</time></trkpt><trkpt lat="46.11057527379589" lon="13.077504394457097"><ele>161.33333333333331</ele><time>2026-04-04T13:13:21.001Z</time></trkpt><trkpt lat="46.11062300993613" lon="13.077714151790827"><ele>161.66666666666666</ele><time>2026-04-04T13:13:22.001Z</time></trkpt><trkpt lat="46.11067287198761" lon="13.07794033832471"><ele>162.0</ele><time>2026-04-04T13:13:23.001Z</time></trkpt><trkpt lat="46.110723269173285" lon="13.078163127726635"><ele>163.33333333333334</ele><time>2026-04-04T13:13:24.001Z</time></trkpt><trkpt lat="46.11076224568935" lon="13.078411517958449"><ele>164.66666666666669</ele><time>2026-04-04T13:13:25.001Z</time></trkpt><trkpt lat="46.11078671879811" lon="13.078663983657986"><ele>166.0</ele><time>2026-04-04T13:13:26.001Z</time></trkpt><trkpt lat="46.110794407067964" lon="13.078934355553448"><ele>165.66666666666669</ele><time>2026-04-04T13:13:27.001Z</time></trkpt><trkpt lat="46.110773791868084" lon="13.079179704825247"><ele>165.33333333333334</ele><time>2026-04-04T13:13:28.001Z</time></trkpt><trkpt lat="46.11074717933464" lon="13.079420825671189"><ele>165.0</ele><time>2026-04-04T13:13:29.001Z</time></trkpt><trkpt lat="46.11071466843075" lon="13.079671428656193"><ele>163.33333333333334</ele><time>2026-04-04T13:13:30.001Z</time></trkpt><trkpt lat="46.11068172377374" lon="13.079918341769982"><ele>161.66666666666669</ele><time>2026-04-04T13:13:31.001Z</time></trkpt><trkpt lat="46.11064996483023" lon="13.08015562848023"><ele>160.0</ele><time>2026-04-04T13:13:32.001Z</time></trkpt><trkpt lat="46.11061861274501" lon="13.08038987533676"><ele>160.0</ele><time>2026-04-04T13:13:33.001Z</time></trkpt><trkpt lat="46.11058978941872" lon="13.080604515795294"><ele>160.0</ele><time>2026-04-04T13:13:34.001Z</time></trkpt><trkpt lat="46.11056257868288" lon="13.080806902857075"><ele>160.0</ele><time>2026-04-04T13:13:35.001Z</time></trkpt><trkpt lat="46.110537917242326" lon="13.08099757073432"><ele>160.0</ele><time>2026-04-04T13:13:36.001Z</time></trkpt><trkpt lat="46.11051665499996" lon="13.0811909724276"><ele>160.0</ele><time>2026-04-04T13:13:37.001Z</time></trkpt><trkpt lat="46.11050046063303" lon="13.081392520880827"><ele>160.0</ele><time>2026-04-04T13:13:38.001Z</time></trkpt><trkpt lat="46.11049648616643" lon="13.081599077241853"><ele>160.0</ele><time>2026-04-04T13:13:39.001Z</time></trkpt><trkpt lat="46.11050524221816" lon="13.081811012245465"><ele>160.0</ele><time>2026-04-04T13:13:40.001Z</time></trkpt><trkpt lat="46.11053128108461" lon="13.082024429480109"><ele>160.33333333333334</ele><time>2026-04-04T13:13:41.001Z</time></trkpt><trkpt lat="46.11057216728169" lon="13.08225054165449"><ele>160.66666666666666</ele><time>2026-04-04T13:13:42.001Z</time></trkpt><trkpt lat="46.11062348011096" lon="13.082480604331895"><ele>161.0</ele><time>2026-04-04T13:13:43.001Z</time></trkpt><trkpt lat="46.11067497217008" lon="13.082698038539423"><ele>161.25</ele><time>2026-04-04T13:13:44.001Z</time></trkpt><trkpt lat="46.11072307763155" lon="13.082894232535054"><ele>161.5</ele><time>2026-04-04T13:13:45.001Z</time></trkpt><trkpt lat="46.1107723722729" lon="13.083092884888552"><ele>161.75</ele><time>2026-04-04T13:13:46.001Z</time></trkpt><trkpt lat="46.1108226847576" lon="13.083306651225245"><ele>162.0</ele><time>2026-04-04T13:13:47.001Z</time></trkpt><trkpt lat="46.11087345133986" lon="13.083523969613315"><ele>163.33333333333334</ele><time>2026-04-04T13:13:48.001Z</time></trkpt><trkpt lat="46.11092213247173" lon="13.083738448293614"><ele>164.66666666666669</ele><time>2026-04-04T13:13:49.001Z</time></trkpt><trkpt lat="46.11096966117472" lon="13.083952499644404"><ele>166.0</ele><time>2026-04-04T13:13:50.001Z</time></trkpt><trkpt lat="46.11101483746538" lon="13.084159389127926"><ele>166.0</ele><time>2026-04-04T13:13:51.001Z</time></trkpt><trkpt lat="46.111052979852886" lon="13.08434877567387"><ele>166.0</ele><time>2026-04-04T13:13:52.001Z</time></trkpt><trkpt lat="46.111085052380716" lon="13.084547990330181"><ele>166.0</ele><time>2026-04-04T13:13:53.001Z</time></trkpt><trkpt lat="46.11111841142197" lon="13.084765081153373"><ele>166.0</ele><time>2026-04-04T13:13:54.001Z</time></trkpt><trkpt lat="46.11115122279385" lon="13.084994584294558"><ele>166.0</ele><time>2026-04-04T13:13:55.001Z</time></trkpt><trkpt lat="46.111183709046124" lon="13.085221809787662"><ele>166.0</ele><time>2026-04-04T13:13:56.001Z</time></trkpt><trkpt lat="46.111197965610096" lon="13.085442638711767"><ele>166.0</ele><time>2026-04-04T13:13:57.001Z</time></trkpt><trkpt lat="46.111211624342886" lon="13.085658991246147"><ele>166.25</ele><time>2026-04-04T13:13:58.001Z</time></trkpt><trkpt lat="46.111222864747404" lon="13.085859159171829"><ele>166.5</ele><time>2026-04-04T13:13:59.001Z</time></trkpt><trkpt lat="46.11123347566929" lon="13.086053936931616"><ele>166.75</ele><time>2026-04-04T13:14:00.001Z</time></trkpt><trkpt lat="46.11124428827498" lon="13.086255262117929"><ele>167.0</ele><time>2026-04-04T13:14:01.001Z</time></trkpt><trkpt lat="46.1112528307218" lon="13.086448905152963"><ele>167.0</ele><time>2026-04-04T13:14:02.001Z</time></trkpt><trkpt lat="46.11125780650341" lon="13.086646524019539"><ele>167.0</ele><time>2026-04-04T13:14:03.001Z</time></trkpt><trkpt lat="46.111255922199" lon="13.086828037018146"><ele>167.0</ele><time>2026-04-04T13:14:04.001Z</time></trkpt><trkpt lat="46.11123357496807" lon="13.086998330088512"><ele>167.0</ele><time>2026-04-04T13:14:05.001Z</time></trkpt><trkpt lat="46.111199919948646" lon="13.087168199803811"><ele>167.0</ele><time>2026-04-04T13:14:06.001Z</time></trkpt><trkpt lat="46.11116042424848" lon="13.087311171560327"><ele>167.0</ele><time>2026-04-04T13:14:07.001Z</time></trkpt><trkpt lat="46.1111025061401" lon="13.087446631732552"><ele>167.0</ele><time>2026-04-04T13:14:08.001Z</time></trkpt><trkpt lat="46.111018263481256" lon="13.087579832706487"><ele>167.0</ele><time>2026-04-04T13:14:09.001Z</time></trkpt><trkpt lat="46.11091853152477" lon="13.087726011962422"><ele>168.0</ele><time>2026-04-04T13:14:10.001Z</time></trkpt><trkpt lat="46.11080294583851" lon="13.087882166805114"><ele>169.0</ele><time>2026-04-04T13:14:11.001Z</time></trkpt><trkpt lat="46.11068223223011" lon="13.088054817468699"><ele>170.0</ele><time>2026-04-04T13:14:12.001Z</time></trkpt><trkpt lat="46.11057788875144" lon="13.08821817821091"><ele>168.66666666666666</ele><time>2026-04-04T13:14:13.001Z</time></trkpt><trkpt lat="46.11047644372651" lon="13.088395267719788"><ele>167.33333333333334</ele><time>2026-04-04T13:14:14.001Z</time></trkpt><trkpt lat="46.110384894369574" lon="13.0885700996835"><ele>166.0</ele><time>2026-04-04T13:14:15.001Z</time></trkpt><trkpt lat="46.110286119765874" lon="13.088740729510903"><ele>166.0</ele><time>2026-04-04T13:14:16.001Z</time></trkpt><trkpt lat="46.11018312967709" lon="13.08890281638523"><ele>166.0</ele><time>2026-04-04T13:14:17.001Z</time></trkpt><trkpt lat="46.11007985092938" lon="13.089061886476026"><ele>166.0</ele><time>2026-04-04T13:14:18.001Z</time></trkpt><trkpt lat="46.10999786777422" lon="13.089247671511648"><ele>165.25</ele><time>2026-04-04T13:14:19.001Z</time></trkpt><trkpt lat="46.1099008507417" lon="13.089410354031417"><ele>164.5</ele><time>2026-04-04T13:14:20.001Z</time></trkpt><trkpt lat="46.10979739151632" lon="13.0895611070378"><ele>163.75</ele><time>2026-04-04T13:14:21.001Z</time></trkpt><trkpt lat="46.10969835866531" lon="13.08970554930224"><ele>163.0</ele><time>2026-04-04T13:14:22.001Z</time></trkpt><trkpt lat="46.109584631402754" lon="13.089825197799158"><ele>163.75</ele><time>2026-04-04T13:14:23.001Z</time></trkpt><trkpt lat="46.109501949608266" lon="13.089986189932802"><ele>164.5</ele><time>2026-04-04T13:14:24.001Z</time></trkpt><trkpt lat="46.10943805427979" lon="13.090154776253266"><ele>165.25</ele><time>2026-04-04T13:14:25.001Z</time></trkpt><trkpt lat="46.10937595265509" lon="13.09034588416624"><ele>166.0</ele><time>2026-04-04T13:14:26.001Z</time></trkpt><trkpt lat="46.109322804661616" lon="13.09055200001729"><ele>166.0</ele><time>2026-04-04T13:14:27.001Z</time></trkpt><trkpt lat="46.10927432193781" lon="13.090755848489886"><ele>166.0</ele><time>2026-04-04T13:14:28.001Z</time></trkpt><trkpt lat="46.10923325618368" lon="13.09093831465766"><ele>166.0</ele><time>2026-04-04T13:14:29.001Z</time></trkpt><trkpt lat="46.10919295093238" lon="13.091105014092712"><ele>166.0</ele><time>2026-04-04T13:14:30.001Z</time></trkpt><trkpt lat="46.109139285445394" lon="13.091256571245474"><ele>165.5</ele><time>2026-04-04T13:14:31.001Z</time></trkpt><trkpt lat="46.10905992554835" lon="13.091404989899567"><ele>165.0</ele><time>2026-04-04T13:14:32.001Z</time></trkpt><trkpt lat="46.108956484469815" lon="13.091541907474994"><ele>164.5</ele><time>2026-04-04T13:14:33.001Z</time></trkpt><trkpt lat="46.10882527993045" lon="13.091678940506107"><ele>164.0</ele><time>2026-04-04T13:14:34.001Z</time></trkpt><trkpt lat="46.108684271814354" lon="13.091822928414233"><ele>164.0</ele><time>2026-04-04T13:14:35.001Z</time></trkpt><trkpt lat="46.10855628633065" lon="13.091953618519748"><ele>164.0</ele><time>2026-04-04T13:14:36.001Z</time></trkpt><trkpt lat="46.10843526533003" lon="13.092075715135381"><ele>164.0</ele><time>2026-04-04T13:14:37.001Z</time></trkpt><trkpt lat="46.10831417243696" lon="13.092197272132484"><ele>163.5</ele><time>2026-04-04T13:14:38.001Z</time></trkpt><trkpt lat="46.10819993724398" lon="13.092311944951797"><ele>163.0</ele><time>2026-04-04T13:14:39.001Z</time></trkpt><trkpt lat="46.1080867401784" lon="13.092426474104434"><ele>162.5</ele><time>2026-04-04T13:14:40.001Z</time></trkpt><trkpt lat="46.10798727055664" lon="13.092528418385221"><ele>162.0</ele><time>2026-04-04T13:14:41.001Z</time></trkpt><trkpt lat="46.10788825196334" lon="13.092618121918255"><ele>162.0</ele><time>2026-04-04T13:14:42.001Z</time></trkpt><trkpt lat="46.107774006937106" lon="13.09269094483528"><ele>162.0</ele><time>2026-04-04T13:14:43.001Z</time></trkpt><trkpt lat="46.1076479308924" lon="13.092739774295756"><ele>162.0</ele><time>2026-04-04T13:14:44.001Z</time></trkpt><trkpt lat="46.107496063645094" lon="13.092792549316698"><ele>162.0</ele><time>2026-04-04T13:14:45.001Z</time></trkpt><trkpt lat="46.107341049306314" lon="13.092856305369137"><ele>161.0</ele><time>2026-04-04T13:14:46.001Z</time></trkpt><trkpt lat="46.10719431693339" lon="13.092901579293772"><ele>160.0</ele><time>2026-04-04T13:14:47.001Z</time></trkpt><trkpt lat="46.10703632389748" lon="13.092947642638103"><ele>159.0</ele><time>2026-04-04T13:14:48.001Z</time></trkpt><trkpt lat="46.10687835266722" lon="13.092991377506891"><ele>159.0</ele><time>2026-04-04T13:14:49.001Z</time></trkpt><trkpt lat="46.10672716033117" lon="13.093052843578697"><ele>159.0</ele><time>2026-04-04T13:14:50.001Z</time></trkpt><trkpt lat="46.10659152057454" lon="13.093118784333786"><ele>159.0</ele><time>2026-04-04T13:14:51.001Z</time></trkpt><trkpt lat="46.10645718879563" lon="13.093157556486009"><ele>159.0</ele><time>2026-04-04T13:14:52.001Z</time></trkpt><trkpt lat="46.1063269152715" lon="13.093193498900888"><ele>158.25</ele><time>2026-04-04T13:14:53.001Z</time></trkpt><trkpt lat="46.10620234040006" lon="13.093255252440509"><ele>157.5</ele><time>2026-04-04T13:14:54.001Z</time></trkpt><trkpt lat="46.106069715503494" lon="13.093301371119233"><ele>156.75</ele><time>2026-04-04T13:14:55.001Z</time></trkpt><trkpt lat="46.10592667236315" lon="13.093357670342586"><ele>156.0</ele><time>2026-04-04T13:14:56.001Z</time></trkpt><trkpt lat="46.105789744212856" lon="13.093410959390413"><ele>155.0</ele><time>2026-04-04T13:14:57.001Z</time></trkpt><trkpt lat="46.10566150434647" lon="13.09346313472309"><ele>154.0</ele><time>2026-04-04T13:14:58.001Z</time></trkpt><trkpt lat="46.105529582660374" lon="13.093515199084983"><ele>153.0</ele><time>2026-04-04T13:14:59.001Z</time></trkpt><trkpt lat="46.105397080597214" lon="13.09356363455637"><ele>152.0</ele><time>2026-04-04T13:15:00.001Z</time></trkpt><trkpt lat="46.10526577561057" lon="13.093608784148202"><ele>152.0</ele><time>2026-04-04T13:15:01.001Z</time></trkpt><trkpt lat="46.105140402895316" lon="13.093656623088904"><ele>152.0</ele><time>2026-04-04T13:15:02.001Z</time></trkpt><trkpt lat="46.10501570967097" lon="13.093704300043504"><ele>152.0</ele><time>2026-04-04T13:15:03.001Z</time></trkpt><trkpt lat="46.104885393802626" lon="13.09375643951083"><ele>152.0</ele><time>2026-04-04T13:15:04.001Z</time></trkpt><trkpt lat="46.10475030105622" lon="13.0938104294385"><ele>151.25</ele><time>2026-04-04T13:15:05.001Z</time></trkpt><trkpt lat="46.10460918246102" lon="13.093861220255379"><ele>150.5</ele><time>2026-04-04T13:15:06.001Z</time></trkpt><trkpt lat="46.10446567257961" lon="13.093913611504526"><ele>149.75</ele><time>2026-04-04T13:15:07.001Z</time></trkpt><trkpt lat="46.10431961338013" lon="13.093967328474996"><ele>149.0</ele><time>2026-04-04T13:15:08.001Z</time></trkpt><trkpt lat="46.104178108250345" lon="13.094022257839065"><ele>148.75</ele><time>2026-04-04T13:15:09.001Z</time></trkpt><trkpt lat="46.10404691545782" lon="13.094074619693505"><ele>148.5</ele><time>2026-04-04T13:15:10.001Z</time></trkpt><trkpt lat="46.10392101763788" lon="13.094128328530463"><ele>148.25</ele><time>2026-04-04T13:15:11.001Z</time></trkpt><trkpt lat="46.103780789450695" lon="13.094186831350047"><ele>148.0</ele><time>2026-04-04T13:15:12.001Z</time></trkpt><trkpt lat="46.10364205127476" lon="13.094251496563336"><ele>147.75</ele><time>2026-04-04T13:15:13.001Z</time></trkpt><trkpt lat="46.10350147563171" lon="13.094321901871186"><ele>147.5</ele><time>2026-04-04T13:15:14.001Z</time></trkpt><trkpt lat="46.10336406912238" lon="13.094406554997434"><ele>147.25</ele><time>2026-04-04T13:15:15.001Z</time></trkpt><trkpt lat="46.10323234619819" lon="13.094491818336897"><ele>147.0</ele><time>2026-04-04T13:15:16.001Z</time></trkpt><trkpt lat="46.103107004401004" lon="13.094570351956557"><ele>146.5</ele><time>2026-04-04T13:15:17.001Z</time></trkpt><trkpt lat="46.102986405774885" lon="13.094645824239077"><ele>146.0</ele><time>2026-04-04T13:15:18.001Z</time></trkpt><trkpt lat="46.102862861528166" lon="13.09472641635785"><ele>145.5</ele><time>2026-04-04T13:15:19.001Z</time></trkpt><trkpt lat="46.10273520983965" lon="13.094808591564464"><ele>145.0</ele><time>2026-04-04T13:15:20.001Z</time></trkpt><trkpt lat="46.10260369825028" lon="13.09488962125718"><ele>145.0</ele><time>2026-04-04T13:15:21.001Z</time></trkpt><trkpt lat="46.10247098472852" lon="13.094975773060922"><ele>145.0</ele><time>2026-04-04T13:15:22.001Z</time></trkpt><trkpt lat="46.102335872226334" lon="13.095062832792983"><ele>145.0</ele><time>2026-04-04T13:15:23.001Z</time></trkpt><trkpt lat="46.1021977983579" lon="13.095153341271647"><ele>145.0</ele><time>2026-04-04T13:15:24.001Z</time></trkpt><trkpt lat="46.102057855501535" lon="13.095239338046161"><ele>145.0</ele><time>2026-04-04T13:15:25.001Z</time></trkpt><trkpt lat="46.10192759188729" lon="13.09531955144719"><ele>145.0</ele><time>2026-04-04T13:15:26.001Z</time></trkpt><trkpt lat="46.101797765516714" lon="13.095391729063593"><ele>145.0</ele><time>2026-04-04T13:15:27.001Z</time></trkpt><trkpt lat="46.101657127729545" lon="13.095426468624911"><ele>145.0</ele><time>2026-04-04T13:15:28.001Z</time></trkpt><trkpt lat="46.1015248470736" lon="13.095486630316651"><ele>144.25</ele><time>2026-04-04T13:15:29.001Z</time></trkpt><trkpt lat="46.10139437873382" lon="13.09554473956624"><ele>143.5</ele><time>2026-04-04T13:15:30.001Z</time></trkpt><trkpt lat="46.10126634882093" lon="13.095601762818136"><ele>142.75</ele><time>2026-04-04T13:15:31.001Z</time></trkpt><trkpt lat="46.101153882321604" lon="13.095691017841759"><ele>142.0</ele><time>2026-04-04T13:15:32.001Z</time></trkpt><trkpt lat="46.10104987863856" lon="13.095750404654556"><ele>141.5</ele><time>2026-04-04T13:15:33.001Z</time></trkpt><trkpt lat="46.10094296631686" lon="13.095797849939657"><ele>141.0</ele><time>2026-04-04T13:15:34.001Z</time></trkpt><trkpt lat="46.100818797165886" lon="13.095840500724101"><ele>140.5</ele><time>2026-04-04T13:15:35.001Z</time></trkpt><trkpt lat="46.10069509156205" lon="13.09590136960088"><ele>140.0</ele><time>2026-04-04T13:15:36.001Z</time></trkpt><trkpt lat="46.10056776192049" lon="13.095958679457912"><ele>140.0</ele><time>2026-04-04T13:15:37.001Z</time></trkpt><trkpt lat="46.10042518626505" lon="13.095977523113008"><ele>140.0</ele><time>2026-04-04T13:15:38.001Z</time></trkpt><trkpt lat="46.10028814243858" lon="13.096038832161568"><ele>140.0</ele><time>2026-04-04T13:15:39.001Z</time></trkpt><trkpt lat="46.10014931911118" lon="13.096100937340255"><ele>140.0</ele><time>2026-04-04T13:15:40.001Z</time></trkpt><trkpt lat="46.10001661740752" lon="13.096160303915356"><ele>139.5</ele><time>2026-04-04T13:15:41.001Z</time></trkpt><trkpt lat="46.099891582185705" lon="13.096216240732506"><ele>139.0</ele><time>2026-04-04T13:15:42.001Z</time></trkpt><trkpt lat="46.09977287331151" lon="13.096269347303398"><ele>138.5</ele><time>2026-04-04T13:15:43.001Z</time></trkpt><trkpt lat="46.09966227958598" lon="13.09631912267574"><ele>138.0</ele><time>2026-04-04T13:15:44.001Z</time></trkpt><trkpt lat="46.09957242445548" lon="13.096381301602992"><ele>138.0</ele><time>2026-04-04T13:15:45.001Z</time></trkpt><trkpt lat="46.09947954094308" lon="13.096401425638735"><ele>138.0</ele><time>2026-04-04T13:15:46.001Z</time></trkpt><trkpt lat="46.09939202080743" lon="13.096464546551584"><ele>138.0</ele><time>2026-04-04T13:15:47.001Z</time></trkpt><trkpt lat="46.09929328308762" lon="13.096488420424372"><ele>138.0</ele><time>2026-04-04T13:15:48.001Z</time></trkpt><trkpt lat="46.0992104192971" lon="13.09653681283099"><ele>138.0</ele><time>2026-04-04T13:15:49.001Z</time></trkpt><trkpt lat="46.09914276828595" lon="13.096589999687703"><ele>138.0</ele><time>2026-04-04T13:15:50.001Z</time></trkpt><trkpt lat="46.09903315074916" lon="13.096662030047975"><ele>138.0</ele><time>2026-04-04T13:15:52.001Z</time></trkpt><trkpt lat="46.09896028491589" lon="13.096650860888495"><ele>138.0</ele><time>2026-04-04T13:15:53.001Z</time></trkpt><trkpt lat="46.09888172693794" lon="13.096603721025348"><ele>138.0</ele><time>2026-04-04T13:15:54.001Z</time></trkpt><trkpt lat="46.09879081248157" lon="13.096540864350262"><ele>138.0</ele><time>2026-04-04T13:15:55.001Z</time></trkpt><trkpt lat="46.098700648748164" lon="13.096502724322143"><ele>138.0</ele><time>2026-04-04T13:15:56.001Z</time></trkpt><trkpt lat="46.098609230430824" lon="13.09650913881409"><ele>138.0</ele><time>2026-04-04T13:15:57.001Z</time></trkpt><trkpt lat="46.098518402528995" lon="13.096510089744834"><ele>138.0</ele><time>2026-04-04T13:15:58.001Z</time></trkpt><trkpt lat="46.09843395155676" lon="13.096591238002798"><ele>138.0</ele><time>2026-04-04T13:15:59.001Z</time></trkpt><trkpt lat="46.0983640029241" lon="13.096701816381039"><ele>138.0</ele><time>2026-04-04T13:16:00.001Z</time></trkpt><trkpt lat="46.098330761898545" lon="13.096840980627762"><ele>138.0</ele><time>2026-04-04T13:16:01.001Z</time></trkpt><trkpt lat="46.09830873759219" lon="13.096972394365938"><ele>138.0</ele><time>2026-04-04T13:16:02.001Z</time></trkpt><trkpt lat="46.09831121481966" lon="13.097108857077773"><ele>138.0</ele><time>2026-04-04T13:16:03.001Z</time></trkpt><trkpt lat="46.09833655739715" lon="13.097243907068792"><ele>138.0</ele><time>2026-04-04T13:16:04.001Z</time></trkpt><trkpt lat="46.09837269361854" lon="13.09740057191057"><ele>138.0</ele><time>2026-04-04T13:16:05.001Z</time></trkpt><trkpt lat="46.09838523439294" lon="13.09758517742376"><ele>138.0</ele><time>2026-04-04T13:16:06.001Z</time></trkpt><trkpt lat="46.09836358789152" lon="13.097791026534939"><ele>138.0</ele><time>2026-04-04T13:16:07.001Z</time></trkpt><trkpt lat="46.098357878050365" lon="13.097994674224584"><ele>138.0</ele><time>2026-04-04T13:16:08.001Z</time></trkpt><trkpt lat="46.09835758628675" lon="13.09821294296937"><ele>138.0</ele><time>2026-04-04T13:16:09.001Z</time></trkpt><trkpt lat="46.09837223035093" lon="13.098409711616195"><ele>138.0</ele><time>2026-04-04T13:16:10.001Z</time></trkpt><trkpt lat="46.09839743213511" lon="13.098587457467755"><ele>138.0</ele><time>2026-04-04T13:16:11.001Z</time></trkpt><trkpt lat="46.09840855707117" lon="13.09878238631166"><ele>138.0</ele><time>2026-04-04T13:16:12.001Z</time></trkpt><trkpt lat="46.098426953241656" lon="13.098979741885678"><ele>138.0</ele><time>2026-04-04T13:16:13.001Z</time></trkpt><trkpt lat="46.09844178282706" lon="13.099182268663085"><ele>137.75</ele><time>2026-04-04T13:16:14.001Z</time></trkpt><trkpt lat="46.09845947487867" lon="13.099382557787942"><ele>137.5</ele><time>2026-04-04T13:16:15.001Z</time></trkpt><trkpt lat="46.09847778801117" lon="13.09958947870063"><ele>137.25</ele><time>2026-04-04T13:16:16.001Z</time></trkpt><trkpt lat="46.09849580020423" lon="13.099799100323636"><ele>137.0</ele><time>2026-04-04T13:16:17.001Z</time></trkpt><trkpt lat="46.09851496227823" lon="13.100009300418838"><ele>137.0</ele><time>2026-04-04T13:16:18.001Z</time></trkpt><trkpt lat="46.098534585324934" lon="13.100218593982515"><ele>137.0</ele><time>2026-04-04T13:16:19.001Z</time></trkpt><trkpt lat="46.09855597418617" lon="13.100411187098805"><ele>137.0</ele><time>2026-04-04T13:16:20.001Z</time></trkpt><trkpt lat="46.098549518571424" lon="13.100600634248227"><ele>137.0</ele><time>2026-04-04T13:16:21.001Z</time></trkpt><trkpt lat="46.09856485739322" lon="13.100785430751445"><ele>136.75</ele><time>2026-04-04T13:16:22.001Z</time></trkpt><trkpt lat="46.09858035970333" lon="13.100970936481234"><ele>136.5</ele><time>2026-04-04T13:16:23.001Z</time></trkpt><trkpt lat="46.098595973023706" lon="13.101158862867138"><ele>136.25</ele><time>2026-04-04T13:16:24.001Z</time></trkpt><trkpt lat="46.098611896310615" lon="13.101351062811396"><ele>136.0</ele><time>2026-04-04T13:16:25.001Z</time></trkpt><trkpt lat="46.09862782024588" lon="13.101540098365408"><ele>135.75</ele><time>2026-04-04T13:16:26.001Z</time></trkpt><trkpt lat="46.09864332487208" lon="13.101728528303681"><ele>135.5</ele><time>2026-04-04T13:16:27.001Z</time></trkpt><trkpt lat="46.098658655312796" lon="13.101920745071176"><ele>135.25</ele><time>2026-04-04T13:16:28.001Z</time></trkpt><trkpt lat="46.09867405942394" lon="13.102113559902454"><ele>135.0</ele><time>2026-04-04T13:16:29.001Z</time></trkpt><trkpt lat="46.09868964763833" lon="13.102306583351938"><ele>135.25</ele><time>2026-04-04T13:16:30.001Z</time></trkpt><trkpt lat="46.09870448205353" lon="13.102501131432923"><ele>135.5</ele><time>2026-04-04T13:16:31.001Z</time></trkpt><trkpt lat="46.098720382511964" lon="13.102696798651142"><ele>135.75</ele><time>2026-04-04T13:16:32.001Z</time></trkpt><trkpt lat="46.098737271905115" lon="13.102903618151593"><ele>136.0</ele><time>2026-04-04T13:16:33.001Z</time></trkpt><trkpt lat="46.098753433115014" lon="13.103101518389256"><ele>136.25</ele><time>2026-04-04T13:16:34.001Z</time></trkpt><trkpt lat="46.0987694874488" lon="13.103299761183255"><ele>136.5</ele><time>2026-04-04T13:16:35.001Z</time></trkpt><trkpt lat="46.09878382730696" lon="13.103497383857427"><ele>136.75</ele><time>2026-04-04T13:16:36.001Z</time></trkpt><trkpt lat="46.098795434445144" lon="13.103701567384325"><ele>137.0</ele><time>2026-04-04T13:16:37.001Z</time></trkpt><trkpt lat="46.09881460898667" lon="13.103876342862758"><ele>137.0</ele><time>2026-04-04T13:16:38.001Z</time></trkpt><trkpt lat="46.09882768386971" lon="13.10404699069309"><ele>137.0</ele><time>2026-04-04T13:16:39.001Z</time></trkpt><trkpt lat="46.098841873129096" lon="13.104232182699448"><ele>137.0</ele><time>2026-04-04T13:16:40.001Z</time></trkpt><trkpt lat="46.09885717179612" lon="13.104422681587982"><ele>137.0</ele><time>2026-04-04T13:16:41.001Z</time></trkpt><trkpt lat="46.09890180093074" lon="13.104612915995446"><ele>137.25</ele><time>2026-04-04T13:16:42.001Z</time></trkpt><trkpt lat="46.0989164680196" lon="13.104813575332454"><ele>137.5</ele><time>2026-04-04T13:16:43.001Z</time></trkpt><trkpt lat="46.09893500058882" lon="13.105009750644188"><ele>137.75</ele><time>2026-04-04T13:16:44.001Z</time></trkpt><trkpt lat="46.09895161426231" lon="13.105181302576772"><ele>138.0</ele><time>2026-04-04T13:16:45.001Z</time></trkpt><trkpt lat="46.09893057591785" lon="13.105345155735575"><ele>138.0</ele><time>2026-04-04T13:16:46.001Z</time></trkpt><trkpt lat="46.09894077712259" lon="13.105517398326123"><ele>138.0</ele><time>2026-04-04T13:16:47.001Z</time></trkpt><trkpt lat="46.09898231190437" lon="13.105699492454306"><ele>138.0</ele><time>2026-04-04T13:16:48.001Z</time></trkpt><trkpt lat="46.09898630670838" lon="13.105890214694654"><ele>138.0</ele><time>2026-04-04T13:16:49.001Z</time></trkpt><trkpt lat="46.09898641326076" lon="13.10608487122964"><ele>138.25</ele><time>2026-04-04T13:16:50.001Z</time></trkpt><trkpt lat="46.09898113126737" lon="13.106279598583654"><ele>138.5</ele><time>2026-04-04T13:16:51.001Z</time></trkpt><trkpt lat="46.09897011417036" lon="13.106476251345873"><ele>138.75</ele><time>2026-04-04T13:16:52.001Z</time></trkpt><trkpt lat="46.09892299243587" lon="13.106668666889798"><ele>139.0</ele><time>2026-04-04T13:16:53.001Z</time></trkpt><trkpt lat="46.098897542475235" lon="13.106864166802442"><ele>139.25</ele><time>2026-04-04T13:16:54.001Z</time></trkpt><trkpt lat="46.098868183591286" lon="13.107059749033423"><ele>139.5</ele><time>2026-04-04T13:16:55.001Z</time></trkpt><trkpt lat="46.09883536930193" lon="13.107252689528577"><ele>139.75</ele><time>2026-04-04T13:16:56.001Z</time></trkpt><trkpt lat="46.09880201604144" lon="13.10743672237323"><ele>140.0</ele><time>2026-04-04T13:16:57.001Z</time></trkpt><trkpt lat="46.09877000918122" lon="13.107611587048384"><ele>140.5</ele><time>2026-04-04T13:16:58.001Z</time></trkpt><trkpt lat="46.09873696748831" lon="13.10778871920803"><ele>141.0</ele><time>2026-04-04T13:16:59.001Z</time></trkpt><trkpt lat="46.09870106115159" lon="13.107978513881035"><ele>141.5</ele><time>2026-04-04T13:17:00.001Z</time></trkpt><trkpt lat="46.098660971879546" lon="13.108184944470162"><ele>142.0</ele><time>2026-04-04T13:17:01.001Z</time></trkpt><trkpt lat="46.09862147652937" lon="13.10838831680608"><ele>142.25</ele><time>2026-04-04T13:17:02.001Z</time></trkpt><trkpt lat="46.09857834826003" lon="13.108610396025487"><ele>142.5</ele><time>2026-04-04T13:17:03.001Z</time></trkpt><trkpt lat="46.098538597029844" lon="13.108816368223524"><ele>142.75</ele><time>2026-04-04T13:17:04.001Z</time></trkpt><trkpt lat="46.098503508164775" lon="13.108999248633666"><ele>143.0</ele><time>2026-04-04T13:17:05.001Z</time></trkpt><trkpt lat="46.09846987302221" lon="13.109174552661127"><ele>143.0</ele><time>2026-04-04T13:17:06.001Z</time></trkpt><trkpt lat="46.098433924645626" lon="13.109361912913219"><ele>143.0</ele><time>2026-04-04T13:17:07.001Z</time></trkpt><trkpt lat="46.09839799026926" lon="13.109549200232479"><ele>143.0</ele><time>2026-04-04T13:17:08.001Z</time></trkpt><trkpt lat="46.09836063930377" lon="13.109743870660338"><ele>143.0</ele><time>2026-04-04T13:17:09.001Z</time></trkpt><trkpt lat="46.0983232283974" lon="13.109938853577003"><ele>143.0</ele><time>2026-04-04T13:17:10.001Z</time></trkpt><trkpt lat="46.09828550833721" lon="13.110135447753537"><ele>143.0</ele><time>2026-04-04T13:17:11.001Z</time></trkpt><trkpt lat="46.09824831112643" lon="13.110329316897618"><ele>143.0</ele><time>2026-04-04T13:17:12.001Z</time></trkpt><trkpt lat="46.098212951148426" lon="13.110513610555628"><ele>143.0</ele><time>2026-04-04T13:17:13.001Z</time></trkpt><trkpt lat="46.09818120886133" lon="13.110680892283671"><ele>143.25</ele><time>2026-04-04T13:17:14.001Z</time></trkpt><trkpt lat="46.098148946050856" lon="13.110851925440981"><ele>143.5</ele><time>2026-04-04T13:17:15.001Z</time></trkpt><trkpt lat="46.098131547521845" lon="13.111034606822026"><ele>143.75</ele><time>2026-04-04T13:17:16.001Z</time></trkpt><trkpt lat="46.09807907571788" lon="13.111210269013784"><ele>144.0</ele><time>2026-04-04T13:17:17.001Z</time></trkpt><trkpt lat="46.09804102907735" lon="13.111398668006865"><ele>144.25</ele><time>2026-04-04T13:17:18.001Z</time></trkpt><trkpt lat="46.09799929014461" lon="13.11158944051954"><ele>144.5</ele><time>2026-04-04T13:17:19.001Z</time></trkpt><trkpt lat="46.09795649463981" lon="13.111785057415764"><ele>144.75</ele><time>2026-04-04T13:17:20.001Z</time></trkpt><trkpt lat="46.0979093217703" lon="13.11199237278694"><ele>145.0</ele><time>2026-04-04T13:17:21.001Z</time></trkpt><trkpt lat="46.097862434716795" lon="13.112196659010715"><ele>144.66666666666669</ele><time>2026-04-04T13:17:22.001Z</time></trkpt><trkpt lat="46.09781406902168" lon="13.112407387691029"><ele>144.33333333333334</ele><time>2026-04-04T13:17:23.001Z</time></trkpt><trkpt lat="46.097764704827235" lon="13.112612446861723"><ele>144.0</ele><time>2026-04-04T13:17:24.001Z</time></trkpt><trkpt lat="46.097714311514785" lon="13.112818309231724"><ele>144.0</ele><time>2026-04-04T13:17:25.001Z</time></trkpt><trkpt lat="46.097663575011005" lon="13.113013599805862"><ele>144.0</ele><time>2026-04-04T13:17:26.001Z</time></trkpt><trkpt lat="46.09761422308163" lon="13.113201794857863"><ele>144.0</ele><time>2026-04-04T13:17:27.001Z</time></trkpt><trkpt lat="46.0975653547656" lon="13.11338001746191"><ele>144.0</ele><time>2026-04-04T13:17:28.001Z</time></trkpt><trkpt lat="46.09751566304277" lon="13.113558417392712"><ele>144.25</ele><time>2026-04-04T13:17:29.001Z</time></trkpt><trkpt lat="46.097464330194754" lon="13.113734044160859"><ele>144.5</ele><time>2026-04-04T13:17:30.001Z</time></trkpt><trkpt lat="46.09741243475821" lon="13.113911088524874"><ele>144.75</ele><time>2026-04-04T13:17:31.001Z</time></trkpt><trkpt lat="46.09735702963057" lon="13.114092318950625"><ele>145.0</ele><time>2026-04-04T13:17:32.001Z</time></trkpt><trkpt lat="46.097302674020135" lon="13.114270116015442"><ele>145.0</ele><time>2026-04-04T13:17:33.001Z</time></trkpt><trkpt lat="46.09724443799523" lon="13.114449640395527"><ele>145.0</ele><time>2026-04-04T13:17:34.001Z</time></trkpt><trkpt lat="46.097184051783266" lon="13.11463040933074"><ele>145.0</ele><time>2026-04-04T13:17:35.001Z</time></trkpt><trkpt lat="46.09712146599087" lon="13.114809247078659"><ele>145.0</ele><time>2026-04-04T13:17:36.001Z</time></trkpt><trkpt lat="46.097050177126484" lon="13.115010312298097"><ele>145.0</ele><time>2026-04-04T13:17:37.001Z</time></trkpt><trkpt lat="46.09697621138347" lon="13.115218380179229"><ele>145.0</ele><time>2026-04-04T13:17:38.001Z</time></trkpt><trkpt lat="46.096903848101434" lon="13.11542024915033"><ele>145.0</ele><time>2026-04-04T13:17:39.001Z</time></trkpt><trkpt lat="46.09684685498145" lon="13.115630666944034"><ele>145.0</ele><time>2026-04-04T13:17:40.001Z</time></trkpt><trkpt lat="46.096754372020456" lon="13.11583624493223"><ele>145.0</ele><time>2026-04-04T13:17:41.001Z</time></trkpt><trkpt lat="46.09667763661399" lon="13.11604921486893"><ele>145.0</ele><time>2026-04-04T13:17:42.001Z</time></trkpt><trkpt lat="46.09660066873316" lon="13.11626283000206"><ele>144.33333333333334</ele><time>2026-04-04T13:17:43.001Z</time></trkpt><trkpt lat="46.09652463597231" lon="13.116474344186841"><ele>143.66666666666666</ele><time>2026-04-04T13:17:44.001Z</time></trkpt><trkpt lat="46.09645317321513" lon="13.116674825740466"><ele>143.0</ele><time>2026-04-04T13:17:45.001Z</time></trkpt><trkpt lat="46.096384130282374" lon="13.116868518922873"><ele>143.0</ele><time>2026-04-04T13:17:46.001Z</time></trkpt><trkpt lat="46.09631495186008" lon="13.117062591821155"><ele>143.0</ele><time>2026-04-04T13:17:47.001Z</time></trkpt><trkpt lat="46.09624232150164" lon="13.117266349099365"><ele>143.0</ele><time>2026-04-04T13:17:48.001Z</time></trkpt><trkpt lat="46.09616930207268" lon="13.117471197613584"><ele>142.66666666666666</ele><time>2026-04-04T13:17:49.001Z</time></trkpt><trkpt lat="46.09609317166473" lon="13.117684778561086"><ele>142.33333333333334</ele><time>2026-04-04T13:17:50.001Z</time></trkpt><trkpt lat="46.0960164384718" lon="13.117903228906357"><ele>142.0</ele><time>2026-04-04T13:17:51.001Z</time></trkpt><trkpt lat="46.095940703160515" lon="13.118117047148953"><ele>141.66666666666669</ele><time>2026-04-04T13:17:52.001Z</time></trkpt><trkpt lat="46.095862696968936" lon="13.118337008415672"><ele>141.33333333333334</ele><time>2026-04-04T13:17:53.001Z</time></trkpt><trkpt lat="46.09578515310133" lon="13.118555665906202"><ele>141.0</ele><time>2026-04-04T13:17:54.001Z</time></trkpt><trkpt lat="46.09570641227952" lon="13.118777698683381"><ele>141.0</ele><time>2026-04-04T13:17:55.001Z</time></trkpt><trkpt lat="46.095628468102525" lon="13.118997487882172"><ele>141.0</ele><time>2026-04-04T13:17:56.001Z</time></trkpt><trkpt lat="46.095553388507184" lon="13.119211812772487"><ele>141.0</ele><time>2026-04-04T13:17:57.001Z</time></trkpt><trkpt lat="46.09548618669977" lon="13.11940502706386"><ele>140.66666666666666</ele><time>2026-04-04T13:17:58.001Z</time></trkpt><trkpt lat="46.0954222369337" lon="13.119593378529625"><ele>140.33333333333331</ele><time>2026-04-04T13:17:59.001Z</time></trkpt><trkpt lat="46.095357935932064" lon="13.119787270960723"><ele>140.0</ele><time>2026-04-04T13:18:00.001Z</time></trkpt><trkpt lat="46.09528893309408" lon="13.120003826421632"><ele>140.0</ele><time>2026-04-04T13:18:01.001Z</time></trkpt><trkpt lat="46.095218624605515" lon="13.12022714107137"><ele>140.0</ele><time>2026-04-04T13:18:02.001Z</time></trkpt><trkpt lat="46.09514622700054" lon="13.120462963927233"><ele>140.0</ele><time>2026-04-04T13:18:03.001Z</time></trkpt><trkpt lat="46.095076051231544" lon="13.120695523177336"><ele>140.0</ele><time>2026-04-04T13:18:04.001Z</time></trkpt><trkpt lat="46.09501428572829" lon="13.120944923110189"><ele>140.0</ele><time>2026-04-04T13:18:05.001Z</time></trkpt><trkpt lat="46.09493793861142" lon="13.121192391929124"><ele>140.0</ele><time>2026-04-04T13:18:06.001Z</time></trkpt><trkpt lat="46.094863522564985" lon="13.121441615071744"><ele>139.0</ele><time>2026-04-04T13:18:07.001Z</time></trkpt><trkpt lat="46.09477689006232" lon="13.121674306373011"><ele>138.0</ele><time>2026-04-04T13:18:08.001Z</time></trkpt><trkpt lat="46.09472073832419" lon="13.121934373278593"><ele>137.0</ele><time>2026-04-04T13:18:09.001Z</time></trkpt><trkpt lat="46.094638289476535" lon="13.122192042090987"><ele>137.0</ele><time>2026-04-04T13:18:10.001Z</time></trkpt><trkpt lat="46.09456685872666" lon="13.122461055512566"><ele>137.0</ele><time>2026-04-04T13:18:11.001Z</time></trkpt><trkpt lat="46.09449506262614" lon="13.122725675267427"><ele>137.0</ele><time>2026-04-04T13:18:12.001Z</time></trkpt><trkpt lat="46.09442401257751" lon="13.122985134273025"><ele>137.0</ele><time>2026-04-04T13:18:13.001Z</time></trkpt><trkpt lat="46.09435901955676" lon="13.12322255604813"><ele>137.0</ele><time>2026-04-04T13:18:14.001Z</time></trkpt><trkpt lat="46.094296326517195" lon="13.123451575926504"><ele>137.0</ele><time>2026-04-04T13:18:15.001Z</time></trkpt><trkpt lat="46.09423372029235" lon="13.123677841653205"><ele>137.33333333333331</ele><time>2026-04-04T13:18:16.001Z</time></trkpt><trkpt lat="46.094170143077555" lon="13.123904335439956"><ele>137.66666666666666</ele><time>2026-04-04T13:18:17.001Z</time></trkpt><trkpt lat="46.09410486748421" lon="13.12413687973769"><ele>138.0</ele><time>2026-04-04T13:18:18.001Z</time></trkpt><trkpt lat="46.0940387270718" lon="13.124372504641329"><ele>138.0</ele><time>2026-04-04T13:18:19.001Z</time></trkpt><trkpt lat="46.09396985562521" lon="13.124618336109453"><ele>138.0</ele><time>2026-04-04T13:18:20.001Z</time></trkpt><trkpt lat="46.093899637861625" lon="13.124868944186883"><ele>138.0</ele><time>2026-04-04T13:18:21.001Z</time></trkpt><trkpt lat="46.09382817149524" lon="13.125124008388166"><ele>138.0</ele><time>2026-04-04T13:18:22.001Z</time></trkpt><trkpt lat="46.09375770662668" lon="13.1253754983392"><ele>138.0</ele><time>2026-04-04T13:18:23.001Z</time></trkpt><trkpt lat="46.093692425089394" lon="13.125607848191217"><ele>138.0</ele><time>2026-04-04T13:18:24.001Z</time></trkpt><trkpt lat="46.09363014012931" lon="13.125824947750175"><ele>138.0</ele><time>2026-04-04T13:18:25.001Z</time></trkpt><trkpt lat="46.09356980060062" lon="13.126035589861575"><ele>138.0</ele><time>2026-04-04T13:18:26.001Z</time></trkpt><trkpt lat="46.093506090363476" lon="13.126243270578524"><ele>138.0</ele><time>2026-04-04T13:18:27.001Z</time></trkpt><trkpt lat="46.093442089261046" lon="13.126433598935579"><ele>137.75</ele><time>2026-04-04T13:18:28.001Z</time></trkpt><trkpt lat="46.09338228473776" lon="13.126610233527813"><ele>137.5</ele><time>2026-04-04T13:18:29.001Z</time></trkpt><trkpt lat="46.093320052388236" lon="13.126790554881238"><ele>137.25</ele><time>2026-04-04T13:18:30.001Z</time></trkpt><trkpt lat="46.09325439853026" lon="13.126976861532194"><ele>137.0</ele><time>2026-04-04T13:18:31.001Z</time></trkpt><trkpt lat="46.09319257639805" lon="13.127150335967627"><ele>137.0</ele><time>2026-04-04T13:18:32.001Z</time></trkpt><trkpt lat="46.09313300943566" lon="13.127315321154205"><ele>137.0</ele><time>2026-04-04T13:18:33.001Z</time></trkpt><trkpt lat="46.093075401403595" lon="13.127477603484547"><ele>137.0</ele><time>2026-04-04T13:18:34.001Z</time></trkpt><trkpt lat="46.093018306307286" lon="13.12764229201305"><ele>137.0</ele><time>2026-04-04T13:18:35.001Z</time></trkpt><trkpt lat="46.092963023247" lon="13.127804739660808"><ele>136.75</ele><time>2026-04-04T13:18:36Z</time></trkpt><trkpt lat="46.09290640277091" lon="13.127971117221122"><ele>136.5</ele><time>2026-04-04T13:18:37Z</time></trkpt><trkpt lat="46.09285087540753" lon="13.12813428274527"><ele>136.25</ele><time>2026-04-04T13:18:38Z</time></trkpt><trkpt lat="46.09280004965165" lon="13.128284491849218"><ele>136.0</ele><time>2026-04-04T13:18:39Z</time></trkpt><trkpt lat="46.092749603878815" lon="13.128432036703618"><ele>136.0</ele><time>2026-04-04T13:18:40Z</time></trkpt><trkpt lat="46.092703471015206" lon="13.128566627241694"><ele>136.0</ele><time>2026-04-04T13:18:41Z</time></trkpt><trkpt lat="46.09266637560151" lon="13.128674654095924"><ele>136.0</ele><time>2026-04-04T13:18:42Z</time></trkpt><trkpt lat="46.092636613698296" lon="13.12876159105882"><ele>136.0</ele><time>2026-04-04T13:18:43Z</time></trkpt><trkpt lat="46.092593416730296" lon="13.128889923407932"><ele>136.0</ele><time>2026-04-04T13:18:45Z</time></trkpt><trkpt lat="46.09253915629018" lon="13.129051593959066"><ele>136.0</ele><time>2026-04-04T13:18:47Z</time></trkpt><trkpt lat="46.09250264938374" lon="13.12916496441819"><ele>136.0</ele><time>2026-04-04T13:18:48Z</time></trkpt><trkpt lat="46.09247133395323" lon="13.129263037767736"><ele>136.0</ele><time>2026-04-04T13:18:49Z</time></trkpt><trkpt lat="46.0924677886022" lon="13.129376997467944"><ele>136.0</ele><time>2026-04-04T13:18:50Z</time></trkpt><trkpt lat="46.092434172271254" lon="13.129468571886173"><ele>136.0</ele><time>2026-04-04T13:18:51Z</time></trkpt><trkpt lat="46.09240122106836" lon="13.129566012721678"><ele>136.0</ele><time>2026-04-04T13:18:52Z</time></trkpt><trkpt lat="46.09237323927002" lon="13.129649410795675"><ele>135.66666666666669</ele><time>2026-04-04T13:18:53Z</time></trkpt><trkpt lat="46.09232472143776" lon="13.129718829789793"><ele>135.33333333333334</ele><time>2026-04-04T13:18:54Z</time></trkpt><trkpt lat="46.09229017386934" lon="13.129820869694395"><ele>135.0</ele><time>2026-04-04T13:18:55Z</time></trkpt><trkpt lat="46.092250224736" lon="13.129932962191972"><ele>134.66666666666666</ele><time>2026-04-04T13:18:56Z</time></trkpt><trkpt lat="46.09221001125575" lon="13.130050403146114"><ele>134.33333333333331</ele><time>2026-04-04T13:18:57Z</time></trkpt><trkpt lat="46.09217345900028" lon="13.130165281679773"><ele>134.0</ele><time>2026-04-04T13:18:58Z</time></trkpt><trkpt lat="46.09214708540518" lon="13.130297262183003"><ele>134.0</ele><time>2026-04-04T13:18:59Z</time></trkpt><trkpt lat="46.09210316003368" lon="13.13043552552837"><ele>134.0</ele><time>2026-04-04T13:19:00Z</time></trkpt><trkpt lat="46.09206446031142" lon="13.13058452724354"><ele>134.0</ele><time>2026-04-04T13:19:01Z</time></trkpt><trkpt lat="46.09200727992307" lon="13.130730029851149"><ele>134.0</ele><time>2026-04-04T13:19:02Z</time></trkpt><trkpt lat="46.091963451523945" lon="13.130891378890395"><ele>134.0</ele><time>2026-04-04T13:19:03Z</time></trkpt><trkpt lat="46.091910317236675" lon="13.13109130739515"><ele>134.0</ele><time>2026-04-04T13:19:04Z</time></trkpt><trkpt lat="46.09184418900942" lon="13.131360942766005"><ele>134.0</ele><time>2026-04-04T13:19:05Z</time></trkpt><trkpt lat="46.09179371444714" lon="13.131629012104264"><ele>134.0</ele><time>2026-04-04T13:19:06Z</time></trkpt><trkpt lat="46.09175348298178" lon="13.131882797456145"><ele>134.0</ele><time>2026-04-04T13:19:07Z</time></trkpt><trkpt lat="46.091714278321696" lon="13.13211502682213"><ele>134.0</ele><time>2026-04-04T13:19:08Z</time></trkpt><trkpt lat="46.09167775056286" lon="13.132331415746114"><ele>133.75</ele><time>2026-04-04T13:19:09Z</time></trkpt><trkpt lat="46.091647752009216" lon="13.132540878930582"><ele>133.5</ele><time>2026-04-04T13:19:10Z</time></trkpt><trkpt lat="46.091616429658515" lon="13.132738868207461"><ele>133.25</ele><time>2026-04-04T13:19:11Z</time></trkpt><trkpt lat="46.091582975159696" lon="13.132943526948909"><ele>133.0</ele><time>2026-04-04T13:19:12Z</time></trkpt><trkpt lat="46.09154582759679" lon="13.133160467271907"><ele>131.66666666666669</ele><time>2026-04-04T13:19:13Z</time></trkpt><trkpt lat="46.091501989211366" lon="13.133387003024014"><ele>130.33333333333334</ele><time>2026-04-04T13:19:14Z</time></trkpt><trkpt lat="46.09146784167826" lon="13.133616474984697"><ele>129.0</ele><time>2026-04-04T13:19:15Z</time></trkpt><trkpt lat="46.09143349727385" lon="13.13384539489483"><ele>129.0</ele><time>2026-04-04T13:19:16Z</time></trkpt><trkpt lat="46.091400773537465" lon="13.134060367426802"><ele>129.0</ele><time>2026-04-04T13:19:17Z</time></trkpt><trkpt lat="46.09135995184443" lon="13.134300869701235"><ele>129.0</ele><time>2026-04-04T13:19:18Z</time></trkpt><trkpt lat="46.09132926122425" lon="13.134607500492448"><ele>129.33333333333334</ele><time>2026-04-04T13:19:19Z</time></trkpt><trkpt lat="46.091277056160735" lon="13.134902412865612"><ele>129.66666666666669</ele><time>2026-04-04T13:19:20Z</time></trkpt><trkpt lat="46.091215556606365" lon="13.135168022755034"><ele>130.0</ele><time>2026-04-04T13:19:21Z</time></trkpt><trkpt lat="46.09115845792188" lon="13.135427847588053"><ele>130.0</ele><time>2026-04-04T13:19:22Z</time></trkpt><trkpt lat="46.091119956814545" lon="13.135662635126238"><ele>130.0</ele><time>2026-04-04T13:19:23Z</time></trkpt><trkpt lat="46.09108997915022" lon="13.135881697476703"><ele>130.0</ele><time>2026-04-04T13:19:24Z</time></trkpt><trkpt lat="46.09104608328624" lon="13.13609152477001"><ele>129.66666666666669</ele><time>2026-04-04T13:19:25Z</time></trkpt><trkpt lat="46.091007320547725" lon="13.136322778752842"><ele>129.33333333333334</ele><time>2026-04-04T13:19:26Z</time></trkpt><trkpt lat="46.09095662148291" lon="13.13662181621773"><ele>129.0</ele><time>2026-04-04T13:19:27Z</time></trkpt><trkpt lat="46.090944152272314" lon="13.136968024855813"><ele>128.66666666666666</ele><time>2026-04-04T13:19:28Z</time></trkpt><trkpt lat="46.090883001517845" lon="13.13725373713176"><ele>128.33333333333331</ele><time>2026-04-04T13:19:29Z</time></trkpt><trkpt lat="46.09082043824349" lon="13.13751298671028"><ele>128.0</ele><time>2026-04-04T13:19:30Z</time></trkpt><trkpt lat="46.090772779306924" lon="13.137761897091178"><ele>127.66666666666666</ele><time>2026-04-04T13:19:31Z</time></trkpt><trkpt lat="46.090733714656615" lon="13.138010314630378"><ele>127.33333333333334</ele><time>2026-04-04T13:19:32Z</time></trkpt><trkpt lat="46.09069810375185" lon="13.138258112500962"><ele>127.0</ele><time>2026-04-04T13:19:33Z</time></trkpt><trkpt lat="46.09064414736996" lon="13.138499847774401"><ele>127.0</ele><time>2026-04-04T13:19:34Z</time></trkpt><trkpt lat="46.09062032646014" lon="13.138745721833999"><ele>127.0</ele><time>2026-04-04T13:19:35Z</time></trkpt><trkpt lat="46.09056386673469" lon="13.138983019779776"><ele>127.0</ele><time>2026-04-04T13:19:36Z</time></trkpt><trkpt lat="46.09052540959338" lon="13.139213376630442"><ele>127.0</ele><time>2026-04-04T13:19:37Z</time></trkpt><trkpt lat="46.090489894482054" lon="13.139426110935576"><ele>127.0</ele><time>2026-04-04T13:19:38Z</time></trkpt><trkpt lat="46.09045533297949" lon="13.139633133087656"><ele>127.0</ele><time>2026-04-04T13:19:39Z</time></trkpt><trkpt lat="46.09041996223318" lon="13.139848018105457"><ele>127.33333333333334</ele><time>2026-04-04T13:19:40Z</time></trkpt><trkpt lat="46.09038365685469" lon="13.140066960473016"><ele>127.66666666666666</ele><time>2026-04-04T13:19:41Z</time></trkpt><trkpt lat="46.09034828749237" lon="13.140280180998047"><ele>128.0</ele><time>2026-04-04T13:19:42Z</time></trkpt><trkpt lat="46.090315368581656" lon="13.140479686853956"><ele>128.0</ele><time>2026-04-04T13:19:43Z</time></trkpt><trkpt lat="46.09029856257409" lon="13.140685619521344"><ele>128.0</ele><time>2026-04-04T13:19:44Z</time></trkpt><trkpt lat="46.0902487832489" lon="13.140881725778803"><ele>128.0</ele><time>2026-04-04T13:19:45Z</time></trkpt><trkpt lat="46.09023215275576" lon="13.141082923884628"><ele>128.0</ele><time>2026-04-04T13:19:46Z</time></trkpt><trkpt lat="46.09018542173781" lon="13.141261486570919"><ele>128.0</ele><time>2026-04-04T13:19:47Z</time></trkpt><trkpt lat="46.09015639382488" lon="13.141435427008007"><ele>128.0</ele><time>2026-04-04T13:19:48Z</time></trkpt><trkpt lat="46.090140479023994" lon="13.14159892469744"><ele>128.0</ele><time>2026-04-04T13:19:49Z</time></trkpt><trkpt lat="46.090112799202714" lon="13.141748897211798"><ele>128.0</ele><time>2026-04-04T13:19:50Z</time></trkpt><trkpt lat="46.09009082578246" lon="13.141895880235221"><ele>127.83333333333333</ele><time>2026-04-04T13:19:51.001Z</time></trkpt><trkpt lat="46.09006974872126" lon="13.142032749039227"><ele>127.66666666666666</ele><time>2026-04-04T13:19:52.001Z</time></trkpt><trkpt lat="46.090047537828" lon="13.142167502657541"><ele>127.5</ele><time>2026-04-04T13:19:53.001Z</time></trkpt><trkpt lat="46.09002738641231" lon="13.142283801146661"><ele>127.33333333333334</ele><time>2026-04-04T13:19:54.001Z</time></trkpt><trkpt lat="46.090009511644176" lon="13.142395579760692"><ele>127.16666666666667</ele><time>2026-04-04T13:19:55.001Z</time></trkpt><trkpt lat="46.08998821881359" lon="13.142499364928725"><ele>127.0</ele><time>2026-04-04T13:19:56.001Z</time></trkpt><trkpt lat="46.089962487656386" lon="13.142588382610375"><ele>127.00000000000001</ele><time>2026-04-04T13:19:57.001Z</time></trkpt><trkpt lat="46.08993018539191" lon="13.142679907699192"><ele>127.0</ele><time>2026-04-04T13:19:58.001Z</time></trkpt><trkpt lat="46.08988655411919" lon="13.14276291529077"><ele>127.0</ele><time>2026-04-04T13:19:59.001Z</time></trkpt><trkpt lat="46.089823605758895" lon="13.14284871813335"><ele>127.0</ele><time>2026-04-04T13:20:00.001Z</time></trkpt><trkpt lat="46.089758882330074" lon="13.142943523875644"><ele>127.00000000000001</ele><time>2026-04-04T13:20:01.001Z</time></trkpt><trkpt lat="46.089711950847395" lon="13.143057504827201"><ele>127.0</ele><time>2026-04-04T13:20:02.001Z</time></trkpt><trkpt lat="46.08968819112465" lon="13.143195921772055"><ele>127.0</ele><time>2026-04-04T13:20:03.001Z</time></trkpt><trkpt lat="46.0896647862421" lon="13.143349990459662"><ele>126.99999999999999</ele><time>2026-04-04T13:20:04.001Z</time></trkpt><trkpt lat="46.08965674768691" lon="13.143509761668739"><ele>126.99999999999999</ele><time>2026-04-04T13:20:05.001Z</time></trkpt><trkpt lat="46.0896790964516" lon="13.143667871215028"><ele>127.0</ele><time>2026-04-04T13:20:06.001Z</time></trkpt><trkpt lat="46.08971770790287" lon="13.143824972234581"><ele>127.0</ele><time>2026-04-04T13:20:07.001Z</time></trkpt><trkpt lat="46.08973296266472" lon="13.143994104429776"><ele>126.66666666666667</ele><time>2026-04-04T13:20:08.001Z</time></trkpt><trkpt lat="46.089714590833346" lon="13.144192898068116"><ele>126.33333333333334</ele><time>2026-04-04T13:20:09.001Z</time></trkpt><trkpt lat="46.08966053789941" lon="13.144418487034782"><ele>126.0</ele><time>2026-04-04T13:20:10.001Z</time></trkpt><trkpt lat="46.08963440711566" lon="13.14466693496441"><ele>126.0</ele><time>2026-04-04T13:20:11.001Z</time></trkpt><trkpt lat="46.08959118846499" lon="13.144903149279251"><ele>126.0</ele><time>2026-04-04T13:20:12.001Z</time></trkpt><trkpt lat="46.08955510421696" lon="13.14511462052137"><ele>126.0</ele><time>2026-04-04T13:20:13.001Z</time></trkpt><trkpt lat="46.08951693208562" lon="13.145302526833353"><ele>126.0</ele><time>2026-04-04T13:20:14.001Z</time></trkpt><trkpt lat="46.0894824523176" lon="13.145484035928488"><ele>126.0</ele><time>2026-04-04T13:20:15.001Z</time></trkpt><trkpt lat="46.08944800022459" lon="13.14566612512337"><ele>126.0</ele><time>2026-04-04T13:20:16Z</time></trkpt><trkpt lat="46.08941499511412" lon="13.145864793424053"><ele>126.0</ele><time>2026-04-04T13:20:17Z</time></trkpt><trkpt lat="46.08938458680723" lon="13.146064813500331"><ele>125.75</ele><time>2026-04-04T13:20:18Z</time></trkpt><trkpt lat="46.08935003464337" lon="13.146263679547598"><ele>125.5</ele><time>2026-04-04T13:20:19Z</time></trkpt><trkpt lat="46.08931629913098" lon="13.146448091579911"><ele>125.25</ele><time>2026-04-04T13:20:20Z</time></trkpt><trkpt lat="46.08928165528642" lon="13.146633712187983"><ele>125.0</ele><time>2026-04-04T13:20:21Z</time></trkpt><trkpt lat="46.089249617747235" lon="13.146833253125443"><ele>125.0</ele><time>2026-04-04T13:20:22Z</time></trkpt><trkpt lat="46.08921951093326" lon="13.14704194039755"><ele>125.0</ele><time>2026-04-04T13:20:23Z</time></trkpt><trkpt lat="46.08919197406888" lon="13.147258304304867"><ele>125.0</ele><time>2026-04-04T13:20:24Z</time></trkpt><trkpt lat="46.08916237812449" lon="13.147479871050217"><ele>125.33333333333333</ele><time>2026-04-04T13:20:25Z</time></trkpt><trkpt lat="46.089126607099324" lon="13.147696699237915"><ele>125.66666666666666</ele><time>2026-04-04T13:20:26Z</time></trkpt><trkpt lat="46.08909499950041" lon="13.147915046395243"><ele>126.0</ele><time>2026-04-04T13:20:27Z</time></trkpt><trkpt lat="46.08905741243694" lon="13.148134560109428"><ele>126.33333333333334</ele><time>2026-04-04T13:20:28Z</time></trkpt><trkpt lat="46.089017170590985" lon="13.148377581086315"><ele>126.66666666666667</ele><time>2026-04-04T13:20:29Z</time></trkpt><trkpt lat="46.08897712029004" lon="13.148643029630387"><ele>127.0</ele><time>2026-04-04T13:20:30Z</time></trkpt><trkpt lat="46.08892753758715" lon="13.148904867484893"><ele>127.33333333333334</ele><time>2026-04-04T13:20:31Z</time></trkpt><trkpt lat="46.08887449333881" lon="13.149152093812386"><ele>127.66666666666666</ele><time>2026-04-04T13:20:32Z</time></trkpt><trkpt lat="46.088823838377046" lon="13.149381982206162"><ele>128.0</ele><time>2026-04-04T13:20:33Z</time></trkpt><trkpt lat="46.08877007381502" lon="13.149594661046143"><ele>128.0</ele><time>2026-04-04T13:20:34Z</time></trkpt><trkpt lat="46.08871935194608" lon="13.149800883168227"><ele>128.0</ele><time>2026-04-04T13:20:35Z</time></trkpt><trkpt lat="46.08866975956954" lon="13.150020126849267"><ele>128.0</ele><time>2026-04-04T13:20:36Z</time></trkpt><trkpt lat="46.08861660051141" lon="13.150222721509385"><ele>128.0</ele><time>2026-04-04T13:20:37Z</time></trkpt><trkpt lat="46.08856530013919" lon="13.150398232790245"><ele>128.0</ele><time>2026-04-04T13:20:38Z</time></trkpt><trkpt lat="46.08851391259571" lon="13.150567710287657"><ele>128.0</ele><time>2026-04-04T13:20:39Z</time></trkpt><trkpt lat="46.08846427662349" lon="13.150757905134654"><ele>128.0</ele><time>2026-04-04T13:20:40Z</time></trkpt><trkpt lat="46.088412591816926" lon="13.15095882246934"><ele>127.5</ele><time>2026-04-04T13:20:41Z</time></trkpt><trkpt lat="46.08835781834576" lon="13.151148141629255"><ele>127.0</ele><time>2026-04-04T13:20:42Z</time></trkpt><trkpt lat="46.08830895878291" lon="13.151332160294213"><ele>126.5</ele><time>2026-04-04T13:20:43Z</time></trkpt><trkpt lat="46.08825862970778" lon="13.151525872948211"><ele>126.0</ele><time>2026-04-04T13:20:44Z</time></trkpt><trkpt lat="46.08820665746413" lon="13.151735788672518"><ele>126.0</ele><time>2026-04-04T13:20:45Z</time></trkpt><trkpt lat="46.08815184239852" lon="13.151954720443461"><ele>126.0</ele><time>2026-04-04T13:20:46Z</time></trkpt><trkpt lat="46.08809359347881" lon="13.152178348971564"><ele>126.0</ele><time>2026-04-04T13:20:47Z</time></trkpt><trkpt lat="46.0880105456209" lon="13.152392088329188"><ele>126.33333333333334</ele><time>2026-04-04T13:20:48Z</time></trkpt><trkpt lat="46.087962914799625" lon="13.152623087101228"><ele>126.66666666666667</ele><time>2026-04-04T13:20:49Z</time></trkpt><trkpt lat="46.08790781736582" lon="13.152827295966615"><ele>127.0</ele><time>2026-04-04T13:20:50Z</time></trkpt><trkpt lat="46.08783811088779" lon="13.153025837234832"><ele>126.75</ele><time>2026-04-04T13:20:51Z</time></trkpt><trkpt lat="46.08780169690535" lon="13.153224622902652"><ele>126.5</ele><time>2026-04-04T13:20:52Z</time></trkpt><trkpt lat="46.08773929741075" lon="13.153391688365613"><ele>126.25</ele><time>2026-04-04T13:20:53Z</time></trkpt><trkpt lat="46.087688889861276" lon="13.153578348874142"><ele>126.0</ele><time>2026-04-04T13:20:54Z</time></trkpt><trkpt lat="46.0876362370107" lon="13.15377332381996"><ele>126.0</ele><time>2026-04-04T13:20:55Z</time></trkpt><trkpt lat="46.08758113129596" lon="13.153977381765205"><ele>126.0</ele><time>2026-04-04T13:20:56Z</time></trkpt><trkpt lat="46.08752928352286" lon="13.15417131855939"><ele>126.0</ele><time>2026-04-04T13:20:57Z</time></trkpt><trkpt lat="46.087498306170566" lon="13.15435505080086"><ele>126.0</ele><time>2026-04-04T13:20:58Z</time></trkpt><trkpt lat="46.0874370624918" lon="13.154523507942114"><ele>125.66666666666666</ele><time>2026-04-04T13:20:59Z</time></trkpt><trkpt lat="46.08740557644204" lon="13.154720755124313"><ele>125.33333333333333</ele><time>2026-04-04T13:21:00Z</time></trkpt><trkpt lat="46.08735547002078" lon="13.154933169789341"><ele>125.0</ele><time>2026-04-04T13:21:01Z</time></trkpt><trkpt lat="46.087307551784654" lon="13.155145792634555"><ele>125.0</ele><time>2026-04-04T13:21:02Z</time></trkpt><trkpt lat="46.08725927052441" lon="13.155368710900133"><ele>125.0</ele><time>2026-04-04T13:21:03Z</time></trkpt><trkpt lat="46.087211412380704" lon="13.15559999334058"><ele>125.0</ele><time>2026-04-04T13:21:04Z</time></trkpt><trkpt lat="46.08716441330616" lon="13.155820150777375"><ele>125.0</ele><time>2026-04-04T13:21:05Z</time></trkpt><trkpt lat="46.087115005026696" lon="13.156039582473879"><ele>125.0</ele><time>2026-04-04T13:21:06Z</time></trkpt><trkpt lat="46.087069651720796" lon="13.156260817903634"><ele>125.0</ele><time>2026-04-04T13:21:07Z</time></trkpt><trkpt lat="46.087023260107074" lon="13.156481645435669"><ele>124.75</ele><time>2026-04-04T13:21:08Z</time></trkpt><trkpt lat="46.08696510740166" lon="13.156684971591089"><ele>124.5</ele><time>2026-04-04T13:21:09Z</time></trkpt><trkpt lat="46.08692255573909" lon="13.156885446973602"><ele>124.25</ele><time>2026-04-04T13:21:10Z</time></trkpt><trkpt lat="46.08687914075185" lon="13.157089989720612"><ele>124.0</ele><time>2026-04-04T13:21:11Z</time></trkpt><trkpt lat="46.086832262775175" lon="13.157310847807523"><ele>123.66666666666667</ele><time>2026-04-04T13:21:12Z</time></trkpt><trkpt lat="46.08678365327423" lon="13.157540386720529"><ele>123.33333333333334</ele><time>2026-04-04T13:21:13Z</time></trkpt><trkpt lat="46.08673883292991" lon="13.157752347282608"><ele>123.0</ele><time>2026-04-04T13:21:14Z</time></trkpt><trkpt lat="46.086690414240834" lon="13.157981324896419"><ele>123.0</ele><time>2026-04-04T13:21:15Z</time></trkpt><trkpt lat="46.086668125013894" lon="13.15821273544027"><ele>123.0</ele><time>2026-04-04T13:21:16Z</time></trkpt><trkpt lat="46.08661966135787" lon="13.158443400572853"><ele>123.0</ele><time>2026-04-04T13:21:17Z</time></trkpt><trkpt lat="46.086579376338264" lon="13.158656569294081"><ele>123.0</ele><time>2026-04-04T13:21:18Z</time></trkpt><trkpt lat="46.08653850807103" lon="13.158862432416509"><ele>123.0</ele><time>2026-04-04T13:21:19Z</time></trkpt><trkpt lat="46.08647893838624" lon="13.15906385733277"><ele>123.0</ele><time>2026-04-04T13:21:20Z</time></trkpt><trkpt lat="46.0864451879936" lon="13.159291196709354"><ele>122.66666666666666</ele><time>2026-04-04T13:21:21Z</time></trkpt><trkpt lat="46.086411527437164" lon="13.159524572729172"><ele>122.33333333333333</ele><time>2026-04-04T13:21:22Z</time></trkpt><trkpt lat="46.086382329765534" lon="13.159736578101208"><ele>122.0</ele><time>2026-04-04T13:21:23Z</time></trkpt><trkpt lat="46.08635406099034" lon="13.159947284557257"><ele>122.0</ele><time>2026-04-04T13:21:24Z</time></trkpt><trkpt lat="46.086327351564" lon="13.160152415356912"><ele>122.0</ele><time>2026-04-04T13:21:25Z</time></trkpt><trkpt lat="46.08630125997547" lon="13.160360774081775"><ele>122.0</ele><time>2026-04-04T13:21:26Z</time></trkpt><trkpt lat="46.08627738262671" lon="13.160553190227043"><ele>122.0</ele><time>2026-04-04T13:21:27Z</time></trkpt><trkpt lat="46.08625517617682" lon="13.160732142090737"><ele>122.0</ele><time>2026-04-04T13:21:28Z</time></trkpt><trkpt lat="46.086233762730394" lon="13.160904703453111"><ele>122.0</ele><time>2026-04-04T13:21:29Z</time></trkpt><trkpt lat="46.08621189112327" lon="13.16108096316151"><ele>122.0</ele><time>2026-04-04T13:21:30Z</time></trkpt><trkpt lat="46.08618980861886" lon="13.161268823341063"><ele>122.0</ele><time>2026-04-04T13:21:31Z</time></trkpt><trkpt lat="46.086182367518774" lon="13.161463566956119"><ele>121.75</ele><time>2026-04-04T13:21:32Z</time></trkpt><trkpt lat="46.08615686840898" lon="13.161652575827379"><ele>121.5</ele><time>2026-04-04T13:21:33Z</time></trkpt><trkpt lat="46.08613215318657" lon="13.161839506023107"><ele>121.25</ele><time>2026-04-04T13:21:34Z</time></trkpt><trkpt lat="46.08610846666216" lon="13.162020337380554"><ele>121.0</ele><time>2026-04-04T13:21:35Z</time></trkpt><trkpt lat="46.08608262514238" lon="13.162202599274316"><ele>120.75</ele><time>2026-04-04T13:21:36Z</time></trkpt><trkpt lat="46.08605280079804" lon="13.16238652610186"><ele>120.5</ele><time>2026-04-04T13:21:37Z</time></trkpt><trkpt lat="46.08602526203962" lon="13.162551832658844"><ele>120.25</ele><time>2026-04-04T13:21:38Z</time></trkpt><trkpt lat="46.085994385172825" lon="13.16271616241521"><ele>120.0</ele><time>2026-04-04T13:21:39Z</time></trkpt><trkpt lat="46.085955474049214" lon="13.162879515932241"><ele>120.0</ele><time>2026-04-04T13:21:40Z</time></trkpt><trkpt lat="46.08590398333721" lon="13.163031124705782"><ele>120.0</ele><time>2026-04-04T13:21:41Z</time></trkpt><trkpt lat="46.08583538264765" lon="13.163171461460097"><ele>120.0</ele><time>2026-04-04T13:21:42Z</time></trkpt><trkpt lat="46.08574707600194" lon="13.163300872317912"><ele>120.0</ele><time>2026-04-04T13:21:43Z</time></trkpt><trkpt lat="46.085629138669674" lon="13.163382142251246"><ele>120.25</ele><time>2026-04-04T13:21:44Z</time></trkpt><trkpt lat="46.08555175239672" lon="13.163503378121963"><ele>120.5</ele><time>2026-04-04T13:21:45Z</time></trkpt><trkpt lat="46.08550600196234" lon="13.16362312891684"><ele>120.75</ele><time>2026-04-04T13:21:46Z</time></trkpt><trkpt lat="46.08547289989287" lon="13.16381053912991"><ele>121.0</ele><time>2026-04-04T13:21:47Z</time></trkpt><trkpt lat="46.0854743500945" lon="13.163973387640485"><ele>121.0</ele><time>2026-04-04T13:21:48Z</time></trkpt><trkpt lat="46.08550780236929" lon="13.164135178919203"><ele>121.0</ele><time>2026-04-04T13:21:49Z</time></trkpt><trkpt lat="46.08556666435374" lon="13.164273862305711"><ele>121.0</ele><time>2026-04-04T13:21:50Z</time></trkpt><trkpt lat="46.08558685627579" lon="13.16437316011886"><ele>121.0</ele><time>2026-04-04T13:21:51Z</time></trkpt><trkpt lat="46.085683792839625" lon="13.164466330421762"><ele>121.0</ele><time>2026-04-04T13:21:52Z</time></trkpt><trkpt lat="46.08579999994889" lon="13.164532476671312"><ele>121.0</ele><time>2026-04-04T13:21:53Z</time></trkpt><trkpt lat="46.08592743101073" lon="13.164554119150571"><ele>121.0</ele><time>2026-04-04T13:21:54Z</time></trkpt><trkpt lat="46.0860598443146" lon="13.16454302976516"><ele>121.0</ele><time>2026-04-04T13:21:55Z</time></trkpt><trkpt lat="46.086185901267775" lon="13.164499178769217"><ele>121.0</ele><time>2026-04-04T13:21:56Z</time></trkpt><trkpt lat="46.086306842492" lon="13.164452331621161"><ele>121.0</ele><time>2026-04-04T13:21:57Z</time></trkpt><trkpt lat="46.08642426219857" lon="13.164449329788383"><ele>121.0</ele><time>2026-04-04T13:21:58Z</time></trkpt><trkpt lat="46.08653443112501" lon="13.164481766006343"><ele>121.0</ele><time>2026-04-04T13:21:59Z</time></trkpt><trkpt lat="46.08662811852751" lon="13.164551507294755"><ele>121.0</ele><time>2026-04-04T13:22:00Z</time></trkpt><trkpt lat="46.0867149686591" lon="13.164661567927602"><ele>121.0</ele><time>2026-04-04T13:22:01Z</time></trkpt><trkpt lat="46.08677305771766" lon="13.164811257335467"><ele>121.0</ele><time>2026-04-04T13:22:02Z</time></trkpt><trkpt lat="46.0868001477492" lon="13.164978895135214"><ele>121.0</ele><time>2026-04-04T13:22:03Z</time></trkpt><trkpt lat="46.086833311018765" lon="13.165219613176639"><ele>121.0</ele><time>2026-04-04T13:22:04Z</time></trkpt><trkpt lat="46.08685031881419" lon="13.165477748665744"><ele>121.33333333333334</ele><time>2026-04-04T13:22:05Z</time></trkpt><trkpt lat="46.08685476324874" lon="13.16573422616143"><ele>121.66666666666666</ele><time>2026-04-04T13:22:06Z</time></trkpt><trkpt lat="46.08678681793928" lon="13.165979588613876"><ele>122.0</ele><time>2026-04-04T13:22:07Z</time></trkpt><trkpt lat="46.08671371584714" lon="13.166223775021509"><ele>122.0</ele><time>2026-04-04T13:22:08Z</time></trkpt><trkpt lat="46.08662688159468" lon="13.166477956473212"><ele>122.0</ele><time>2026-04-04T13:22:09Z</time></trkpt><trkpt lat="46.08653157712311" lon="13.166755448294861"><ele>122.0</ele><time>2026-04-04T13:22:10Z</time></trkpt><trkpt lat="46.086438435155046" lon="13.167074945343481"><ele>123.0</ele><time>2026-04-04T13:22:11Z</time></trkpt><trkpt lat="46.086321493903625" lon="13.167383964043193"><ele>124.0</ele><time>2026-04-04T13:22:12Z</time></trkpt><trkpt lat="46.08623250484065" lon="13.167662650974966"><ele>124.0</ele><time>2026-04-04T13:22:13Z</time></trkpt><trkpt lat="46.086156036312204" lon="13.167945964714667"><ele>124.0</ele><time>2026-04-04T13:22:14Z</time></trkpt><trkpt lat="46.08609250766172" lon="13.168247142045923"><ele>124.0</ele><time>2026-04-04T13:22:15Z</time></trkpt><trkpt lat="46.086042114646254" lon="13.16854294229808"><ele>123.5</ele><time>2026-04-04T13:22:16Z</time></trkpt><trkpt lat="46.08600803340782" lon="13.168855685430428"><ele>123.0</ele><time>2026-04-04T13:22:17Z</time></trkpt><trkpt lat="46.08600040988545" lon="13.169196882719994"><ele>122.5</ele><time>2026-04-04T13:22:18Z</time></trkpt><trkpt lat="46.086008344433104" lon="13.169557556136805"><ele>122.0</ele><time>2026-04-04T13:22:19Z</time></trkpt><trkpt lat="46.086031680859605" lon="13.169865209759523"><ele>123.0</ele><time>2026-04-04T13:22:20Z</time></trkpt><trkpt lat="46.08601762123786" lon="13.17025197111837"><ele>124.0</ele><time>2026-04-04T13:22:21Z</time></trkpt><trkpt lat="46.08596633289286" lon="13.170604865058804"><ele>123.0</ele><time>2026-04-04T13:22:22Z</time></trkpt><trkpt lat="46.08591679537635" lon="13.170919506614675"><ele>122.0</ele><time>2026-04-04T13:22:23Z</time></trkpt><trkpt lat="46.08586178467094" lon="13.171249467179916"><ele>122.0</ele><time>2026-04-04T13:22:24Z</time></trkpt><trkpt lat="46.085767072871086" lon="13.171586418135396"><ele>122.0</ele><time>2026-04-04T13:22:25Z</time></trkpt><trkpt lat="46.08566032673374" lon="13.171941065860514"><ele>122.0</ele><time>2026-04-04T13:22:26Z</time></trkpt><trkpt lat="46.08555345985188" lon="13.172291901587448"><ele>122.0</ele><time>2026-04-04T13:22:27Z</time></trkpt><trkpt lat="46.08545754958428" lon="13.172624725027584"><ele>122.0</ele><time>2026-04-04T13:22:28Z</time></trkpt><trkpt lat="46.08535498417052" lon="13.172959022857716"><ele>122.0</ele><time>2026-04-04T13:22:29Z</time></trkpt><trkpt lat="46.08525519934192" lon="13.173295429461543"><ele>123.0</ele><time>2026-04-04T13:22:30Z</time></trkpt><trkpt lat="46.08515539509389" lon="13.173631600880777"><ele>124.0</ele><time>2026-04-04T13:22:31Z</time></trkpt><trkpt lat="46.08505723588524" lon="13.173966969102107"><ele>123.5</ele><time>2026-04-04T13:22:32Z</time></trkpt><trkpt lat="46.08495627943666" lon="13.174305727001702"><ele>123.0</ele><time>2026-04-04T13:22:33Z</time></trkpt><trkpt lat="46.08485979849328" lon="13.174643894590512"><ele>121.5</ele><time>2026-04-04T13:22:34Z</time></trkpt><trkpt lat="46.08477314699557" lon="13.174964739161846"><ele>120.0</ele><time>2026-04-04T13:22:35Z</time></trkpt><trkpt lat="46.084672648880264" lon="13.175254657587198"><ele>120.0</ele><time>2026-04-04T13:22:36Z</time></trkpt><trkpt lat="46.08458251185567" lon="13.175558535976155"><ele>120.0</ele><time>2026-04-04T13:22:37Z</time></trkpt><trkpt lat="46.0844975368856" lon="13.175845011565533"><ele>120.0</ele><time>2026-04-04T13:22:38Z</time></trkpt><trkpt lat="46.0844173402661" lon="13.176115377923795"><ele>120.0</ele><time>2026-04-04T13:22:39Z</time></trkpt><trkpt lat="46.0843414949675" lon="13.17637176542083"><ele>120.0</ele><time>2026-04-04T13:22:40Z</time></trkpt><trkpt lat="46.08427562095116" lon="13.176594629343438"><ele>120.0</ele><time>2026-04-04T13:22:41Z</time></trkpt><trkpt lat="46.084216778429266" lon="13.176795318577414"><ele>120.25</ele><time>2026-04-04T13:22:42Z</time></trkpt><trkpt lat="46.084173498125274" lon="13.176994675795251"><ele>120.5</ele><time>2026-04-04T13:22:43Z</time></trkpt><trkpt lat="46.08410545413745" lon="13.177156610257738"><ele>120.75</ele><time>2026-04-04T13:22:44Z</time></trkpt><trkpt lat="46.08404164690174" lon="13.177291180339123"><ele>121.0</ele><time>2026-04-04T13:22:45Z</time></trkpt><trkpt lat="46.08398839499732" lon="13.177407373915942"><ele>121.4</ele><time>2026-04-04T13:22:46Z</time></trkpt><trkpt lat="46.0839281599334" lon="13.17751457341537"><ele>121.8</ele><time>2026-04-04T13:22:47Z</time></trkpt><trkpt lat="46.0838462715381" lon="13.177599282819266"><ele>122.20000000000002</ele><time>2026-04-04T13:22:48Z</time></trkpt><trkpt lat="46.083735528556055" lon="13.1776490485362"><ele>122.60000000000001</ele><time>2026-04-04T13:22:49Z</time></trkpt><trkpt lat="46.083658560903764" lon="13.177730061675954"><ele>123.0</ele><time>2026-04-04T13:22:50Z</time></trkpt><trkpt lat="46.083603427285425" lon="13.177831205354506"><ele>123.0</ele><time>2026-04-04T13:22:51Z</time></trkpt><trkpt lat="46.08356549737129" lon="13.177962669539577"><ele>123.00000000000001</ele><time>2026-04-04T13:22:52Z</time></trkpt><trkpt lat="46.08356922170173" lon="13.178123565486846"><ele>123.00000000000001</ele><time>2026-04-04T13:22:53Z</time></trkpt><trkpt lat="46.083609292931214" lon="13.178269297756428"><ele>123.0</ele><time>2026-04-04T13:22:54Z</time></trkpt><trkpt lat="46.08364340690833" lon="13.178428983813136"><ele>123.0</ele><time>2026-04-04T13:22:55Z</time></trkpt><trkpt lat="46.083642149974544" lon="13.178601149238396"><ele>122.25</ele><time>2026-04-04T13:22:56Z</time></trkpt><trkpt lat="46.08364813062058" lon="13.178790684689599"><ele>121.5</ele><time>2026-04-04T13:22:57Z</time></trkpt><trkpt lat="46.08365431501577" lon="13.178975126228277"><ele>120.75</ele><time>2026-04-04T13:22:58Z</time></trkpt><trkpt lat="46.0836794207416" lon="13.179145466904645"><ele>120.0</ele><time>2026-04-04T13:22:59Z</time></trkpt><trkpt lat="46.08370130254296" lon="13.17932653668916"><ele>120.0</ele><time>2026-04-04T13:23:00Z</time></trkpt><trkpt lat="46.08371496076608" lon="13.179514374264514"><ele>120.0</ele><time>2026-04-04T13:23:01Z</time></trkpt><trkpt lat="46.08346746717781" lon="13.17978859270752"><ele>120.0</ele><time>2026-04-04T13:23:02Z</time></trkpt><trkpt lat="46.08345008543915" lon="13.180001673463883"><ele>120.0</ele><time>2026-04-04T13:23:03Z</time></trkpt><trkpt lat="46.08344131986351" lon="13.18022204800333"><ele>120.0</ele><time>2026-04-04T13:23:04Z</time></trkpt><trkpt lat="46.083437937794166" lon="13.180449960722768"><ele>120.0</ele><time>2026-04-04T13:23:05Z</time></trkpt><trkpt lat="46.08343803326225" lon="13.180677641532581"><ele>120.33333333333334</ele><time>2026-04-04T13:23:06Z</time></trkpt><trkpt lat="46.08345005055144" lon="13.180906457879017"><ele>120.66666666666667</ele><time>2026-04-04T13:23:07Z</time></trkpt><trkpt lat="46.0834725531902" lon="13.181136216412678"><ele>121.0</ele><time>2026-04-04T13:23:08Z</time></trkpt><trkpt lat="46.08350604116751" lon="13.181363335678327"><ele>120.33333333333334</ele><time>2026-04-04T13:23:09Z</time></trkpt><trkpt lat="46.08354624752128" lon="13.181590988969933"><ele>119.66666666666666</ele><time>2026-04-04T13:23:10Z</time></trkpt><trkpt lat="46.083590620168195" lon="13.181814315664111"><ele>119.0</ele><time>2026-04-04T13:23:11Z</time></trkpt><trkpt lat="46.08363792557346" lon="13.182029929039388"><ele>119.0</ele><time>2026-04-04T13:23:12Z</time></trkpt><trkpt lat="46.08368926528196" lon="13.182236733897172"><ele>119.0</ele><time>2026-04-04T13:23:13Z</time></trkpt><trkpt lat="46.083754573302095" lon="13.182444544385467"><ele>119.0</ele><time>2026-04-04T13:23:14Z</time></trkpt><trkpt lat="46.08382988167522" lon="13.182655117390548"><ele>119.0</ele><time>2026-04-04T13:23:15Z</time></trkpt><trkpt lat="46.08391404941202" lon="13.182865470387927"><ele>119.0</ele><time>2026-04-04T13:23:16Z</time></trkpt><trkpt lat="46.084000845945" lon="13.183079901614551"><ele>119.0</ele><time>2026-04-04T13:23:17Z</time></trkpt><trkpt lat="46.08408228896689" lon="13.183300121261032"><ele>120.0</ele><time>2026-04-04T13:23:18Z</time></trkpt><trkpt lat="46.084169031918194" lon="13.183508653102741"><ele>121.0</ele><time>2026-04-04T13:23:19Z</time></trkpt><trkpt lat="46.08425745519906" lon="13.183707323911495"><ele>122.0</ele><time>2026-04-04T13:23:20Z</time></trkpt><trkpt lat="46.08435390801116" lon="13.18390489780632"><ele>121.66666666666666</ele><time>2026-04-04T13:23:21Z</time></trkpt><trkpt lat="46.084470623901375" lon="13.184094980963248"><ele>121.33333333333334</ele><time>2026-04-04T13:23:22Z</time></trkpt><trkpt lat="46.08460153250786" lon="13.184279722968892"><ele>121.0</ele><time>2026-04-04T13:23:23Z</time></trkpt><trkpt lat="46.08474516233441" lon="13.184458714575067"><ele>121.0</ele><time>2026-04-04T13:23:24Z</time></trkpt><trkpt lat="46.084889886005044" lon="13.184631953476948"><ele>121.0</ele><time>2026-04-04T13:23:25Z</time></trkpt><trkpt lat="46.0850303116137" lon="13.184790901589775"><ele>121.0</ele><time>2026-04-04T13:23:26Z</time></trkpt><trkpt lat="46.08517794157642" lon="13.184947182417917"><ele>120.0</ele><time>2026-04-04T13:23:27Z</time></trkpt><trkpt lat="46.085321347846154" lon="13.18509320307941"><ele>119.0</ele><time>2026-04-04T13:23:28Z</time></trkpt><trkpt lat="46.08545112652987" lon="13.185231326921064"><ele>118.0</ele><time>2026-04-04T13:23:29Z</time></trkpt><trkpt lat="46.085582458364925" lon="13.185361958027396"><ele>118.0</ele><time>2026-04-04T13:23:30Z</time></trkpt><trkpt lat="46.08571822089479" lon="13.18550704698818"><ele>118.0</ele><time>2026-04-04T13:23:31Z</time></trkpt><trkpt lat="46.085845768636574" lon="13.185666399812405"><ele>118.0</ele><time>2026-04-04T13:23:32Z</time></trkpt><trkpt lat="46.08595950129725" lon="13.185853458284011"><ele>117.0</ele><time>2026-04-04T13:23:33Z</time></trkpt><trkpt lat="46.086057316759934" lon="13.186061258779787"><ele>116.0</ele><time>2026-04-04T13:23:34Z</time></trkpt><trkpt lat="46.086135615549814" lon="13.186265918292685"><ele>115.0</ele><time>2026-04-04T13:23:35Z</time></trkpt><trkpt lat="46.08619537159099" lon="13.186484336561367"><ele>114.0</ele><time>2026-04-04T13:23:36Z</time></trkpt><trkpt lat="46.08624071716803" lon="13.186713336909243"><ele>113.0</ele><time>2026-04-04T13:23:37Z</time></trkpt><trkpt lat="46.08626535448043" lon="13.186942353344827"><ele>112.0</ele><time>2026-04-04T13:23:38Z</time></trkpt><trkpt lat="46.08627086770003" lon="13.187164427233741"><ele>112.33333333333334</ele><time>2026-04-04T13:23:39Z</time></trkpt><trkpt lat="46.08626291287386" lon="13.187388505338404"><ele>112.66666666666666</ele><time>2026-04-04T13:23:40Z</time></trkpt><trkpt lat="46.086236723175304" lon="13.187612569423173"><ele>113.0</ele><time>2026-04-04T13:23:41Z</time></trkpt><trkpt lat="46.086198767672364" lon="13.187829972284543"><ele>113.0</ele><time>2026-04-04T13:23:42Z</time></trkpt><trkpt lat="46.086152550215175" lon="13.188029660228624"><ele>113.0</ele><time>2026-04-04T13:23:43Z</time></trkpt><trkpt lat="46.086106376507736" lon="13.188213645341726"><ele>113.0</ele><time>2026-04-04T13:23:44Z</time></trkpt><trkpt lat="46.086056201554634" lon="13.188357956650828"><ele>113.0</ele><time>2026-04-04T13:23:45Z</time></trkpt><trkpt lat="46.08602053320784" lon="13.18854701860052"><ele>113.2</ele><time>2026-04-04T13:23:46Z</time></trkpt><trkpt lat="46.08598447740838" lon="13.188705062145623"><ele>113.4</ele><time>2026-04-04T13:23:47Z</time></trkpt><trkpt lat="46.08595387589671" lon="13.188848255350445"><ele>113.60000000000001</ele><time>2026-04-04T13:23:48Z</time></trkpt><trkpt lat="46.08592124647787" lon="13.188973742143709"><ele>113.80000000000001</ele><time>2026-04-04T13:23:49Z</time></trkpt><trkpt lat="46.08589716858469" lon="13.189101553832678"><ele>114.0</ele><time>2026-04-04T13:23:50Z</time></trkpt><trkpt lat="46.0858742771781" lon="13.189211870223545"><ele>114.0</ele><time>2026-04-04T13:23:51Z</time></trkpt><trkpt lat="46.085845022666035" lon="13.189338234980754"><ele>114.0</ele><time>2026-04-04T13:23:52Z</time></trkpt><trkpt lat="46.085806453798206" lon="13.189475015193533"><ele>114.0</ele><time>2026-04-04T13:23:53Z</time></trkpt><trkpt lat="46.08577536706177" lon="13.189596152994211"><ele>114.0</ele><time>2026-04-04T13:23:54Z</time></trkpt><trkpt lat="46.085732371113814" lon="13.189701402443177"><ele>114.0</ele><time>2026-04-04T13:23:55Z</time></trkpt><trkpt lat="46.085690408816234" lon="13.18980160681528"><ele>114.6</ele><time>2026-04-04T13:23:56Z</time></trkpt><trkpt lat="46.08565880310154" lon="13.189880226351075"><ele>115.2</ele><time>2026-04-04T13:23:57Z</time></trkpt><trkpt lat="46.08561238549677" lon="13.189998355814405"><ele>115.79999999999998</ele><time>2026-04-04T13:23:59Z</time></trkpt><trkpt lat="46.08555681543493" lon="13.190121846889399"><ele>116.39999999999999</ele><time>2026-04-04T13:24:01Z</time></trkpt><trkpt lat="46.085474913683605" lon="13.190253698324474"><ele>117.0</ele><time>2026-04-04T13:24:03Z</time></trkpt><trkpt lat="46.08539418969525" lon="13.190308111260874"><ele>117.0</ele><time>2026-04-04T13:24:04Z</time></trkpt><trkpt lat="46.08532035324898" lon="13.190393079328528"><ele>117.0</ele><time>2026-04-04T13:24:05Z</time></trkpt><trkpt lat="46.08525450614367" lon="13.190538761843142"><ele>117.0</ele><time>2026-04-04T13:24:06Z</time></trkpt><trkpt lat="46.08520191707328" lon="13.190721537189823"><ele>117.0</ele><time>2026-04-04T13:24:07Z</time></trkpt><trkpt lat="46.085242124890534" lon="13.19095005867396"><ele>117.25</ele><time>2026-04-04T13:24:08Z</time></trkpt><trkpt lat="46.08525103986004" lon="13.191150635571029"><ele>117.5</ele><time>2026-04-04T13:24:09Z</time></trkpt><trkpt lat="46.08525581374601" lon="13.19135364581418"><ele>117.75</ele><time>2026-04-04T13:24:10Z</time></trkpt><trkpt lat="46.085252506600966" lon="13.191564068017366"><ele>118.0</ele><time>2026-04-04T13:24:11Z</time></trkpt><trkpt lat="46.085242841674145" lon="13.191776172359509"><ele>117.33333333333334</ele><time>2026-04-04T13:24:12Z</time></trkpt><trkpt lat="46.08521602991085" lon="13.191990049136152"><ele>116.66666666666666</ele><time>2026-04-04T13:24:13Z</time></trkpt><trkpt lat="46.08516863503197" lon="13.192198871221583"><ele>116.0</ele><time>2026-04-04T13:24:14Z</time></trkpt><trkpt lat="46.085115483154325" lon="13.192418378241705"><ele>116.0</ele><time>2026-04-04T13:24:15Z</time></trkpt><trkpt lat="46.08506431359371" lon="13.192645314808733"><ele>116.0</ele><time>2026-04-04T13:24:16Z</time></trkpt><trkpt lat="46.085015079728414" lon="13.192872548008916"><ele>116.0</ele><time>2026-04-04T13:24:17Z</time></trkpt><trkpt lat="46.08492245552064" lon="13.19304366741776"><ele>115.75</ele><time>2026-04-04T13:24:18Z</time></trkpt><trkpt lat="46.08484606956713" lon="13.193209043329345"><ele>115.5</ele><time>2026-04-04T13:24:19Z</time></trkpt><trkpt lat="46.08475173026448" lon="13.19336269628737"><ele>115.25</ele><time>2026-04-04T13:24:20Z</time></trkpt><trkpt lat="46.08466164773346" lon="13.193532522767818"><ele>115.0</ele><time>2026-04-04T13:24:21Z</time></trkpt><trkpt lat="46.084566695979724" lon="13.193723803273464"><ele>115.0</ele><time>2026-04-04T13:24:22Z</time></trkpt><trkpt lat="46.08446770723636" lon="13.193929022927003"><ele>115.0</ele><time>2026-04-04T13:24:23Z</time></trkpt><trkpt lat="46.08436861699319" lon="13.194144901932285"><ele>115.0</ele><time>2026-04-04T13:24:24Z</time></trkpt><trkpt lat="46.08424490437815" lon="13.194367424491213"><ele>114.5</ele><time>2026-04-04T13:24:25Z</time></trkpt><trkpt lat="46.084108325274755" lon="13.194632397923108"><ele>114.0</ele><time>2026-04-04T13:24:26Z</time></trkpt><trkpt lat="46.083966333585586" lon="13.194909683675403"><ele>114.0</ele><time>2026-04-04T13:24:27Z</time></trkpt><trkpt lat="46.08384402461304" lon="13.195187549899297"><ele>114.0</ele><time>2026-04-04T13:24:28Z</time></trkpt><trkpt lat="46.08370871900837" lon="13.195413865129996"><ele>114.0</ele><time>2026-04-04T13:24:29Z</time></trkpt><trkpt lat="46.083595696137635" lon="13.19563564348982"><ele>113.33333333333334</ele><time>2026-04-04T13:24:30Z</time></trkpt><trkpt lat="46.08350502395679" lon="13.195876377433814"><ele>112.66666666666667</ele><time>2026-04-04T13:24:31Z</time></trkpt><trkpt lat="46.083408123336454" lon="13.196098022003577"><ele>112.0</ele><time>2026-04-04T13:24:32Z</time></trkpt><trkpt lat="46.08332929445225" lon="13.196338981800922"><ele>112.0</ele><time>2026-04-04T13:24:33Z</time></trkpt><trkpt lat="46.08328365304989" lon="13.196586994842818"><ele>112.0</ele><time>2026-04-04T13:24:34Z</time></trkpt><trkpt lat="46.08321902041154" lon="13.19683854936519"><ele>112.0</ele><time>2026-04-04T13:24:35Z</time></trkpt><trkpt lat="46.083214009336885" lon="13.197111285989589"><ele>111.66666666666667</ele><time>2026-04-04T13:24:36Z</time></trkpt><trkpt lat="46.08320541681927" lon="13.197387344931567"><ele>111.33333333333334</ele><time>2026-04-04T13:24:37Z</time></trkpt><trkpt lat="46.08322173696332" lon="13.19767524630888"><ele>111.0</ele><time>2026-04-04T13:24:38Z</time></trkpt><trkpt lat="46.08325347416622" lon="13.197977941923028"><ele>111.33333333333334</ele><time>2026-04-04T13:24:39Z</time></trkpt><trkpt lat="46.08330720905044" lon="13.198290179833114"><ele>111.66666666666667</ele><time>2026-04-04T13:24:40Z</time></trkpt><trkpt lat="46.083355989915006" lon="13.19860681207946"><ele>112.0</ele><time>2026-04-04T13:24:41Z</time></trkpt><trkpt lat="46.08339712502415" lon="13.198889452170118"><ele>112.33333333333334</ele><time>2026-04-04T13:24:42Z</time></trkpt><trkpt lat="46.08343356103553" lon="13.199140902438925"><ele>112.66666666666666</ele><time>2026-04-04T13:24:43Z</time></trkpt><trkpt lat="46.08344968503412" lon="13.199377797557757"><ele>113.0</ele><time>2026-04-04T13:24:44Z</time></trkpt><trkpt lat="46.083476974172434" lon="13.199609712332173"><ele>113.66666666666666</ele><time>2026-04-04T13:24:45Z</time></trkpt><trkpt lat="46.08346289059538" lon="13.199847812428853"><ele>114.33333333333334</ele><time>2026-04-04T13:24:46Z</time></trkpt><trkpt lat="46.08342573538443" lon="13.200072460251125"><ele>115.0</ele><time>2026-04-04T13:24:47Z</time></trkpt><trkpt lat="46.08336122774514" lon="13.200322371668536"><ele>115.0</ele><time>2026-04-04T13:24:48Z</time></trkpt><trkpt lat="46.08325179974146" lon="13.200584324138648"><ele>115.0</ele><time>2026-04-04T13:24:49Z</time></trkpt><trkpt lat="46.083137090002516" lon="13.200893397990624"><ele>115.0</ele><time>2026-04-04T13:24:50Z</time></trkpt><trkpt lat="46.0830231951395" lon="13.20123589203675"><ele>115.0</ele><time>2026-04-04T13:24:51Z</time></trkpt><trkpt lat="46.08290431280194" lon="13.201556644288754"><ele>115.5</ele><time>2026-04-04T13:24:52Z</time></trkpt><trkpt lat="46.082790414180884" lon="13.201864307627794"><ele>116.0</ele><time>2026-04-04T13:24:53Z</time></trkpt><trkpt lat="46.08267421175023" lon="13.202168181782175"><ele>116.0</ele><time>2026-04-04T13:24:54Z</time></trkpt><trkpt lat="46.08255895478291" lon="13.202473720456945"><ele>116.0</ele><time>2026-04-04T13:24:55Z</time></trkpt><trkpt lat="46.08245122500739" lon="13.202791525653495"><ele>115.0</ele><time>2026-04-04T13:24:56Z</time></trkpt><trkpt lat="46.08235053240689" lon="13.203139092465609"><ele>114.0</ele><time>2026-04-04T13:24:57Z</time></trkpt><trkpt lat="46.08226252349533" lon="13.203509430369632"><ele>114.0</ele><time>2026-04-04T13:24:58Z</time></trkpt><trkpt lat="46.08218215991773" lon="13.203900959492008"><ele>114.0</ele><time>2026-04-04T13:24:59Z</time></trkpt><trkpt lat="46.082091515278904" lon="13.204263239953601"><ele>114.0</ele><time>2026-04-04T13:25:00Z</time></trkpt><trkpt lat="46.08201922329222" lon="13.204595197829923"><ele>114.0</ele><time>2026-04-04T13:25:01Z</time></trkpt><trkpt lat="46.08194937034798" lon="13.204913499836954"><ele>114.5</ele><time>2026-04-04T13:25:02Z</time></trkpt><trkpt lat="46.081889945797755" lon="13.205240612524609"><ele>115.0</ele><time>2026-04-04T13:25:03Z</time></trkpt><trkpt lat="46.081798829166615" lon="13.205554410973853"><ele>115.66666666666667</ele><time>2026-04-04T13:25:04Z</time></trkpt><trkpt lat="46.081710630719435" lon="13.205847879975739"><ele>116.33333333333334</ele><time>2026-04-04T13:25:05Z</time></trkpt><trkpt lat="46.081612504491495" lon="13.206117954336364"><ele>117.0</ele><time>2026-04-04T13:25:06Z</time></trkpt><trkpt lat="46.08150964028579" lon="13.206377793466922"><ele>116.33333333333334</ele><time>2026-04-04T13:25:07Z</time></trkpt><trkpt lat="46.081402814729245" lon="13.206628407431621"><ele>115.66666666666667</ele><time>2026-04-04T13:25:08Z</time></trkpt><trkpt lat="46.08128839387205" lon="13.206856952047515"><ele>115.0</ele><time>2026-04-04T13:25:09Z</time></trkpt><trkpt lat="46.081167586864176" lon="13.207082402832492"><ele>115.0</ele><time>2026-04-04T13:25:10Z</time></trkpt><trkpt lat="46.081040343559096" lon="13.207314934944389"><ele>115.0</ele><time>2026-04-04T13:25:11Z</time></trkpt><trkpt lat="46.08091960101505" lon="13.207535000678446"><ele>115.0</ele><time>2026-04-04T13:25:12Z</time></trkpt><trkpt lat="46.08080338042851" lon="13.207730880932589"><ele>115.0</ele><time>2026-04-04T13:25:13Z</time></trkpt><trkpt lat="46.080690459505135" lon="13.207924169072498"><ele>115.0</ele><time>2026-04-04T13:25:14Z</time></trkpt><trkpt lat="46.0805716755747" lon="13.208127520116145"><ele>115.0</ele><time>2026-04-04T13:25:15Z</time></trkpt><trkpt lat="46.080450246067066" lon="13.208325195140773"><ele>115.0</ele><time>2026-04-04T13:25:16Z</time></trkpt><trkpt lat="46.08033669363355" lon="13.208520311392308"><ele>115.0</ele><time>2026-04-04T13:25:17Z</time></trkpt><trkpt lat="46.08023280954385" lon="13.20870117971119"><ele>115.0</ele><time>2026-04-04T13:25:18Z</time></trkpt><trkpt lat="46.080142103709484" lon="13.208860535922"><ele>114.8</ele><time>2026-04-04T13:25:19Z</time></trkpt><trkpt lat="46.080059487964334" lon="13.209003210969694"><ele>114.6</ele><time>2026-04-04T13:25:20Z</time></trkpt><trkpt lat="46.079986655013954" lon="13.209126796532944"><ele>114.4</ele><time>2026-04-04T13:25:21Z</time></trkpt><trkpt lat="46.07992230428882" lon="13.209217674833722"><ele>114.2</ele><time>2026-04-04T13:25:22Z</time></trkpt><trkpt lat="46.07985553635422" lon="13.209291928551925"><ele>114.0</ele><time>2026-04-04T13:25:23Z</time></trkpt><trkpt lat="46.079776789521354" lon="13.209350175063571"><ele>114.0</ele><time>2026-04-04T13:25:24Z</time></trkpt><trkpt lat="46.0796895673161" lon="13.20939887603615"><ele>114.0</ele><time>2026-04-04T13:25:25Z</time></trkpt><trkpt lat="46.079604639014526" lon="13.209464005088307"><ele>114.0</ele><time>2026-04-04T13:25:26Z</time></trkpt><trkpt lat="46.079552476073154" lon="13.209551090603751"><ele>114.0</ele><time>2026-04-04T13:25:27Z</time></trkpt><trkpt lat="46.079518214163755" lon="13.209670649106664"><ele>114.0</ele><time>2026-04-04T13:25:28Z</time></trkpt><trkpt lat="46.07949657658392" lon="13.209813368961079"><ele>114.25</ele><time>2026-04-04T13:25:29Z</time></trkpt><trkpt lat="46.07946392288707" lon="13.209954903921503"><ele>114.5</ele><time>2026-04-04T13:25:30Z</time></trkpt><trkpt lat="46.079406555173115" lon="13.210089905518576"><ele>114.75</ele><time>2026-04-04T13:25:31Z</time></trkpt><trkpt lat="46.079335181113976" lon="13.210225148126042"><ele>115.0</ele><time>2026-04-04T13:25:32Z</time></trkpt><trkpt lat="46.07924024098352" lon="13.210397998135658"><ele>115.0</ele><time>2026-04-04T13:25:33Z</time></trkpt><trkpt lat="46.07912213441066" lon="13.210613017958261"><ele>115.0</ele><time>2026-04-04T13:25:34Z</time></trkpt><trkpt lat="46.078969745832396" lon="13.21086063120751"><ele>115.0</ele><time>2026-04-04T13:25:35Z</time></trkpt><trkpt lat="46.078794560165626" lon="13.211138184444511"><ele>115.0</ele><time>2026-04-04T13:25:36Z</time></trkpt><trkpt lat="46.07862349565147" lon="13.211431409453597"><ele>115.0</ele><time>2026-04-04T13:25:37Z</time></trkpt><trkpt lat="46.07843793118187" lon="13.211752342301299"><ele>115.0</ele><time>2026-04-04T13:25:38Z</time></trkpt><trkpt lat="46.07826936885188" lon="13.212037370219685"><ele>115.0</ele><time>2026-04-04T13:25:39Z</time></trkpt><trkpt lat="46.07810655088318" lon="13.212307714072697"><ele>116.0</ele><time>2026-04-04T13:25:40Z</time></trkpt><trkpt lat="46.07795413935895" lon="13.212561515431696"><ele>117.0</ele><time>2026-04-04T13:25:41Z</time></trkpt><trkpt lat="46.07779861489188" lon="13.212813260918669"><ele>117.0</ele><time>2026-04-04T13:25:42Z</time></trkpt><trkpt lat="46.077648761988556" lon="13.213073638509206"><ele>117.0</ele><time>2026-04-04T13:25:43Z</time></trkpt><trkpt lat="46.077508793249834" lon="13.213339813554345"><ele>116.0</ele><time>2026-04-04T13:25:44Z</time></trkpt><trkpt lat="46.07737992201486" lon="13.213615908176939"><ele>115.0</ele><time>2026-04-04T13:25:45Z</time></trkpt><trkpt lat="46.0772660691103" lon="13.213898051141397"><ele>115.0</ele><time>2026-04-04T13:25:46Z</time></trkpt><trkpt lat="46.077159335313546" lon="13.21418394874316"><ele>115.0</ele><time>2026-04-04T13:25:47Z</time></trkpt><trkpt lat="46.077060254172004" lon="13.214481012185217"><ele>115.0</ele><time>2026-04-04T13:25:48Z</time></trkpt><trkpt lat="46.076969619515786" lon="13.214792577458802"><ele>115.0</ele><time>2026-04-04T13:25:49Z</time></trkpt><trkpt lat="46.07689006352788" lon="13.2151187261643"><ele>114.5</ele><time>2026-04-04T13:25:50Z</time></trkpt><trkpt lat="46.07681534498083" lon="13.215460070581027"><ele>114.0</ele><time>2026-04-04T13:25:51Z</time></trkpt><trkpt lat="46.076741066502684" lon="13.215818167525217"><ele>114.0</ele><time>2026-04-04T13:25:52Z</time></trkpt><trkpt lat="46.07666830942264" lon="13.21620018451721"><ele>114.0</ele><time>2026-04-04T13:25:53Z</time></trkpt><trkpt lat="46.0765969042254" lon="13.216574925177925"><ele>112.5</ele><time>2026-04-04T13:25:54Z</time></trkpt><trkpt lat="46.07652717838315" lon="13.216941303719558"><ele>111.0</ele><time>2026-04-04T13:25:55Z</time></trkpt><trkpt lat="46.076455975717984" lon="13.217302620468118"><ele>111.5</ele><time>2026-04-04T13:25:56Z</time></trkpt><trkpt lat="46.0763821614103" lon="13.217660803860994"><ele>112.0</ele><time>2026-04-04T13:25:57Z</time></trkpt><trkpt lat="46.07631230392866" lon="13.218017699098667"><ele>113.5</ele><time>2026-04-04T13:25:58Z</time></trkpt><trkpt lat="46.07624867620382" lon="13.218346862324086"><ele>115.0</ele><time>2026-04-04T13:25:59Z</time></trkpt><trkpt lat="46.076173968778555" lon="13.218665163369986"><ele>115.0</ele><time>2026-04-04T13:26:00Z</time></trkpt><trkpt lat="46.07607831620599" lon="13.218973753508566"><ele>115.0</ele><time>2026-04-04T13:26:01Z</time></trkpt><trkpt lat="46.07597436471125" lon="13.219277156673142"><ele>114.0</ele><time>2026-04-04T13:26:02Z</time></trkpt><trkpt lat="46.075862179672946" lon="13.219570035326175"><ele>113.0</ele><time>2026-04-04T13:26:03Z</time></trkpt><trkpt lat="46.07573694801475" lon="13.219847510809137"><ele>112.5</ele><time>2026-04-04T13:26:04Z</time></trkpt><trkpt lat="46.0755921159212" lon="13.220117024194487"><ele>112.0</ele><time>2026-04-04T13:26:05Z</time></trkpt><trkpt lat="46.07543428872614" lon="13.220384533034908"><ele>112.0</ele><time>2026-04-04T13:26:06Z</time></trkpt><trkpt lat="46.07526529951061" lon="13.220647343132532"><ele>112.0</ele><time>2026-04-04T13:26:07Z</time></trkpt><trkpt lat="46.075094439169426" lon="13.220899684718278"><ele>112.0</ele><time>2026-04-04T13:26:08Z</time></trkpt><trkpt lat="46.07493899520021" lon="13.221129128953457"><ele>112.0</ele><time>2026-04-04T13:26:09Z</time></trkpt><trkpt lat="46.07478702914791" lon="13.22134021332182"><ele>112.0</ele><time>2026-04-04T13:26:10Z</time></trkpt><trkpt lat="46.07463183852955" lon="13.221521733752214"><ele>112.66666666666667</ele><time>2026-04-04T13:26:11Z</time></trkpt><trkpt lat="46.074507628415965" lon="13.221724708340538"><ele>113.33333333333334</ele><time>2026-04-04T13:26:12Z</time></trkpt><trkpt lat="46.074365234098046" lon="13.221874442644314"><ele>114.0</ele><time>2026-04-04T13:26:13Z</time></trkpt><trkpt lat="46.074230166420115" lon="13.222024319321028"><ele>114.0</ele><time>2026-04-04T13:26:14Z</time></trkpt><trkpt lat="46.074108008026776" lon="13.222161362067895"><ele>114.0</ele><time>2026-04-04T13:26:15Z</time></trkpt><trkpt lat="46.07399958202585" lon="13.222282641110162"><ele>114.0</ele><time>2026-04-04T13:26:16Z</time></trkpt><trkpt lat="46.07391252534866" lon="13.22239867405509"><ele>114.0</ele><time>2026-04-04T13:26:17Z</time></trkpt><trkpt lat="46.07385797115472" lon="13.222513698817547"><ele>113.83333333333333</ele><time>2026-04-04T13:26:18Z</time></trkpt><trkpt lat="46.07378801840151" lon="13.22260352739144"><ele>113.66666666666666</ele><time>2026-04-04T13:26:20Z</time></trkpt><trkpt lat="46.07372932908796" lon="13.222645929861272"><ele>113.5</ele><time>2026-04-04T13:26:23Z</time></trkpt><trkpt lat="46.0736543362683" lon="13.222667021506718"><ele>113.33333333333333</ele><time>2026-04-04T13:26:24Z</time></trkpt><trkpt lat="46.07355747829096" lon="13.222669121637997"><ele>113.16666666666666</ele><time>2026-04-04T13:26:25Z</time></trkpt><trkpt lat="46.073477991973796" lon="13.222707832613043"><ele>113.0</ele><time>2026-04-04T13:26:26Z</time></trkpt><trkpt lat="46.0734169996128" lon="13.222764140912076"><ele>113.0</ele><time>2026-04-04T13:26:27Z</time></trkpt><trkpt lat="46.073363882590996" lon="13.222848908085393"><ele>113.00000000000001</ele><time>2026-04-04T13:26:28Z</time></trkpt><trkpt lat="46.07331213702624" lon="13.222962925767474"><ele>113.00000000000001</ele><time>2026-04-04T13:26:29Z</time></trkpt><trkpt lat="46.07327338955132" lon="13.223099131720993"><ele>113.0</ele><time>2026-04-04T13:26:30Z</time></trkpt><trkpt lat="46.0732457366792" lon="13.223247984821601"><ele>113.0</ele><time>2026-04-04T13:26:31Z</time></trkpt><trkpt lat="46.07321392916444" lon="13.223408585177308"><ele>113.2</ele><time>2026-04-04T13:26:32Z</time></trkpt><trkpt lat="46.07315136503132" lon="13.22359299832147"><ele>113.4</ele><time>2026-04-04T13:26:33Z</time></trkpt><trkpt lat="46.07309430004469" lon="13.223755964780677"><ele>113.60000000000001</ele><time>2026-04-04T13:26:34Z</time></trkpt><trkpt lat="46.07304910831061" lon="13.223881601454416"><ele>113.80000000000001</ele><time>2026-04-04T13:26:35Z</time></trkpt><trkpt lat="46.07301052280641" lon="13.223971760087968"><ele>114.0</ele><time>2026-04-04T13:26:36Z</time></trkpt><trkpt lat="46.07295376172037" lon="13.224069727889963"><ele>114.6</ele><time>2026-04-04T13:26:38Z</time></trkpt><trkpt lat="46.07285023818007" lon="13.223992441108898"><ele>115.2</ele><time>2026-04-04T13:26:39Z</time></trkpt><trkpt lat="46.072735249794505" lon="13.224152072110195"><ele>115.79999999999998</ele><time>2026-04-04T13:26:42Z</time></trkpt><trkpt lat="46.07271143392697" lon="13.224250619793262"><ele>116.39999999999999</ele><time>2026-04-04T13:26:43Z</time></trkpt><trkpt lat="46.07267462835299" lon="13.224349654601976"><ele>117.0</ele><time>2026-04-04T13:26:44Z</time></trkpt><trkpt lat="46.07263121710448" lon="13.224456256812898"><ele>117.0</ele><time>2026-04-04T13:26:45Z</time></trkpt><trkpt lat="46.072587284320974" lon="13.22455576393033"><ele>117.0</ele><time>2026-04-04T13:26:46Z</time></trkpt><trkpt lat="46.07252168527281" lon="13.22461506613779"><ele>117.0</ele><time>2026-04-04T13:26:47Z</time></trkpt><trkpt lat="46.072479281888825" lon="13.224755519979887"><ele>117.0</ele><time>2026-04-04T13:26:49Z</time></trkpt><trkpt lat="46.07243015787038" lon="13.224830769309781"><ele>117.0</ele><time>2026-04-04T13:26:51Z</time></trkpt><trkpt lat="46.07237804296535" lon="13.224885829939673"><ele>117.0</ele><time>2026-04-04T13:26:54Z</time></trkpt><trkpt lat="46.07227168535066" lon="13.224706587747848"><ele>114.0</ele><time>2026-04-04T13:26:58Z</time></trkpt></trkseg></trk></gpx>